Date StartTime U_cm/s V_cm/s W_cm/s Ustd_cm/s Vstd_cm/s Wstd_cm/s Uvar_(cm/s)^2 Vvar_(cm/s)^2 Wvar_(cm/s)^2 KE_(m/s)^2 TurbulentKE_(m/s)^2 HorizWindSpeed_cm/s FrictionSpeec_cm/s DragCoef SpeedOfSound_m/s SonicTemperature_C Pressure_mb 
01/06/2014  00:00:00     -100.796      -30.265      -12.187        9.784        9.121        8.687       95.734       83.197       75.455        0.574        0.013      105.241        1.978        0.000      330.195       -2.589      871.637
01/06/2014  00:01:00      -89.343      -38.763      -10.275       10.152       10.508        7.674      103.056      110.412       58.897        0.493        0.014       97.389        2.450        0.001      330.215       -2.555      871.650
01/06/2014  00:02:00      -71.413      -31.903      -10.015        9.999       12.551        9.282       99.983      157.517       86.154        0.328        0.017       78.215        4.257        0.003      330.209       -2.565      871.666
01/06/2014  00:03:00      -66.196      -16.485       -6.036       21.502       12.811       14.201      462.322      164.115      201.669        0.276        0.041       68.217       14.575        0.046      330.217       -2.550      871.669
01/06/2014  00:04:00      -80.500      -14.671      -12.495       10.168       12.153       10.594      103.380      147.703      112.231        0.361        0.018       81.826        5.734        0.005      330.249       -2.500      871.669
01/06/2014  00:05:00      -77.181      -33.064       -7.571       14.091       12.015       10.012      198.560      144.352      100.235        0.378        0.022       83.965        6.691        0.006      330.279       -2.451      871.669
01/06/2014  00:06:00     -116.046      -36.045      -13.349       17.213       13.063        8.156      296.283      170.639       66.526        0.774        0.027      121.515        6.094        0.003      330.310       -2.400      871.663
01/06/2014  00:07:00     -133.309      -35.992      -12.509       17.795       13.542       11.703      316.677      183.379      136.965        0.993        0.032      138.082        8.857        0.004      330.227       -2.536      871.655
01/06/2014  00:08:00     -110.497      -32.521      -10.767       20.280       20.114       14.737      411.294      404.573      217.174        0.721        0.052      115.183       12.568        0.012      330.269       -2.466      871.663
01/06/2014  00:09:00     -103.085      -30.399       -3.829       28.107       17.949       14.645      789.999      322.150      214.471        0.645        0.066      107.473       14.502        0.018      330.205       -2.572      871.649
01/06/2014  00:10:00      -84.557      -30.592       -2.265       22.363       23.402       14.962      500.097      547.676      223.871        0.468        0.064       89.921       13.454        0.022      330.131       -2.693      871.639
01/06/2014  00:11:00      -91.584      -24.317       -6.164       15.916       18.679       10.884      253.311      348.895      118.466        0.487        0.036       94.757       10.328        0.012      330.173       -2.624      871.625
01/06/2014  00:12:00      -79.127      -25.366       -2.089       18.250       18.071       14.848      333.045      326.563      220.469        0.389        0.044       83.094       13.387        0.026      330.168       -2.633      871.610
01/06/2014  00:13:00      -87.848      -17.223       -3.305       21.632       15.209       15.143      467.944      231.314      229.305        0.448        0.046       89.520       13.398        0.022      330.176       -2.620      871.598
01/06/2014  00:14:00     -108.769      -28.763       -6.683       25.234       17.519       14.132      636.760      306.912      199.723        0.692        0.057      112.508       13.337        0.014      330.112       -2.724      871.603
01/06/2014  00:15:00     -120.280      -50.310       -2.679       25.020       24.288       13.504      626.007      589.925      182.365        0.920        0.070      130.377       14.134        0.012      330.088       -2.763      871.614
01/06/2014  00:16:00     -148.611      -68.489      -12.707       21.114       18.086       15.887      445.796      327.097      252.412        1.398        0.051      163.634       13.786        0.007      330.182       -2.610      871.627
01/06/2014  00:17:00     -112.857      -50.807       -5.028       25.115       31.468       17.564      630.771      990.241      308.483        0.864        0.096      123.766       14.912        0.015      330.168       -2.632      871.644
01/06/2014  00:18:00     -102.701      -46.127      -14.192       12.549       14.578       13.057      157.487      212.519      170.495        0.671        0.027      112.584        7.807        0.005      330.085       -2.768      871.654
01/06/2014  00:19:00     -106.497      -56.883      -15.996       15.722       20.133       14.551      247.186      405.328      211.738        0.785        0.043      120.737       11.089        0.008      330.094       -2.753      871.652
01/06/2014  00:20:00      -88.507      -44.577       -9.607       15.769       16.962       11.254      248.659      287.705      126.660        0.529        0.033       99.099        9.100        0.008      330.112       -2.724      871.643
01/06/2014  00:21:00     -111.231      -31.560      -13.976        8.897       15.445        8.518       79.160      238.551       72.551        0.698        0.020      115.622        3.370        0.001      330.127       -2.700      871.626
01/06/2014  00:22:00      -98.157      -40.822      -10.724       15.367       11.662       10.783      236.130      136.006      116.275        0.595        0.024      106.308        8.900        0.007      330.088       -2.763      871.607
01/06/2014  00:23:00      -97.294      -54.499      -12.302        9.519       17.270        9.693       90.610      298.253       93.955        0.654        0.024      111.518        5.333        0.002      330.017       -2.880      871.606
01/06/2014  00:24:00     -107.209      -33.455       -7.744       32.629       38.261       19.690     1064.663     1463.881      387.692        0.779        0.146      112.308       12.359        0.012      330.010       -2.891      871.607
01/06/2014  00:25:00     -109.423      -24.720       -4.653       35.273       37.106       22.661     1244.169     1376.832      513.530        0.787        0.157      112.180       18.678        0.028      329.971       -2.954      871.598
01/06/2014  00:26:00     -107.815      -28.741       -4.721       51.108       36.614       22.313     2611.994     1340.579      497.866        0.846        0.223      111.580       23.129        0.043      329.947       -2.992      871.601
01/06/2014  00:27:00     -136.264      -64.468      -12.501       33.336       45.272       24.962     1111.311     2049.520      623.118        1.333        0.189      150.745       20.747        0.019      329.932       -3.019      871.598
01/06/2014  00:28:00     -121.824      -32.724       -6.138       50.701       31.502       25.160     2570.586      992.380      633.002        1.007        0.210      126.142       16.562        0.017      329.922       -3.036      871.588
01/06/2014  00:29:00     -138.040      -38.044       -1.384       57.371       38.651       28.481     3291.471     1493.906      811.189        1.305        0.280      143.187       34.233        0.057      329.876       -3.110      871.588
01/06/2014  00:30:00     -113.166      -27.831        1.328       65.260       46.078       28.369     4258.813     2123.215      804.824        1.038        0.359      116.538       33.263        0.081      329.880       -3.104      871.578
01/06/2014  00:31:00     -133.877      -19.470      -10.375       63.784       43.201       28.454     4068.426     1866.332      809.654        1.258        0.337      135.286       33.075        0.060      329.877       -3.109      871.567
01/06/2014  00:32:00      -80.148      -13.585       -8.388       52.889       37.893       22.415     2797.200     1435.900      502.420        0.571        0.237       81.291       25.287        0.097      329.852       -3.149      871.561
01/06/2014  00:33:00     -115.069       -3.532       -9.229       77.178       38.736       29.311     5956.491     1500.500      859.128        1.083        0.416      115.123       31.961        0.077      329.860       -3.137      871.550
01/06/2014  00:34:00      -84.402      -21.387       -7.761       53.728       48.369       29.372     2886.646     2339.553      862.692        0.686        0.304       87.070       22.316        0.066      329.934       -3.014      871.558
01/06/2014  00:35:00     -116.651       18.170      -11.590       52.747       45.682       29.616     2782.257     2086.846      877.103        0.991        0.287      118.058       25.578        0.047      330.002       -2.904      871.555
01/06/2014  00:36:00     -106.188       26.141       -8.573       53.316       34.744       25.878     2842.607     1207.114      669.660        0.838        0.236      109.358       21.623        0.039      330.042       -2.839      871.546
01/06/2014  00:37:00     -125.672       20.435      -13.406       43.897       37.996       23.030     1926.960     1443.732      530.390        1.015        0.195      127.323       14.823        0.014      330.121       -2.709      871.535
01/06/2014  00:38:00     -111.747       15.526      -17.320       42.601       32.806       25.851     1814.850     1076.236      668.264        0.829        0.178      112.820       21.044        0.035      330.120       -2.711      871.532
01/06/2014  00:39:00     -118.846       10.180      -17.368       43.764       40.669       24.242     1915.262     1653.958      587.659        0.934        0.208      119.281       18.476        0.024      330.089       -2.762      871.520
01/06/2014  00:40:00     -131.951       14.218      -17.900       43.959       32.093       22.309     1932.381     1029.981      497.698        1.070        0.173      132.714       15.833        0.014      330.049       -2.827      871.508
01/06/2014  00:41:00      -91.132        3.569      -13.000       32.449       28.075       22.018     1052.911      788.216      484.795        0.541        0.116       91.202       10.789        0.014      330.041       -2.839      871.497
01/06/2014  00:42:00      -61.365      -29.411       -2.612       32.835       30.776       21.828     1078.143      947.144      476.442        0.357        0.125       68.049       10.917        0.026      329.999       -2.908      871.493
01/06/2014  00:43:00      -53.712      -21.975       -6.843       43.422       37.509       21.944     1885.480     1406.911      481.529        0.359        0.189       58.033       11.656        0.040      330.030       -2.858      871.485
01/06/2014  00:44:00      -61.161      -25.646       -4.813       30.938       26.127       19.867      957.161      682.638      394.682        0.323        0.102       66.321       17.264        0.068      330.006       -2.896      871.476
01/06/2014  00:45:00      -68.578      -27.508      -14.888       32.668       20.271       20.642     1067.223      410.932      426.094        0.379        0.095       73.889       10.379        0.020      329.968       -2.960      871.486
01/06/2014  00:46:00      -77.379      -23.122      -16.776       27.416       28.236       23.293      751.635      797.278      542.545        0.445        0.105       80.760       18.463        0.052      329.973       -2.950      871.484
01/06/2014  00:47:00      -82.785      -17.852      -14.590       27.058       23.376       19.158      732.160      546.461      367.029        0.451        0.082       84.688        9.565        0.013      329.974       -2.951      871.484
01/06/2014  00:48:00      -96.141      -24.000      -15.915       24.136       30.653       20.703      582.547      939.595      428.599        0.601        0.098       99.091       14.104        0.020      329.922       -3.034      871.493
01/06/2014  00:49:00      -91.095      -34.797      -10.450       24.809       27.814       21.690      615.473      773.608      470.459        0.574        0.093       97.515       10.589        0.012      329.917       -3.044      871.516
01/06/2014  00:50:00      -80.061      -15.272      -13.287       44.620       31.858       26.704     1990.903     1014.921      713.101        0.527        0.186       81.505       30.043        0.136      329.931       -3.021      871.516
01/06/2014  00:51:00      -96.122      -77.883       -7.500       44.203       34.329       23.033     1953.896     1178.512      530.534        0.951        0.183      123.715       15.613        0.016      329.875       -3.111      871.512
01/06/2014  00:52:00      -88.360      -41.638       -2.924       41.231       39.392       21.656     1699.968     1551.729      468.977        0.663        0.186       97.679       16.467        0.028      329.891       -3.086      871.501
01/06/2014  00:53:00     -111.245       -3.482       -5.270       35.893       30.664       28.399     1288.302      940.274      806.509        0.772        0.152      111.299       22.109        0.039      329.839       -3.172      871.510
01/06/2014  00:54:00      -93.136      -15.486        2.219       42.823       27.729       22.746     1833.849      768.871      517.367        0.602        0.156       94.415       22.663        0.058      329.843       -3.164      871.519
01/06/2014  00:55:00     -125.274      -22.121       -9.169       34.402       31.810       23.473     1183.524     1011.888      550.972        0.951        0.137      127.212       20.497        0.026      329.887       -3.092      871.512
01/06/2014  00:56:00     -109.949      -32.534      -11.109       23.777       30.673       14.302      565.326      940.820      204.539        0.749        0.086      114.662        6.344        0.003      329.922       -3.034      871.498
01/06/2014  00:57:00      -71.491      -57.000       -7.045       31.041       30.866       10.931      963.574      952.685      119.492        0.522        0.102       91.433        8.876        0.009      329.944       -2.999      871.494
01/06/2014  00:58:00      -72.974      -32.860       -6.834       29.821       25.105       17.407      889.297      630.259      302.993        0.414        0.091       80.031       14.358        0.032      329.875       -3.113      871.483
01/06/2014  00:59:00     -116.125      -23.020      -13.259       25.420       21.926       16.396      646.194      480.771      268.832        0.779        0.070      118.384        6.617        0.003      329.846       -3.159      871.468
01/06/2014  01:00:00      -98.335      -23.545      -13.043       18.863       15.688       12.162      355.797      246.128      147.917        0.557        0.037      101.114        7.960        0.006      329.821       -3.199      871.455
01/06/2014  01:01:00      -79.965      -14.079      -11.855       11.654       11.564        8.766      135.811      133.737       76.850        0.354        0.017       81.195        4.463        0.003      329.847       -3.158      871.456
01/06/2014  01:02:00      -57.772      -18.572      -12.155       14.002       11.533       10.979      196.054      133.005      120.539        0.214        0.022       60.683        6.934        0.013      329.961       -2.972      871.462
01/06/2014  01:03:00      -49.646      -12.870      -10.148        8.751        9.517        8.440       76.587       90.578       71.231        0.149        0.012       51.287        7.159        0.019      330.115       -2.718      871.464
01/06/2014  01:04:00      -56.700      -20.966       -2.769       16.186       12.884        6.407      261.985      165.993       41.053        0.207        0.023       60.452        4.249        0.005      330.124       -2.703      871.466
01/06/2014  01:05:00      -56.678      -20.382       -7.295        8.834       11.772        9.592       78.045      138.591       91.997        0.199        0.015       60.231        8.492        0.020      329.919       -3.040      871.457
01/06/2014  01:06:00      -58.319      -16.137      -10.376       19.069       18.027       10.134      363.611      324.970      102.702        0.228        0.040       60.510        7.025        0.013      329.923       -3.034      871.469
01/06/2014  01:07:00      -65.701      -41.957      -12.209       23.342       18.094       13.444      544.843      327.401      180.753        0.364        0.053       77.955        5.423        0.005      329.888       -3.090      871.462
01/06/2014  01:08:00      -88.182      -34.535      -10.722       10.198       14.877       10.421      103.996      221.316      108.595        0.476        0.022       94.703        4.083        0.002      329.824       -3.195      871.450
01/06/2014  01:09:00      -81.643      -49.996        0.760       31.197       21.417       17.484      973.238      458.675      305.691        0.545        0.087       95.735       16.584        0.030      329.925       -3.032      871.449
01/06/2014  01:10:00      -78.127      -67.858        3.151       30.360       25.396       20.263      921.723      644.964      410.596        0.635        0.099      103.482       15.783        0.023      329.983       -2.937      871.458
01/06/2014  01:11:00      -58.928      -40.883        4.567       49.746       26.934       17.919     2474.640      725.418      321.078        0.434        0.176       71.721       16.457        0.053      329.997       -2.912      871.473
01/06/2014  01:12:00     -113.466     -110.528      -11.546       48.669       38.897       23.430     2368.633     1512.963      548.964        1.483        0.222      158.401       18.526        0.014      329.946       -2.996      871.489
01/06/2014  01:13:00     -119.386      -80.513       -0.831       38.753       39.961       26.493     1501.761     1596.890      701.894        1.227        0.190      143.997       19.437        0.018      329.887       -3.094      871.493
01/06/2014  01:14:00     -101.619      -86.948       -0.569       34.538       37.148       23.998     1192.860     1379.969      575.900        1.052        0.157      133.740       21.149        0.025      329.867       -3.125      871.487
01/06/2014  01:15:00      -84.860      -87.253       -1.827       36.848       24.998       24.764     1357.802      624.876      613.267        0.871        0.130      121.714       17.839        0.021      329.856       -3.143      871.493
01/06/2014  01:16:00      -83.144      -53.504       12.751       45.892       36.167       19.895     2106.104     1308.021      395.814        0.687        0.190       98.872       19.986        0.041      329.899       -3.073      871.498
01/06/2014  01:17:00     -118.447      -70.183        2.624       34.731       35.457       20.982     1206.246     1257.216      440.257        1.093        0.145      137.678       16.775        0.015      329.868       -3.124      871.506
01/06/2014  01:18:00     -122.412      -66.155        4.661       58.241       36.389       29.809     3391.962     1324.155      888.550        1.249        0.280      139.145       24.100        0.030      329.891       -3.086      871.513
01/06/2014  01:19:00     -122.471      -81.421       -2.258       55.544       32.467       25.271     3085.152     1054.114      638.610        1.320        0.239      147.066       26.301        0.032      329.923       -3.034      871.515
01/06/2014  01:20:00      -92.993      -45.835        4.469       64.455       31.171       21.194     4154.511      971.661      449.171        0.817        0.279      103.676       24.414        0.055      329.899       -3.074      871.511
01/06/2014  01:21:00      -67.560      -50.649        1.288       49.225       23.738       19.501     2423.136      563.476      380.270        0.525        0.168       84.437       22.666        0.072      329.967       -2.961      871.510
01/06/2014  01:22:00     -117.004      -42.163       -2.161       24.131       26.208       16.187      582.302      686.868      262.017        0.850        0.077      124.369       15.462        0.015      329.888       -3.092      871.517
01/06/2014  01:23:00     -118.546      -42.741       -7.662       25.663       23.849       16.394      658.579      568.751      268.747        0.872        0.075      126.016       13.577        0.012      329.838       -3.172      871.517
01/06/2014  01:24:00     -125.820      -32.430       -4.255       25.891       22.794       11.822      670.365      519.587      139.771        0.911        0.066      129.932        7.099        0.003      329.852       -3.149      871.512
01/06/2014  01:25:00     -108.129      -11.037       -4.304       30.539       22.781       18.182      932.659      518.989      330.603        0.681        0.089      108.691       14.146        0.017      329.776       -3.275      871.499
01/06/2014  01:26:00     -111.322      -20.421       -2.726       31.371       20.709       20.858      984.136      428.879      435.062        0.733        0.092      113.179       19.912        0.031      329.779       -3.270      871.495
01/06/2014  01:27:00     -109.382      -20.673       -3.958       29.074       21.160       16.491      845.287      447.733      271.939        0.699        0.078      111.318       13.558        0.015      329.806       -3.223      871.489
01/06/2014  01:28:00     -113.187      -32.564       -0.351       29.574       22.528       19.379      874.630      507.494      375.560        0.781        0.088      117.778       15.414        0.017      329.806       -3.226      871.483
01/06/2014  01:29:00     -134.533      -31.255      -11.820       24.173       21.375       16.285      584.339      456.892      265.217        1.026        0.065      138.116       14.165        0.011      329.796       -3.240      871.469
01/06/2014  01:30:00     -132.725      -41.389      -12.876       29.974       21.944       15.832      898.434      481.548      250.640        1.056        0.082      139.029       12.019        0.007      329.817       -3.207      871.467
01/06/2014  01:31:00     -114.257      -49.808       -6.706       23.031       27.166       19.042      530.436      737.976      362.611        0.861        0.082      124.641       13.025        0.011      329.744       -3.326      871.475
01/06/2014  01:32:00     -127.988      -39.633      -11.757       16.952       23.501       14.733      287.378      552.286      217.063        0.957        0.053      133.984        9.317        0.005      329.722       -3.364      871.483
01/06/2014  01:33:00     -115.039      -37.266       -7.448       31.384       29.780       14.595      984.958      886.825      213.013        0.838        0.104      120.924       15.999        0.018      329.765       -3.291      871.487
01/06/2014  01:34:00     -121.359      -36.200      -10.367       24.628       23.160       18.160      606.530      536.385      329.771        0.881        0.074      126.643       16.150        0.016      329.768       -3.287      871.492
01/06/2014  01:35:00     -108.428      -42.177       -3.603       26.457       23.762       15.470      699.958      564.638      239.311        0.753        0.075      116.342       13.600        0.014      329.725       -3.356      871.486
01/06/2014  01:36:00     -100.168      -32.113       -2.009       28.468       31.230       20.686      810.442      975.330      427.914        0.664        0.111      105.190       15.689        0.022      329.759       -3.301      871.489
01/06/2014  01:37:00      -69.503      -27.934        1.227       42.744       23.076       18.827     1827.063      532.482      354.444        0.416        0.136       74.907       20.162        0.072      329.746       -3.323      871.492
01/06/2014  01:38:00      -89.344      -11.910       -1.516       33.856       27.755       18.470     1146.262      770.334      341.140        0.519        0.113       90.135       13.108        0.021      329.733       -3.345      871.502
01/06/2014  01:39:00     -108.914      -23.740       -6.749       42.059       40.334       19.882     1768.939     1626.853      395.295        0.813        0.190      111.471       15.417        0.019      329.733       -3.346      871.512
01/06/2014  01:40:00     -110.055      -26.307       -3.560       46.191       29.437       22.325     2133.617      866.549      498.426        0.816        0.175      113.155       26.579        0.055      329.626       -3.520      871.528
01/06/2014  01:41:00     -104.965      -31.045       -7.024       34.402       32.762       19.137     1183.478     1073.351      366.207        0.733        0.131      109.459       14.327        0.017      329.643       -3.491      871.541
01/06/2014  01:42:00      -99.130      -21.834      -13.047       34.744       25.948       22.001     1207.125      673.292      484.064        0.642        0.118      101.506       22.169        0.048      329.688       -3.417      871.551
01/06/2014  01:43:00      -83.927      -20.403       -9.533       19.236       24.178       16.457      370.010      584.563      270.840        0.439        0.061       86.371       11.141        0.017      329.738       -3.336      871.564
01/06/2014  01:44:00      -59.640      -31.624       -4.769       30.166       22.149       14.513      909.958      490.600      210.618        0.310        0.081       67.506       14.992        0.049      329.684       -3.424      871.579
01/06/2014  01:45:00     -110.241      -39.811      -14.275       16.167       24.281       13.363      261.386      589.572      178.583        0.749        0.051      117.209        7.423        0.004      329.623       -3.527      871.586
01/06/2014  01:46:00     -123.781      -25.610      -15.735       18.392       14.342       13.357      338.258      205.701      178.404        0.847        0.036      126.402       12.015        0.009      329.606       -3.552      871.589
01/06/2014  01:47:00     -102.052      -42.597      -18.065       45.513       26.784       20.487     2071.449      717.380      419.722        0.788        0.160      110.585       25.994        0.055      329.623       -3.525      871.596
01/06/2014  01:48:00     -106.691      -21.214      -10.194       24.690       22.741       17.054      609.601      517.160      290.827        0.668        0.071      108.779       14.617        0.018      329.601       -3.560      871.597
01/06/2014  01:49:00      -86.713      -15.283       -7.094       59.426       25.433       19.394     3531.462      646.825      376.111        0.618        0.228       88.049       25.084        0.081      329.609       -3.547      871.595
01/06/2014  01:50:00      -19.553        3.735       -0.310       21.071       26.896       15.045      443.979      723.387      226.360        0.089        0.070       19.906        8.986        0.204      329.633       -3.507      871.597
01/06/2014  01:51:00      -68.754      -28.171       -8.046       20.337       24.537       16.193      413.606      602.084      262.218        0.343        0.064       74.301        4.831        0.004      329.688       -3.417      871.597
01/06/2014  01:52:00      -67.493      -16.510       -4.280       18.485       16.498       12.466      341.711      272.175      155.402        0.281        0.038       69.483        7.905        0.013      329.665       -3.455      871.592
01/06/2014  01:53:00      -59.555      -23.716      -16.322       18.462       16.190       11.016      340.859      262.100      121.347        0.255        0.036       64.103        9.628        0.023      329.764       -3.293      871.594
01/06/2014  01:54:00      -68.528      -26.136      -12.742       16.991        9.428       10.315      288.688       88.883      106.391        0.301        0.024       73.342        5.352        0.005      329.774       -3.277      871.588
01/06/2014  01:55:00      -78.086      -25.420      -17.161       15.849       21.456       13.124      251.201      460.341      172.252        0.396        0.044       82.120       10.679        0.017      329.695       -3.406      871.584
01/06/2014  01:56:00      -70.228      -26.658      -15.240       15.346       15.491       10.577      235.496      239.985      111.869        0.323        0.029       75.117        4.427        0.003      329.646       -3.486      871.579
01/06/2014  01:57:00      -80.466      -23.907      -17.126       19.606       15.692       10.829      384.386      246.239      117.267        0.404        0.037       83.943        7.667        0.008      329.568       -3.615      871.589
01/06/2014  01:58:00      -64.882      -23.410      -11.459       19.118       17.235       13.370      365.513      297.031      178.757        0.286        0.042       68.976        8.568        0.015      329.649       -3.483      871.583
01/06/2014  01:59:00      -75.311      -19.180       -8.707       17.753       16.099       11.376      315.159      259.175      129.412        0.341        0.035       77.715        8.136        0.011      329.643       -3.493      871.579
01/06/2014  02:00:00      -78.380      -18.500       -8.997       10.525       14.480       10.217      110.780      209.673      104.396        0.350        0.021       80.533        3.105        0.001      329.677       -3.436      871.569
01/06/2014  02:01:00      -70.328      -29.728      -11.405       14.588       17.284       10.474      212.824      298.743      109.699        0.329        0.031       76.353        4.783        0.004      329.724       -3.358      871.569
01/06/2014  02:02:00      -74.875      -25.327      -11.673       20.059       10.737        7.887      402.374      115.291       62.198        0.348        0.029       79.042        6.287        0.006      329.706       -3.389      871.567
01/06/2014  02:03:00      -82.703      -19.462      -10.958       17.196       18.100       10.499      295.695      327.618      110.232        0.404        0.037       84.962        9.915        0.014      329.629       -3.517      871.576
01/06/2014  02:04:00      -53.261      -29.698      -12.750       17.920       16.471       12.761      321.117      271.281      162.830        0.232        0.038       60.981       10.565        0.030      329.710       -3.382      871.578
01/06/2014  02:05:00      -61.671      -35.135      -15.306       14.945       17.723       13.701      223.367      314.117      187.729        0.300        0.036       70.977        7.475        0.011      329.776       -3.272      871.582
01/06/2014  02:06:00      -77.625      -26.814      -12.334        9.955        9.498       10.689       99.095       90.212      114.258        0.360        0.015       82.126        6.258        0.006      329.729       -3.350      871.585
01/06/2014  02:07:00      -77.429      -33.602      -12.490       11.802       16.392       11.507      139.279      268.683      132.409        0.391        0.027       84.405        5.818        0.005      329.679       -3.434      871.598
01/06/2014  02:08:00      -97.343      -19.176      -14.426       15.241       13.293       10.535      232.302      176.706      110.997        0.529        0.026       99.213        4.069        0.002      329.597       -3.569      871.615
01/06/2014  02:09:00      -97.252      -27.450      -14.821       15.276       16.898       10.728      233.366      285.532      115.089        0.553        0.032      101.052        8.123        0.006      329.572       -3.607      871.631
01/06/2014  02:10:00      -98.605      -15.275      -11.801       14.148       14.988       10.659      200.167      224.626      113.612        0.532        0.027       99.781        6.677        0.004      329.629       -3.515      871.654
01/06/2014  02:11:00      -89.136      -20.173       -8.324       17.461       13.621       10.583      304.902      185.526      111.997        0.451        0.030       91.390        8.387        0.008      329.642       -3.493      871.669
01/06/2014  02:12:00     -106.495      -22.295      -12.112       14.471       12.406       10.387      209.405      153.915      107.900        0.623        0.024      108.804        7.998        0.005      329.696       -3.406      871.683
01/06/2014  02:13:00     -120.486      -33.934      -15.347       11.149       12.931       10.497      124.311      167.220      110.179        0.815        0.020      125.174        4.734        0.001      329.693       -3.409      871.689
01/06/2014  02:14:00     -113.976      -48.160      -11.624       16.514       13.719        9.372      272.726      188.199       87.836        0.800        0.027      123.733        5.978        0.002      329.669       -3.449      871.695
01/06/2014  02:15:00     -108.309      -51.008      -12.482       11.913       14.576        8.868      141.917      212.457       78.644        0.746        0.022      119.719        4.176        0.001      329.666       -3.455      871.698
01/06/2014  02:16:00     -107.353      -39.887      -11.810       13.664       10.067       10.199      186.693      101.347      104.026        0.682        0.020      114.523        6.069        0.003      329.626       -3.520      871.701
01/06/2014  02:17:00      -99.422      -41.071      -16.234       10.627        8.420        7.649      112.937       70.889       58.501        0.604        0.012      107.572        4.087        0.001      329.585       -3.587      871.705
01/06/2014  02:18:00     -104.432      -36.222      -12.646       12.431       12.540       10.421      154.530      157.259      108.604        0.640        0.021      110.535        5.351        0.002      329.587       -3.582      871.701
01/06/2014  02:19:00      -89.564      -35.077      -19.222       12.220       10.026        8.881      149.321      100.515       78.869        0.498        0.016       96.188        2.910        0.001      329.554       -3.636      871.689
01/06/2014  02:20:00      -81.812      -19.618      -13.111       13.087       15.139       11.027      171.267      229.175      121.593        0.389        0.026       84.131        5.889        0.005      329.576       -3.602      871.675
01/06/2014  02:21:00      -86.695      -27.808       -8.535       11.551       13.011       10.610      133.425      169.275      112.566        0.439        0.021       91.046        4.895        0.003      329.563       -3.623      871.658
01/06/2014  02:22:00      -84.984      -34.277      -10.547       11.257       10.006        7.932      126.726      100.121       62.911        0.440        0.014       91.637        3.468        0.001      329.589       -3.579      871.640
01/06/2014  02:23:00      -99.840      -32.200      -11.958       13.304       11.267       11.543      176.989      126.955      133.251        0.579        0.022      104.905        7.501        0.005      329.611       -3.544      871.627
01/06/2014  02:24:00     -107.997      -28.279       -7.102       13.739       15.540       11.998      188.772      241.493      143.945        0.654        0.029      111.638        8.593        0.006      329.615       -3.538      871.628
01/06/2014  02:25:00     -121.010      -39.596      -15.474       16.905       16.817       13.359      285.767      282.795      178.459        0.860        0.037      127.323       11.386        0.008      329.523       -3.689      871.647
01/06/2014  02:26:00     -106.430      -40.768       -7.366       13.913       15.064       11.362      193.582      226.914      129.094        0.680        0.027      113.971        9.568        0.007      329.509       -3.711      871.673
01/06/2014  02:27:00     -103.919      -40.656       -9.457       14.123       11.550        9.261      199.467      133.396       85.772        0.648        0.021      111.589        3.698        0.001      329.500       -3.726      871.701
01/06/2014  02:28:00      -92.287      -27.976      -11.444       17.365       12.158       10.699      301.539      147.810      114.464        0.500        0.028       96.434        8.061        0.007      329.462       -3.787      871.720
01/06/2014  02:29:00      -77.827      -21.690       -8.807       20.287       21.576       10.864      411.574      465.527      118.018        0.380        0.050       80.793        9.034        0.013      329.462       -3.786      871.721
01/06/2014  02:30:00      -85.329      -10.872      -13.373       18.565       19.533       12.926      344.658      381.535      167.083        0.424        0.045       86.019       13.830        0.026      329.542       -3.657      871.719
01/06/2014  02:31:00      -77.146      -16.028       -6.964       12.364       13.845       10.934      152.878      191.680      119.560        0.336        0.023       78.793        7.239        0.008      329.539       -3.662      871.708
01/06/2014  02:32:00      -58.307      -15.810       -8.201       13.227       11.408        9.988      174.953      130.140       99.756        0.206        0.020       60.413        6.591        0.012      329.547       -3.649      871.686
01/06/2014  02:33:00      -51.444      -27.240      -12.228       11.894        9.978        8.666      141.463       99.563       75.102        0.193        0.016       58.210        4.509        0.006      329.576       -3.602      871.676
01/06/2014  02:34:00      -61.228      -19.291      -15.358        9.326        8.944       10.454       86.969       80.001      109.278        0.232        0.014       64.195        5.384        0.007      329.589       -3.579      871.671
01/06/2014  02:35:00      -40.524      -13.715      -16.355       12.564       12.785       11.021      157.848      163.463      121.459        0.127        0.022       42.782        8.637        0.041      329.614       -3.539      871.673
01/06/2014  02:36:00      -57.918      -13.245      -10.748       13.028       11.386        7.338      169.738      129.639       53.852        0.200        0.018       59.414        6.101        0.011      329.605       -3.554      871.674
01/06/2014  02:37:00      -58.496      -21.392      -11.945       12.040       12.289        9.841      144.970      151.011       96.837        0.221        0.020       62.284        6.689        0.012      329.631       -3.512      871.673
01/06/2014  02:38:00      -75.017      -29.269      -12.240       13.894       13.199        8.094      193.037      174.220       65.507        0.353        0.022       80.525        4.692        0.003      329.557       -3.631      871.672
01/06/2014  02:39:00      -98.348      -26.534      -12.682       13.639       10.269        9.007      186.014      105.449       81.129        0.545        0.019      101.865        3.248        0.001      329.533       -3.674      871.676
01/06/2014  02:40:00      -74.903      -37.289       -7.928       21.554       21.808       14.960      464.560      475.582      223.810        0.411        0.058       83.672        8.636        0.011      329.543       -3.656      871.679
01/06/2014  02:41:00      -98.744      -64.582      -10.809       23.024       23.372       16.222      530.086      546.254      263.160        0.769        0.067      117.988        7.548        0.004      329.516       -3.699      871.692
01/06/2014  02:42:00      -98.062      -56.216       -4.538       26.955       24.560       19.000      726.599      603.200      360.997        0.724        0.085      113.033       18.013        0.025      329.424       -3.850      871.697
01/06/2014  02:43:00      -83.955      -52.419       -2.219       28.002       18.452       16.500      784.099      340.476      272.254        0.560        0.070       98.976       12.292        0.015      329.499       -3.727      871.696
01/06/2014  02:44:00      -97.358      -49.181       -4.561       28.102       19.478       14.015      789.712      379.393      196.422        0.664        0.068      109.075       14.059        0.017      329.412       -3.870      871.692
01/06/2014  02:45:00      -62.996      -50.202        5.223       56.210       35.006       19.211     3159.528     1225.410      369.070        0.563        0.238       80.553       22.672        0.079      329.495       -3.733      871.691
01/06/2014  02:46:00      -43.262      -38.340        1.514       36.720       27.758       22.375     1348.331      770.532      500.621        0.298        0.131       57.806       19.661        0.116      329.500       -3.725      871.687
01/06/2014  02:47:00      -93.133      -32.718      -15.680       17.624       17.916       13.725      310.595      320.998      188.365        0.540        0.041       98.713        9.694        0.010      329.386       -3.912      871.677
01/06/2014  02:48:00      -90.380      -20.613       -6.988       13.721       14.303       10.560      188.278      204.582      111.508        0.457        0.025       92.701        6.646        0.005      329.434       -3.833      871.679
01/06/2014  02:49:00     -116.992      -23.980      -17.966       18.423       10.389       10.918      339.410      107.932      119.210        0.758        0.028      119.425        7.795        0.004      329.457       -3.795      871.687
01/06/2014  02:50:00     -143.171      -33.565      -14.347       16.087       14.766       11.239      258.805      218.032      126.311        1.122        0.030      147.053        8.891        0.004      329.434       -3.834      871.700
01/06/2014  02:51:00     -116.427      -38.747       -6.754       25.693       21.520       15.791      660.112      463.132      249.341        0.824        0.069      122.706       14.307        0.014      329.494       -3.735      871.704
01/06/2014  02:52:00      -90.328      -36.978       -9.861       24.733       14.322       13.114      611.726      205.128      171.986        0.531        0.049       97.604       12.366        0.016      329.444       -3.816      871.703
01/06/2014  02:53:00      -75.738      -32.898       -7.648        9.161       13.194        8.264       83.921      174.084       68.302        0.360        0.016       82.574        4.823        0.003      329.359       -3.957      871.716
01/06/2014  02:54:00      -84.879      -34.795      -13.640       16.346       14.382       11.134      267.184      206.842      123.960        0.460        0.030       91.734        4.895        0.003      329.445       -3.814      871.725
01/06/2014  02:55:00      -88.177      -43.790      -15.524       14.482       11.602       10.349      209.739      134.596      107.109        0.519        0.023       98.452        3.522        0.001      329.416       -3.863      871.732
01/06/2014  02:56:00      -76.026      -27.183      -10.081       18.097       21.881       15.761      327.514      478.780      248.411        0.384        0.053       80.740       13.213        0.027      329.399       -3.891      871.738
01/06/2014  02:57:00      -69.309      -28.803      -22.319       18.672       17.578       16.104      348.643      308.975      259.350        0.352        0.046       75.056       13.780        0.034      329.432       -3.837      871.740
01/06/2014  02:58:00      -65.444      -31.700      -10.116       21.930       18.290       10.139      480.938      334.506      102.790        0.315        0.046       72.717        7.018        0.009      329.468       -3.778      871.742
01/06/2014  02:59:00      -64.523      -34.739      -15.542       21.291       16.411       11.020      453.326      269.308      121.450        0.323        0.042       73.281        6.902        0.009      329.564       -3.620      871.748
01/06/2014  03:00:00      -71.110      -30.346       -7.634       22.618       18.018       14.850      511.576      324.653      220.514        0.355        0.053       77.314       14.576        0.036      329.593       -3.574      871.754
01/06/2014  03:01:00      -81.017      -36.752      -13.428       20.537       20.270       12.899      421.767      410.891      166.386        0.455        0.050       88.964        8.103        0.008      329.503       -3.720      871.749
01/06/2014  03:02:00      -54.819      -29.837       -0.342       34.548       23.283       21.810     1193.563      542.083      475.682        0.305        0.111       62.413       20.960        0.113      329.502       -3.721      871.734
01/06/2014  03:03:00      -70.563      -53.883      -11.986       35.097       27.148       16.513     1231.815      737.000      272.675        0.513        0.112       88.783        8.948        0.010      329.516       -3.697      871.730
01/06/2014  03:04:00      -79.006      -56.770       -3.360       31.000       28.143       16.420      960.971      792.053      269.602        0.575        0.101       97.287       18.003        0.034      329.409       -3.874      871.723
01/06/2014  03:05:00      -97.408      -47.598       -7.582       17.432       14.047       11.443      303.879      197.312      130.933        0.622        0.032      108.415        7.249        0.004      329.391       -3.904      871.718
01/06/2014  03:06:00      -87.188      -31.561       -8.288       10.940       11.083        6.038      119.685      122.827       36.452        0.447        0.014       92.725        2.969        0.001      329.391       -3.906      871.718
01/06/2014  03:07:00      -78.943      -42.033      -13.478       13.236       16.408       10.096      175.191      269.209      101.925        0.436        0.027       89.436        2.568        0.001      329.392       -3.904      871.713
01/06/2014  03:08:00      -77.118      -45.814      -10.816       21.819       15.437       12.655      476.072      238.309      160.146        0.452        0.044       89.700        2.925        0.001      329.382       -3.919      871.721
01/06/2014  03:09:00      -97.965      -48.906      -10.689       21.325       18.891       14.278      454.734      356.872      203.869        0.656        0.051      109.494       11.263        0.011      329.371       -3.936      871.729
01/06/2014  03:10:00     -104.846      -34.861      -11.685        7.073        8.755        5.996       50.025       76.643       35.956        0.625        0.008      110.490        2.468        0.000      329.321       -4.016      871.735
01/06/2014  03:11:00      -89.552      -28.017      -20.257       12.887       11.133        9.927      166.074      123.938       98.548        0.480        0.019       93.832        4.993        0.003      329.388       -3.910      871.735
01/06/2014  03:12:00      -77.979      -19.776      -13.330       10.623       13.924        9.011      112.839      193.890       81.200        0.352        0.019       80.448        4.665        0.003      329.424       -3.851      871.735
01/06/2014  03:13:00      -70.193      -22.466       -6.088       12.767       12.474        9.656      163.003      155.613       93.240        0.294        0.021       73.701        5.076        0.005      329.431       -3.840      871.736
01/06/2014  03:14:00      -81.929      -31.604       -7.921       16.595       16.806        9.130      275.393      282.435       83.357        0.421        0.032       87.814        6.846        0.006      329.454       -3.800      871.740
01/06/2014  03:15:00      -67.299      -24.186       -7.635       26.160       14.456       10.595      684.361      208.968      112.259        0.309        0.050       71.513       10.535        0.022      329.469       -3.776      871.755
01/06/2014  03:16:00      -57.439      -24.041      -13.434       12.501       13.110        7.544      156.284      171.878       56.909        0.222        0.019       62.267        5.225        0.007      329.428       -3.844      871.782
01/06/2014  03:17:00      -79.711      -15.409      -13.857       13.511       11.359        9.793      182.545      129.019       95.896        0.360        0.020       81.186        4.786        0.003      329.455       -3.798      871.786
01/06/2014  03:18:00      -67.010      -33.800      -15.829       13.759       12.388        9.163      189.314      153.450       83.955        0.315        0.021       75.052        3.524        0.002      329.502       -3.722      871.783
01/06/2014  03:19:00      -68.011      -31.926      -12.076       15.735       16.919       10.392      247.605      286.245      107.994        0.322        0.032       75.131        6.162        0.007      329.408       -3.876      871.784
01/06/2014  03:20:00      -73.572      -35.986       -8.515       14.624       13.265       10.564      213.859      175.951      111.588        0.364        0.025       81.901        5.593        0.005      329.347       -3.975      871.778
01/06/2014  03:21:00      -89.598      -25.175      -12.745       10.176       11.682        8.821      103.555      136.464       77.806        0.457        0.016       93.068        6.996        0.006      329.355       -3.961      871.772
01/06/2014  03:22:00      -92.711      -33.319      -14.248       13.287       16.154       11.572      176.557      260.946      133.902        0.524        0.029       98.517       10.343        0.011      329.280       -4.085      871.764
01/06/2014  03:23:00      -81.557      -32.218      -10.353       15.711       18.955       10.808      246.843      359.281      116.806        0.426        0.036       87.690        7.816        0.008      329.260       -4.116      871.753
01/06/2014  03:24:00      -70.027      -43.714      -13.569       15.217       14.815       14.397      231.546      219.473      207.264        0.383        0.033       82.551        5.477        0.004      329.306       -4.043      871.749
01/06/2014  03:25:00      -53.264      -41.609       -7.517       23.719       14.666       16.278      562.613      215.103      264.982        0.283        0.052       67.590       10.702        0.025      329.321       -4.018      871.746
01/06/2014  03:26:00      -78.070      -39.317      -10.343       19.446       21.177       16.489      378.148      448.486      271.894        0.442        0.055       87.412       12.834        0.022      329.260       -4.118      871.742
01/06/2014  03:27:00      -49.790      -21.877       -7.563       27.842       18.051       14.154      775.188      325.832      200.330        0.216        0.065       54.384       14.841        0.074      329.247       -4.138      871.733
01/06/2014  03:28:00      -74.037      -41.955      -10.213       20.921       16.195       11.414      437.704      262.280      130.288        0.409        0.042       85.098       10.361        0.015      329.203       -4.211      871.729
01/06/2014  03:29:00      -71.291      -23.880       -8.280       20.023       16.862       15.818      400.929      284.337      250.199        0.333        0.047       75.184       11.174        0.022      329.204       -4.212      871.723
01/06/2014  03:30:00      -80.276      -18.871      -11.437       20.839       14.414       10.989      434.245      207.771      120.767        0.385        0.038       82.464        8.905        0.012      329.164       -4.274      871.720
01/06/2014  03:31:00      -86.113      -21.048      -12.133       10.332       13.947       10.505      106.742      194.513      110.349        0.421        0.021       88.648        6.237        0.005      329.195       -4.226      871.712
01/06/2014  03:32:00      -89.886      -17.108       -5.838       23.436       10.991       10.369      549.245      120.797      107.521        0.459        0.039       91.499       11.928        0.017      329.219       -4.184      871.712
01/06/2014  03:33:00      -90.299      -14.169      -10.901       11.108       13.993       11.969      123.389      195.790      143.255        0.447        0.023       91.404        7.264        0.006      329.224       -4.176      871.709
01/06/2014  03:34:00      -75.204      -25.761      -14.367       10.488       12.873        7.229      109.991      165.712       52.255        0.343        0.016       79.494        5.380        0.005      329.272       -4.097      871.707
01/06/2014  03:35:00      -79.036      -31.580      -11.941       11.483        6.858        6.591      131.855       47.034       43.445        0.380        0.011       85.112        3.186        0.001      329.283       -4.081      871.706
01/06/2014  03:36:00      -89.008      -23.235       -9.101       13.405       12.736        8.957      179.703      162.198       80.221        0.448        0.021       91.990        5.325        0.003      329.301       -4.049      871.703
01/06/2014  03:37:00     -100.380      -11.229       -9.717       10.384       10.854        8.488      107.826      117.806       72.046        0.530        0.015      101.006        4.302        0.002      329.299       -4.055      871.706
01/06/2014  03:38:00      -93.795       -6.892      -11.271        8.072       11.270        7.751       65.156      127.019       60.078        0.461        0.013       94.048        5.990        0.004      329.322       -4.017      871.699
01/06/2014  03:39:00      -97.778      -11.915      -14.579        6.994        8.088        5.986       48.918       65.409       35.826        0.503        0.008       98.502        3.547        0.001      329.336       -3.995      871.679
01/06/2014  03:40:00      -88.779      -23.480      -10.910        8.501       10.992        8.172       72.270      120.830       66.784        0.441        0.013       91.831        4.023        0.002      329.316       -4.025      871.670
01/06/2014  03:41:00      -88.138      -12.014      -10.332       15.858       12.899        9.387      251.490      166.389       88.110        0.426        0.025       88.953        2.894        0.001      329.298       -4.055      871.665
01/06/2014  03:42:00     -103.533      -16.790      -14.233       14.336       13.608       10.863      205.528      185.178      117.996        0.586        0.025      104.886        8.206        0.006      329.256       -4.123      871.667
01/06/2014  03:43:00     -113.726      -24.487      -11.902       15.891       11.979       10.861      252.534      143.508      117.962        0.709        0.026      116.332        6.709        0.003      329.279       -4.086      871.673
01/06/2014  03:44:00      -96.055      -16.190       -6.708       30.026       16.038       15.320      901.544      257.206      234.700        0.546        0.070       97.410       15.352        0.025      329.238       -4.153      871.688
01/06/2014  03:45:00     -112.113      -18.513      -11.407       18.116       13.960        9.131      328.187      194.893       83.371        0.682        0.030      113.631        6.129        0.003      329.234       -4.159      871.709
01/06/2014  03:46:00      -91.749      -20.527       -9.266       18.221       11.857       11.019      332.013      140.581      121.423        0.476        0.030       94.017        9.566        0.010      329.227       -4.172      871.719
01/06/2014  03:47:00      -93.526      -23.838      -14.237       10.775       12.139        9.916      116.111      147.352       98.329        0.494        0.018       96.516        5.740        0.004      329.248       -4.138      871.715
01/06/2014  03:48:00      -79.913      -20.876       -9.559       20.676       12.468        9.889      427.481      155.446       97.788        0.380        0.034       82.595       10.855        0.017      329.266       -4.108      871.715
01/06/2014  03:49:00      -94.586      -26.763      -10.279       14.942       14.473       10.597      223.270      209.463      112.299        0.516        0.027       98.299        8.100        0.007      329.273       -4.096      871.704
01/06/2014  03:50:00      -97.361      -23.821       -8.267       19.388       13.604        9.056      375.877      185.082       82.013        0.538        0.032      100.233        6.777        0.005      329.316       -4.026      871.707
01/06/2014  03:51:00      -72.631      -27.247       -1.813       21.402       15.782       12.060      458.034      249.056      145.440        0.344        0.043       77.573        7.463        0.009      329.289       -4.072      871.718
01/06/2014  03:52:00     -101.001      -26.927       -7.796       18.280       15.464        8.872      334.142      239.138       78.711        0.582        0.033      104.529        6.976        0.004      329.313       -4.030      871.735
01/06/2014  03:53:00     -105.899      -21.364       -9.098       12.277       11.603       10.153      150.726      134.621      103.074        0.607        0.019      108.033        7.928        0.005      329.246       -4.140      871.735
01/06/2014  03:54:00     -110.304      -35.926       -8.062       12.752       14.491        9.495      162.623      209.978       90.157        0.699        0.023      116.008        4.486        0.001      329.154       -4.291      871.725
01/06/2014  03:55:00     -108.457      -50.776      -10.297       14.748       13.006       12.052      217.515      169.165      145.256        0.749        0.027      119.754        8.505        0.005      329.093       -4.391      871.716
01/06/2014  03:56:00      -97.648      -48.487      -12.811       17.666       19.929       14.596      312.076      397.146      213.054        0.649        0.046      109.023        8.803        0.007      329.102       -4.375      871.700
01/06/2014  03:57:00     -108.325      -36.369       -9.520       14.260       16.737       13.298      203.342      280.132      176.849        0.690        0.033      114.268        8.819        0.006      329.059       -4.446      871.690
01/06/2014  03:58:00     -100.709      -35.965      -15.072       14.001       13.495       14.646      196.038      182.127      214.509        0.613        0.030      106.938        9.683        0.008      329.008       -4.530      871.683
01/06/2014  03:59:00     -111.914      -43.291      -13.598        8.476       10.019        8.867       71.847      100.383       78.617        0.742        0.013      119.995        3.843        0.001      329.024       -4.503      871.689
01/06/2014  04:00:00     -105.308      -35.529      -16.015       15.276       13.029       11.212      233.368      169.763      125.699        0.657        0.026      111.140       10.041        0.008      329.076       -4.417      871.696
01/06/2014  04:01:00     -107.105      -29.938      -14.243       19.619       19.008        8.797      384.901      361.315       77.381        0.670        0.041      111.210        5.383        0.002      329.059       -4.445      871.704
01/06/2014  04:02:00      -99.126      -39.134      -14.235       10.516       12.385        9.535      110.578      153.379       90.915        0.596        0.018      106.571        2.781        0.001      329.049       -4.462      871.721
01/06/2014  04:03:00     -106.474      -32.430      -10.937        9.096        9.732        7.093       82.732       94.707       50.305        0.637        0.011      111.304        3.256        0.001      329.022       -4.505      871.739
01/06/2014  04:04:00     -100.518      -15.811      -13.604       15.230       11.636       10.912      231.964      135.400      119.067        0.551        0.024      101.754       10.731        0.011      329.036       -4.484      871.736
01/06/2014  04:05:00     -103.700      -40.307      -13.033        6.371       11.461        9.325       40.585      131.343       86.957        0.640        0.013      111.258        7.790        0.005      329.070       -4.428      871.734
01/06/2014  04:06:00     -119.655      -44.105      -13.237        7.401        9.773        8.761       54.775       95.518       76.756        0.833        0.011      127.525        4.984        0.002      329.070       -4.427      871.723
01/06/2014  04:07:00     -117.607      -18.485      -12.826       20.401       15.920       12.198      416.197      253.449      148.796        0.758        0.041      119.051       10.300        0.007      329.104       -4.373      871.708
01/06/2014  04:08:00     -100.585      -29.848      -14.195       20.407       19.498        8.697      416.450      380.179       75.642        0.604        0.044      104.920        9.309        0.008      329.041       -4.476      871.706
01/06/2014  04:09:00      -95.876      -32.715      -16.134       18.264       18.352       11.437      333.592      336.795      130.813        0.566        0.040      101.303       11.063        0.012      328.987       -4.564      871.707
01/06/2014  04:10:00     -122.659      -27.949      -14.776       24.658       14.700       11.989      608.034      216.081      143.739        0.851        0.048      125.803        9.592        0.006      328.997       -4.547      871.708
01/06/2014  04:11:00     -130.872      -22.001      -10.901       25.722       20.546       16.455      661.620      422.134      270.762        0.954        0.068      132.709       13.232        0.010      329.023       -4.504      871.692
01/06/2014  04:12:00     -100.763      -39.290      -16.164       29.155       13.846       12.021      850.002      191.722      144.499        0.657        0.059      108.152       14.193        0.017      328.941       -4.639      871.675
01/06/2014  04:13:00      -69.859      -60.813      -11.853       28.259       23.767       15.187      798.557      564.891      230.656        0.516        0.080       92.620       11.904        0.017      329.012       -4.524      871.660
01/06/2014  04:14:00      -71.822      -47.515      -12.815       32.694       17.938       18.904     1068.887      321.780      357.343        0.466        0.087       86.116       13.539        0.025      328.986       -4.567      871.636
01/06/2014  04:15:00     -102.210      -45.228       -8.231       30.698       16.398       11.064      942.357      268.889      122.409        0.695        0.067      111.769        6.708        0.004      328.983       -4.570      871.615
01/06/2014  04:16:00     -117.530      -21.238      -14.375       13.238       11.773        8.951      175.250      138.595       80.113        0.743        0.020      119.434        5.171        0.002      328.972       -4.589      871.605
01/06/2014  04:17:00     -100.705      -27.964       -6.718       24.645       11.969       13.599      607.386      143.269      184.936        0.595        0.047      104.515       11.640        0.012      329.010       -4.525      871.587
01/06/2014  04:18:00      -91.634      -38.875       -7.988       15.215       21.817       10.260      231.501      475.987      105.263        0.539        0.041       99.539        7.309        0.005      328.951       -4.622      871.582
01/06/2014  04:19:00      -87.306      -43.454      -10.431       14.061       13.334        9.691      197.715      177.791       93.909        0.504        0.023       97.522        6.500        0.004      328.945       -4.632      871.582
01/06/2014  04:20:00      -77.840      -30.062       -9.756       10.140       13.362        9.389      102.827      178.539       88.156        0.371        0.018       83.444        7.817        0.009      328.991       -4.557      871.586
01/06/2014  04:21:00      -74.886      -30.514       -7.076       15.275       16.001        9.519      233.313      256.034       90.615        0.358        0.029       80.864        5.164        0.004      329.068       -4.431      871.588
01/06/2014  04:22:00      -70.426      -34.564       -6.248       19.881       14.189       14.310      395.257      201.330      204.772        0.350        0.040       78.450       10.503        0.018      329.000       -4.542      871.588
01/06/2014  04:23:00      -72.958      -34.495      -10.363       21.486       15.894       12.665      461.631      252.623      160.392        0.375        0.044       80.702        9.224        0.013      328.995       -4.550      871.583
01/06/2014  04:24:00      -84.315      -39.527       -9.214       10.643       13.548       11.113      113.270      183.535      123.506        0.459        0.021       93.121        8.496        0.008      328.953       -4.619      871.582
01/06/2014  04:25:00      -87.726      -38.182      -14.896        9.899       16.005        8.231       97.984      256.151       67.749        0.490        0.021       95.675        7.803        0.007      328.922       -4.669      871.582
01/06/2014  04:26:00      -86.025      -27.650       -8.199       15.316       16.425       14.590      234.575      269.765      212.870        0.447        0.036       90.359       10.794        0.014      328.967       -4.596      871.578
01/06/2014  04:27:00      -92.910      -28.229      -10.414       10.306       14.188       10.377      106.207      201.311      107.684        0.498        0.021       97.104        4.476        0.002      328.986       -4.566      871.586
01/06/2014  04:28:00     -110.826      -29.241      -11.136       21.146       12.148       11.809      447.138      147.578      139.461        0.700        0.037      114.618       10.798        0.009      329.011       -4.524      871.586
01/06/2014  04:29:00     -115.983      -28.058      -14.117       14.241       11.491       13.429      202.815      132.044      180.351        0.748        0.026      119.329        9.232        0.006      328.940       -4.640      871.578
01/06/2014  04:30:00     -107.576      -45.335      -12.297       11.583       13.737       11.858      134.171      188.714      140.606        0.712        0.023      116.739        9.857        0.007      328.923       -4.667      871.567
01/06/2014  04:31:00     -108.998      -54.003      -10.398       17.324       14.558       12.230      300.114      211.927      149.578        0.778        0.033      121.642        8.312        0.005      328.911       -4.688      871.557
01/06/2014  04:32:00     -111.554      -42.070      -15.910       13.713       16.253       15.963      188.055      264.150      254.820        0.759        0.035      119.223       10.817        0.008      328.915       -4.683      871.558
01/06/2014  04:33:00     -108.404      -32.348      -11.741       12.447       15.257       10.616      154.928      232.787      112.698        0.672        0.025      113.127        6.581        0.003      328.877       -4.742      871.560
01/06/2014  04:34:00      -82.528      -24.467       -4.978       19.057       13.633       11.431      363.162      185.849      130.661        0.406        0.034       86.078        8.851        0.011      328.922       -4.670      871.557
01/06/2014  04:35:00      -84.393      -38.640       -8.265       10.503       10.396        8.846      110.305      108.067       78.247        0.449        0.015       92.818        4.685        0.003      328.916       -4.680      871.554
01/06/2014  04:36:00      -79.569      -31.795       -7.399        8.604       13.836        6.236       74.029      191.434       38.890        0.385        0.015       85.687        2.896        0.001      328.915       -4.681      871.551
01/06/2014  04:37:00      -85.045      -20.318      -11.167       12.949       15.229        9.370      167.689      231.916       87.804        0.413        0.024       87.439        5.883        0.005      328.924       -4.667      871.542
01/06/2014  04:38:00      -80.546      -20.683       -5.904       15.337       16.265       10.067      235.209      264.561      101.351        0.378        0.030       83.159        7.953        0.009      328.958       -4.612      871.538
01/06/2014  04:39:00      -87.506      -26.522      -11.598       11.104       10.997       10.126      123.309      120.942      102.538        0.442        0.017       91.437        7.408        0.007      328.962       -4.606      871.540
01/06/2014  04:40:00      -91.568      -21.343       -9.821       17.032       11.496       12.297      290.084      132.159      151.226        0.475        0.029       94.022       10.746        0.013      328.921       -4.671      871.547
01/06/2014  04:41:00      -83.066      -19.455      -10.057       17.411       13.501       10.316      303.130      182.280      106.422        0.399        0.030       85.314        8.467        0.010      328.872       -4.750      871.546
01/06/2014  04:42:00      -93.519      -14.950      -14.428        9.824       11.096        8.261       96.513      123.129       68.241        0.473        0.014       94.707        6.050        0.004      328.814       -4.846      871.543
01/06/2014  04:43:00      -86.523      -10.228       -9.750       18.825       14.530       11.325      354.378      211.135      128.265        0.419        0.035       87.125       10.216        0.014      328.785       -4.892      871.541
01/06/2014  04:44:00      -91.006      -12.221      -11.178       15.680       15.153       11.402      245.857      229.613      130.011        0.458        0.030       91.823       10.181        0.012      328.762       -4.929      871.532
01/06/2014  04:45:00      -93.781       -7.092       -7.638       16.388       13.532       11.641      268.566      183.107      135.504        0.475        0.029       94.049        8.845        0.009      328.756       -4.940      871.524
01/06/2014  04:46:00     -102.647       -3.573      -16.211       16.553       12.120        8.796      273.994      146.887       77.370        0.565        0.025      102.709        6.501        0.004      328.763       -4.928      871.512
01/06/2014  04:47:00      -87.668      -13.921       -9.507       15.475       17.187       12.916      239.466      295.387      166.821        0.434        0.035       88.766       10.366        0.014      328.753       -4.944      871.492
01/06/2014  04:48:00      -79.942      -12.349       -9.536       12.679        9.986        8.798      160.765       99.722       77.397        0.349        0.017       80.890        5.780        0.005      328.801       -4.867      871.476
01/06/2014  04:49:00      -78.271      -12.927      -11.319       12.833        8.715        7.106      164.683       75.957       50.491        0.336        0.015       79.331        5.247        0.004      328.746       -4.957      871.466
01/06/2014  04:50:00      -79.488       -7.380       -8.841        9.434       10.701        6.623       89.000      114.508       43.863        0.335        0.012       79.830        4.313        0.003      328.818       -4.840      871.463
01/06/2014  04:51:00      -66.664       -1.011       -5.404       17.379       16.337       11.388      302.024      266.899      129.693        0.259        0.035       66.672       10.560        0.025      328.828       -4.823      871.466
01/06/2014  04:52:00      -65.385      -11.738       -6.813       11.506        9.681        9.209      132.396       93.727       84.799        0.239        0.016       66.430        7.638        0.013      328.818       -4.840      871.456
01/06/2014  04:53:00      -51.622      -22.042       -9.508       11.124       11.939       12.740      123.737      142.531      162.301        0.183        0.021       56.131        9.420        0.028      328.863       -4.764      871.451
01/06/2014  04:54:00      -47.967      -33.226       -8.564        8.802        9.043       10.365       77.478       81.776      107.442        0.187        0.013       58.350        6.443        0.012      328.888       -4.726      871.447
01/06/2014  04:55:00      -54.788      -18.041      -17.576        7.523       10.575        8.542       56.591      111.825       72.966        0.194        0.012       57.682        7.151        0.015      328.846       -4.794      871.446
01/06/2014  04:56:00      -64.077      -16.149       -8.912       15.434        9.524       11.001      238.222       90.706      121.026        0.245        0.022       66.080        5.652        0.007      328.796       -4.875      871.446
01/06/2014  04:57:00      -63.641      -23.947      -13.832        8.979       14.489        7.300       80.616      209.924       53.297        0.258        0.017       67.997        3.478        0.003      328.798       -4.871      871.449
01/06/2014  04:58:00      -77.677      -23.381      -12.681       14.879       14.719        9.187      221.381      216.654       84.410        0.363        0.026       81.120        5.644        0.005      328.739       -4.968      871.449
01/06/2014  04:59:00      -78.827      -19.551       -9.210       13.002       11.171       11.879      169.050      124.796      141.109        0.356        0.022       81.215        8.432        0.011      328.771       -4.915      871.459
01/06/2014  05:00:00      -80.096      -28.608       -9.907       13.123       13.962       12.721      172.218      194.944      161.830        0.393        0.026       85.052        8.983        0.011      328.713       -5.010      871.463
01/06/2014  05:01:00      -95.522      -36.792      -10.232       17.055       15.893       12.095      290.868      252.582      146.285        0.564        0.034      102.363       11.239        0.012      328.738       -4.971      871.457
01/06/2014  05:02:00     -100.642      -51.216      -10.167       15.959       18.095        9.479      254.694      327.429       89.846        0.676        0.034      112.924        9.257        0.007      328.731       -4.982      871.453
01/06/2014  05:03:00      -85.784      -52.572       -8.789       20.135       18.734       15.436      405.415      350.967      238.284        0.560        0.050      100.611        7.820        0.006      328.751       -4.948      871.449
01/06/2014  05:04:00      -61.117      -41.128       -0.042       32.335       22.363       16.264     1045.533      500.125      264.528        0.362        0.091       73.667       12.231        0.028      328.733       -4.978      871.455
01/06/2014  05:05:00     -104.476      -64.431       -1.062       27.309       24.129       13.842      745.766      582.216      191.599        0.829        0.076      122.746        8.573        0.005      328.763       -4.929      871.461
01/06/2014  05:06:00      -67.404      -58.264        9.604       40.471       33.038       26.236     1637.866     1091.529      688.341        0.572        0.171       89.096       19.095        0.046      328.748       -4.954      871.458
01/06/2014  05:07:00     -117.814      -51.126        6.042       56.731       29.079       19.240     3218.460      845.573      370.171        1.048        0.222      128.429       24.401        0.036      328.747       -4.956      871.449
01/06/2014  05:08:00      -92.902      -52.212        1.096       38.158       34.303       23.702     1456.039     1176.662      561.791        0.728        0.160      106.569       20.791        0.038      328.744       -4.960      871.443
01/06/2014  05:09:00      -79.427      -79.654       -3.808       33.376       33.622       17.574     1113.955     1130.442      308.832        0.761        0.128      112.487       15.299        0.018      328.712       -5.012      871.433
01/06/2014  05:10:00      -91.847      -47.584        0.491       39.772       32.601       21.511     1581.789     1062.793      462.732        0.690        0.155      103.441       18.357        0.031      328.744       -4.959      871.424
01/06/2014  05:11:00      -77.154      -46.065        5.496       45.449       32.708       17.502     2065.596     1069.803      306.325        0.577        0.172       89.860       15.448        0.030      328.723       -4.994      871.415
01/06/2014  05:12:00     -105.834      -50.027       -2.408       31.158       22.045       18.566      970.811      485.998      344.695        0.776        0.090      117.062       19.335        0.027      328.717       -5.005      871.415
01/06/2014  05:13:00     -101.293      -62.349       -3.732       21.877       17.376       15.217      478.583      301.937      231.550        0.759        0.051      118.944        8.382        0.005      328.759       -4.936      871.419
01/06/2014  05:14:00      -81.902      -48.383       -8.615       28.469       19.751       15.467      810.495      390.084      239.235        0.528        0.072       95.125       15.266        0.026      328.742       -4.963      871.416
01/06/2014  05:15:00      -81.541      -37.995       -6.276       36.261       18.174       11.881     1314.870      330.278      141.170        0.496        0.089       89.959        8.962        0.010      328.797       -4.873      871.417
01/06/2014  05:16:00      -98.014      -37.197        0.029       23.201       23.253       16.931      538.288      540.704      286.663        0.618        0.068      104.835       12.139        0.013      328.761       -4.932      871.417
01/06/2014  05:17:00     -124.254      -47.835       -8.240       19.691       24.346       14.921      387.723      592.722      222.629        0.950        0.060      133.144       12.848        0.009      328.763       -4.928      871.412
01/06/2014  05:18:00     -103.124      -46.608       -5.593       29.851       25.085       14.000      891.086      629.256      196.010        0.728        0.086      113.167       14.470        0.016      328.778       -4.904      871.415
01/06/2014  05:19:00      -86.434      -22.096       -3.105       34.709       19.580       15.787     1204.686      383.371      249.230        0.490        0.092       89.213       17.957        0.041      328.761       -4.933      871.424
01/06/2014  05:20:00      -90.241      -21.207       -8.021       18.593       13.906       11.948      345.717      193.375      142.759        0.467        0.034       92.700        9.578        0.011      328.770       -4.918      871.417
01/06/2014  05:21:00      -84.413      -24.255       -5.824       15.831       13.076       10.066      250.635      170.985      101.315        0.414        0.026       87.828        9.497        0.012      328.793       -4.879      871.414
01/06/2014  05:22:00      -92.054      -20.830       -8.346        9.417       13.250        7.768       88.688      175.557       60.341        0.465        0.016       94.381        6.095        0.004      328.783       -4.898      871.417
01/06/2014  05:23:00     -102.249      -31.846      -14.507       13.970       15.635        8.751      195.157      244.462       76.580        0.610        0.026      107.094        2.638        0.001      328.846       -4.794      871.414
01/06/2014  05:24:00      -84.462      -38.583       -3.978       20.219       22.424       16.344      408.812      502.833      267.111        0.491        0.059       92.857        8.569        0.009      328.797       -4.873      871.413
01/06/2014  05:25:00      -70.306      -49.696       -2.889       30.559       20.942       13.079      933.833      438.559      171.071        0.448        0.077       86.097       12.821        0.022      328.803       -4.864      871.421
01/06/2014  05:26:00      -83.004      -61.363       -2.055       22.559       15.128       15.298      508.928      228.856      234.042        0.582        0.049      103.224       12.731        0.015      328.803       -4.863      871.420
01/06/2014  05:27:00      -91.392      -56.042       -9.041       18.690       19.714       11.607      349.316      388.646      134.728        0.622        0.044      107.206       11.641        0.012      328.769       -4.921      871.418
01/06/2014  05:28:00     -103.796      -45.575      -17.702        9.911        9.005        8.425       98.232       81.092       70.981        0.671        0.013      113.361        4.739        0.002      328.751       -4.950      871.416
01/06/2014  05:29:00      -95.683      -44.916      -12.376       12.791       14.651       10.660      163.618      214.660      113.627        0.591        0.025      105.701        8.381        0.006      328.773       -4.913      871.410
01/06/2014  05:30:00      -82.540      -34.186       -6.562       18.802       13.147        9.604      353.523      172.835       92.241        0.432        0.031       89.339        8.539        0.009      328.825       -4.827      871.407
01/06/2014  05:31:00      -74.287      -11.460       -5.237       19.904       14.254       10.217      396.156      203.167      104.395        0.319        0.035       75.166        8.861        0.014      328.793       -4.880      871.393
01/06/2014  05:32:00      -56.641      -11.927        0.242       24.004       16.312       10.997      576.197      266.093      120.944        0.216        0.048       57.883       12.849        0.049      328.804       -4.863      871.383
01/06/2014  05:33:00      -50.570      -12.181        1.064       14.671       12.007        7.270      215.249      144.158       52.859        0.156        0.021       52.017        3.166        0.004      328.850       -4.788      871.377
01/06/2014  05:34:00      -51.138       -8.193       -2.746       15.127       11.134       10.242      228.832      123.968      104.901        0.157        0.023       51.790        8.187        0.025      328.858       -4.775      871.371
01/06/2014  05:35:00      -35.346       -2.967        6.763       18.046       15.875        9.643      325.655      252.019       92.986        0.099        0.034       35.470        8.969        0.064      328.808       -4.855      871.369
01/06/2014  05:36:00      -46.002        7.234       -9.963        9.974        9.638        6.624       99.480       92.883       43.881        0.125        0.012       46.568        5.193        0.012      328.861       -4.769      871.367
01/06/2014  05:37:00       -8.955       12.133        1.713       13.078        8.902        8.782      171.041       79.252       77.117        0.028        0.016       15.079        3.534        0.055      328.796       -4.875      871.358
01/06/2014  05:38:00       25.487       26.639       10.987       16.538        9.231       12.198      273.513       85.213      148.798        0.099        0.025       36.868       11.655        0.100      328.842       -4.798      871.346
01/06/2014  05:39:00       45.826       31.844        8.100       11.216       10.875       11.568      125.788      118.263      133.818        0.178        0.019       55.803        4.567        0.007      328.849       -4.789      871.343
01/06/2014  05:40:00       24.087       19.182       -5.966        8.145       14.144        4.380       66.347      200.047       19.181        0.063        0.014       30.792        5.012        0.026      328.717       -5.002      871.340
01/06/2014  05:41:00       17.855        5.324        3.814        8.690        7.941        9.411       75.509       63.055       88.566        0.029        0.011       18.631        5.769        0.096      328.796       -4.874      871.339
01/06/2014  05:42:00       11.510      -31.493        3.675       10.844        9.956       11.079      117.586       99.130      122.749        0.074        0.017       33.530        7.486        0.050      329.001       -4.542      871.341
01/06/2014  05:43:00        7.296       -4.666        5.993        6.777       20.568       10.934       45.924      423.028      119.557        0.035        0.029        8.661       12.637        2.129      328.854       -4.781      871.344
01/06/2014  05:44:00       -7.075        7.600       18.469       11.577        9.656        8.860      134.016       93.236       78.494        0.038        0.015       10.384        8.120        0.612      328.784       -4.894      871.344
01/06/2014  05:45:00      -16.613        2.434        8.020       10.698        9.106        8.419      114.443       82.912       70.887        0.031        0.013       16.790        7.454        0.197      328.803       -4.865      871.351
01/06/2014  05:46:00      -10.687       -5.920        4.929        7.032        6.961        6.895       49.450       48.457       47.537        0.016        0.007       12.217        5.720        0.219      328.773       -4.913      871.357
01/06/2014  05:47:00      -14.185       -7.548        1.321       14.294        7.631        7.839      204.312       58.225       61.443        0.029        0.016       16.068        5.734        0.127      328.778       -4.905      871.364
01/06/2014  05:48:00      -35.805      -13.852       -6.331       13.407        7.529        6.287      179.761       56.684       39.528        0.089        0.014       38.391        5.816        0.023      328.717       -5.005      871.384
01/06/2014  05:49:00      -37.910      -11.028       -3.808        7.807       13.501        7.266       60.951      182.273       52.789        0.093        0.015       39.482        4.189        0.011      328.687       -5.053      871.405
01/06/2014  05:50:00      -52.868      -29.510       -7.552       12.554       10.147       10.092      157.594      102.966      101.844        0.204        0.018       60.546        5.564        0.008      328.726       -4.991      871.424
01/06/2014  05:51:00      -67.995      -25.139       -8.272       15.442       12.544       11.703      238.451      157.363      136.958        0.293        0.027       72.493        2.945        0.002      328.682       -5.063      871.425
01/06/2014  05:52:00      -59.059      -38.108        0.115       36.288       21.207       13.856     1316.849      449.758      191.978        0.345        0.098       70.286       16.341        0.054      328.678       -5.068      871.431
01/06/2014  05:53:00      -46.425      -32.209        4.098       29.389       22.697       13.236      863.710      515.133      175.198        0.238        0.078       56.504       11.635        0.042      328.694       -5.043      871.434
01/06/2014  05:54:00      -64.496      -25.453        4.134       26.054       19.545       12.272      678.824      382.026      150.608        0.302        0.061       69.337       13.839        0.040      328.635       -5.138      871.436
01/06/2014  05:55:00      -58.444      -14.592        2.411       25.917       18.860       13.735      671.666      355.681      188.646        0.242        0.061       60.238       14.287        0.056      328.618       -5.165      871.441
01/06/2014  05:56:00      -64.065       -7.547        2.443       31.003       23.541       12.671      961.207      554.165      160.543        0.292        0.084       64.508       13.726        0.045      328.521       -5.324      871.445
01/06/2014  05:57:00      -58.946      -18.826        1.079       26.827       20.854       11.629      719.682      434.897      135.237        0.256        0.064       61.879       12.268        0.039      328.537       -5.299      871.445
01/06/2014  05:58:00      -59.723      -26.205        0.170       27.203       20.122       12.861      739.984      404.906      165.393        0.278        0.066       65.219       12.855        0.039      328.580       -5.228      871.444
01/06/2014  05:59:00      -72.653       -9.879       -1.570       26.282       20.088       16.743      690.766      403.542      280.322        0.338        0.069       73.321       16.207        0.049      328.462       -5.420      871.439
01/06/2014  06:00:00      -47.695      -12.422        9.975       32.414       19.856       14.657     1050.637      394.264      214.821        0.209        0.083       49.286       14.972        0.092      328.395       -5.529      871.438
01/06/2014  06:01:00      -90.891      -16.767        1.068       28.962       19.756       17.224      838.769      390.283      296.671        0.503        0.076       92.424       16.125        0.030      328.406       -5.511      871.432
01/06/2014  06:02:00      -82.086      -16.902        0.573       24.024       19.360       16.700      577.149      374.827      278.891        0.413        0.062       83.808       13.194        0.025      328.461       -5.422      871.435
01/06/2014  06:03:00      -91.978      -14.469       -1.378       21.663       16.367       14.192      469.293      267.883      201.422        0.480        0.047       93.109       13.560        0.021      328.494       -5.368      871.440
01/06/2014  06:04:00      -90.126      -21.196       -3.373       28.623       20.791       14.979      819.263      432.280      224.381        0.503        0.074       92.585       15.306        0.027      328.490       -5.374      871.449
01/06/2014  06:05:00      -77.177      -19.179        0.579       20.047       17.007       13.655      401.896      289.251      186.452        0.360        0.044       79.524       12.049        0.023      328.522       -5.323      871.439
01/06/2014  06:06:00      -82.995      -35.846       -1.114       23.944       17.574       14.601      573.329      308.832      213.185        0.463        0.055       90.405       14.405        0.025      328.581       -5.226      871.427
01/06/2014  06:07:00      -79.497      -19.283        2.019       26.062       22.938       12.685      679.207      526.132      160.901        0.403        0.068       81.802       13.098        0.026      328.522       -5.322      871.415
01/06/2014  06:08:00     -101.845       -4.577      -13.106        9.421        8.611        7.901       88.749       74.143       62.434        0.540        0.011      101.948        6.184        0.004      328.523       -5.320      871.411
01/06/2014  06:09:00      -89.939       -6.096      -13.335       10.817       10.038        9.358      117.018      100.763       87.575        0.430        0.015       90.145        4.697        0.003      328.438       -5.461      871.409
01/06/2014  06:10:00      -72.380        0.161       -2.972       30.562       22.524       15.403      934.006      507.310      237.262        0.346        0.084       72.381       14.846        0.042      328.412       -5.503      871.410
01/06/2014  06:11:00      -78.813      -26.608       -6.735       24.108       20.982       16.073      581.180      440.230      258.330        0.412        0.064       83.184       13.574        0.027      328.307       -5.673      871.415
01/06/2014  06:12:00      -82.323      -25.267      -11.910       12.349       14.459        9.494      152.489      209.076       90.142        0.400        0.023       86.113        4.822        0.003      328.263       -5.743      871.410
01/06/2014  06:13:00      -62.334      -12.641       -7.623       25.681       14.001        9.809      659.531      196.041       96.213        0.253        0.048       63.603       11.855        0.035      328.273       -5.728      871.402
01/06/2014  06:14:00      -68.696      -18.051      -10.514       12.467       14.935       11.861      155.428      223.063      140.673        0.284        0.026       71.029        9.574        0.018      328.271       -5.732      871.406
01/06/2014  06:15:00      -27.726       -2.271        8.680       17.907       17.361       14.115      320.658      301.410      199.226        0.084        0.041       27.819       10.176        0.134      328.323       -5.646      871.406
01/06/2014  06:16:00      -34.658       -9.991       -7.484       16.440       14.024       10.015      270.264      196.662      100.307        0.096        0.028       36.069        9.711        0.072      328.385       -5.545      871.401
01/06/2014  06:17:00      -38.244      -15.406       -6.893        6.718        7.575        5.489       45.133       57.380       30.131        0.094        0.007       41.230        4.579        0.012      328.487       -5.380      871.388
01/06/2014  06:18:00      -51.568       -7.912      -10.416        9.768        6.410        6.815       95.423       41.089       46.441        0.151        0.009       52.172        3.837        0.005      328.519       -5.327      871.380
01/06/2014  06:19:00      -38.025      -12.504       -6.559        7.073        6.133        4.679       50.022       37.608       21.890        0.088        0.005       40.028        1.638        0.002      328.555       -5.268      871.368
01/06/2014  06:20:00        4.549        4.136       -5.135       18.020       17.061        8.245      324.714      291.069       67.979        0.037        0.034        6.148        8.667        1.988      328.744       -4.961      871.361
01/06/2014  06:21:00       30.837       19.326       -4.231        8.271        8.196        8.812       68.417       67.175       77.645        0.078        0.011       36.392        4.964        0.019      328.864       -4.764      871.351
01/06/2014  06:22:00       28.877       20.863        0.638        7.271        8.184        7.466       52.866       66.982       55.739        0.072        0.009       35.625        5.121        0.021      328.829       -4.821      871.346
01/06/2014  06:23:00       23.841       16.496       -0.134        8.638        8.086        8.160       74.611       65.389       66.588        0.052        0.010       28.991        6.527        0.051      328.814       -4.844      871.355
01/06/2014  06:24:00       14.296        4.909       -3.971        4.018        4.892        2.951       16.145       23.928        8.708        0.015        0.002       15.116        1.066        0.005      328.865       -4.763      871.368
01/06/2014  06:25:00        2.780        9.822        2.276        4.948        6.055        7.215       24.481       36.660       52.053        0.011        0.006       10.208        2.913        0.081      328.928       -4.661      871.380
01/06/2014  06:26:00      -15.760        3.530        4.595       12.332        4.858        6.484      152.081       23.604       42.042        0.025        0.011       16.151        5.586        0.120      328.721       -4.999      871.386
01/06/2014  06:27:00      -25.636       -4.610       -3.499        7.240       10.267        5.564       52.422      105.402       30.963        0.044        0.009       26.047        2.989        0.013      328.673       -5.077      871.397
01/06/2014  06:28:00      -17.413       -6.722       -6.019        8.046        6.106        4.620       64.740       37.280       21.340        0.025        0.006       18.666        2.378        0.016      328.636       -5.135      871.398
01/06/2014  06:29:00      -20.565      -11.400       -3.691        4.756        5.520        3.797       22.624       30.473       14.417        0.032        0.003       23.513        1.845        0.006      328.627       -5.151      871.398
01/06/2014  06:30:00      -11.741       -2.188        4.787       10.057        4.129        6.434      101.147       17.048       41.393        0.016        0.008       11.943        3.963        0.110      328.701       -5.030      871.387
01/06/2014  06:31:00       -6.306        4.719        9.141       11.563        6.501        9.979      133.692       42.268       99.585        0.021        0.014        7.876        9.448        1.439      328.810       -4.852      871.389
01/06/2014  06:32:00      -28.686       -1.500       -0.392       10.312        9.373        8.748      106.347       87.861       76.525        0.055        0.014       28.725        7.522        0.069      328.711       -5.015      871.389
01/06/2014  06:33:00      -31.120       -9.694        3.048        8.704        7.278        6.281       75.760       52.963       39.455        0.062        0.008       32.595        5.083        0.024      328.624       -5.154      871.392
01/06/2014  06:34:00      -37.360       -4.156        2.046       11.054        7.406        4.578      122.192       54.855       20.956        0.081        0.010       37.590        4.495        0.014      328.665       -5.089      871.395
01/06/2014  06:35:00      -38.252        9.006        4.072        7.594        7.784        7.686       57.669       60.593       59.079        0.087        0.009       39.298        4.721        0.014      328.781       -4.899      871.401
01/06/2014  06:36:00      -63.546      -11.181       -3.234        9.373        8.370        5.200       87.854       70.062       27.044        0.218        0.009       64.522        2.096        0.001      328.516       -5.333      871.399
01/06/2014  06:37:00      -82.176      -17.089      -11.221       21.200        9.685       10.167      449.436       93.805      103.366        0.391        0.032       83.934       10.639        0.016      328.455       -5.433      871.398
01/06/2014  06:38:00     -117.086       -8.610      -15.241       19.348        9.793       12.841      374.330       95.897      164.886        0.733        0.032      117.402       11.865        0.010      328.294       -5.695      871.398
01/06/2014  06:39:00     -123.013      -16.917      -13.556       28.221       24.257       15.639      796.417      588.395      244.564        0.862        0.081      124.171       13.612        0.012      328.212       -5.827      871.402
01/06/2014  06:40:00     -145.358       -6.399      -15.109       19.761       15.688       13.932      390.478      246.122      194.090        1.111        0.042      145.499        9.923        0.005      328.253       -5.762      871.405
01/06/2014  06:41:00      -92.932      -17.083       -8.534       20.080       13.720       15.438      403.202      188.233      238.326        0.492        0.041       94.489       12.778        0.018      328.248       -5.769      871.419
01/06/2014  06:42:00      -63.857      -22.633        0.615       27.043       15.517       13.698      731.313      240.774      187.642        0.287        0.058       67.749       12.369        0.033      328.337       -5.624      871.431
01/06/2014  06:43:00      -90.441      -41.624       -0.723       23.293       19.115       12.645      542.584      365.389      159.898        0.549        0.053       99.560        9.775        0.010      328.436       -5.463      871.436
01/06/2014  06:44:00     -116.267      -44.318      -13.593       19.667       15.046       12.433      386.785      226.391      154.590        0.822        0.038      124.427        8.615        0.005      328.397       -5.527      871.434
01/06/2014  06:45:00      -93.056      -26.188       -7.175       22.592       16.957        9.223      510.384      287.544       85.061        0.514        0.044       96.670        8.487        0.008      328.451       -5.438      871.434
01/06/2014  06:46:00     -107.013      -14.772      -11.254       14.753       15.283       10.243      217.647      233.569      104.925        0.618        0.028      108.028        5.498        0.003      328.356       -5.594      871.432
01/06/2014  06:47:00     -103.604      -19.504      -10.461       20.149       13.029       10.797      405.973      169.765      116.584        0.596        0.035      105.424       11.392        0.012      328.373       -5.564      871.431
01/06/2014  06:48:00      -94.300      -34.738      -10.685       12.784       19.864       10.395      163.428      394.583      108.049        0.544        0.033      100.495        6.926        0.005      328.423       -5.484      871.433
01/06/2014  06:49:00     -100.400      -24.123       -5.382       23.383       21.828       13.863      546.770      476.468      192.186        0.595        0.061      103.258       13.529        0.017      328.419       -5.489      871.429
01/06/2014  06:50:00     -102.942      -39.643       -8.155       17.845       26.365       13.195      318.438      695.119      174.102        0.671        0.059      110.312        9.861        0.008      328.429       -5.473      871.438
01/06/2014  06:51:00     -115.845      -42.194       -6.774       14.262       22.307       11.493      203.395      497.611      132.082        0.804        0.042      123.290        8.056        0.004      328.414       -5.499      871.455
01/06/2014  06:52:00     -102.110      -55.486       -7.309       30.851       20.876       15.776      951.792      435.789      248.875        0.760        0.082      116.212       12.946        0.012      328.329       -5.636      871.467
01/06/2014  06:53:00     -106.107      -52.174       -4.764       22.506       24.279       14.316      506.506      589.460      204.951        0.765        0.065      118.241       12.037        0.010      328.313       -5.663      871.474
01/06/2014  06:54:00      -95.948      -41.668      -14.792       15.968       13.888       13.358      254.980      192.864      178.446        0.589        0.031      104.605        5.966        0.003      328.309       -5.668      871.477
01/06/2014  06:55:00      -54.832      -29.759       -3.738       26.763       18.485       15.163      716.276      341.682      229.929        0.260        0.064       62.387       11.017        0.031      328.326       -5.641      871.483
01/06/2014  06:56:00      -34.499      -32.505       -1.814       28.000       14.493       14.800      783.990      210.041      219.047        0.173        0.061       47.401       16.225        0.117      328.400       -5.522      871.486
01/06/2014  06:57:00      -40.865      -20.651       -4.949       13.391        9.646        8.226      179.312       93.047       67.668        0.123        0.017       45.786        6.769        0.022      328.426       -5.479      871.490
01/06/2014  06:58:00      -41.955      -35.243       -8.661       12.889       11.129        9.521      166.118      123.849       90.659        0.173        0.019       54.793        7.468        0.019      328.558       -5.264      871.489
01/06/2014  06:59:00      -52.308      -35.289        1.582       19.989       15.941       10.582      399.570      254.115      111.984        0.237        0.038       63.098        9.915        0.025      328.515       -5.335      871.496
01/06/2014  07:00:00      -50.809      -32.006       -1.803       21.592       13.121       11.260      466.234      172.154      126.797        0.219        0.038       60.049        7.319        0.015      328.505       -5.349      871.495
01/06/2014  07:01:00      -46.166      -29.718       -4.450       21.082       14.024       12.756      444.437      196.668      162.711        0.192        0.040       54.904        7.384        0.018      328.474       -5.400      871.499
01/06/2014  07:02:00      -40.264      -23.123       -0.052       12.918        9.063       10.755      166.881       82.134      115.676        0.126        0.018       46.431        8.343        0.032      328.480       -5.391      871.502
01/06/2014  07:03:00      -37.817       -9.267       -1.608        6.693        7.445        6.630       44.795       55.422       43.950        0.083        0.007       38.936        4.580        0.014      328.557       -5.264      871.509
01/06/2014  07:04:00        6.034        6.672      -12.612       15.996       12.402        7.204      255.878      153.816       51.902        0.035        0.023        8.996        7.932        0.777      328.629       -5.148      871.528
01/06/2014  07:05:00       28.594       19.015        7.699        9.925        8.210       12.308       98.510       67.409      151.492        0.078        0.016       34.340        7.800        0.052      328.653       -5.110      871.536
01/06/2014  07:06:00       21.753       29.317        2.710        7.146        8.760        9.272       51.071       76.734       85.976        0.078        0.011       36.506        5.165        0.020      328.622       -5.158      871.543
01/06/2014  07:07:00       24.485       32.540       -8.217        7.326        6.838        5.122       53.663       46.751       26.239        0.093        0.006       40.723        3.404        0.007      328.607       -5.183      871.555
01/06/2014  07:08:00        4.874        3.903        1.810       11.904        7.745        8.978      141.697       59.982       80.603        0.016        0.014        6.245        7.157        1.314      328.556       -5.266      871.568
01/06/2014  07:09:00        3.068       15.298        1.654        5.432        8.619        7.229       29.502       74.287       52.263        0.020        0.008       15.603        4.002        0.066      328.551       -5.274      871.576
01/06/2014  07:10:00        6.457       26.676        2.877        5.889        5.607        5.479       34.680       31.434       30.018        0.043        0.005       27.446        2.406        0.008      328.511       -5.337      871.571
01/06/2014  07:11:00       -7.354       40.083       -5.957       21.835       15.454        6.510      476.760      238.834       42.384        0.123        0.038       40.752        6.289        0.024      328.569       -5.245      871.573
01/06/2014  07:12:00      -41.202       22.855       -4.977       14.251       11.530       10.396      203.087      132.931      108.081        0.134        0.022       47.116        3.147        0.004      328.549       -5.278      871.573
01/06/2014  07:13:00      -38.284       28.698       -4.707       17.434       12.427        7.318      303.949      154.423       53.550        0.141        0.026       47.846        8.043        0.028      328.642       -5.126      871.570
01/06/2014  07:14:00      -34.343       14.381       -5.928       12.751       10.120        9.175      162.576      102.420       84.183        0.089        0.017       37.233        3.056        0.007      328.616       -5.169      871.578
01/06/2014  07:15:00      -22.741       14.051       -2.491       10.815       10.111        6.323      116.968      102.224       39.982        0.049        0.013       26.732        6.029        0.051      328.784       -4.895      871.583
01/06/2014  07:16:00      -43.657       -7.694       -9.588       10.056        6.610        6.696      101.120       43.689       44.836        0.112        0.009       44.330        5.387        0.015      328.614       -5.173      871.597
01/06/2014  07:17:00      -47.908      -16.149       -9.345       10.252       15.799        7.885      105.106      249.597       62.166        0.153        0.021       50.557        5.079        0.010      328.558       -5.263      871.604
01/06/2014  07:18:00      -54.359      -10.237       -6.641        9.348       10.096        4.797       87.388      101.934       23.014        0.166        0.011       55.315        2.359        0.002      328.413       -5.499      871.600
01/06/2014  07:19:00      -42.566       -5.407       -5.871       10.465        6.602        4.849      109.519       43.585       23.514        0.103        0.009       42.908        4.041        0.009      328.470       -5.408      871.594
01/06/2014  07:20:00      -45.507       -6.180       -8.173        7.468        6.112        4.971       55.773       37.358       24.710        0.115        0.006       45.925        2.304        0.003      328.555       -5.269      871.595
01/06/2014  07:21:00      -46.888       -7.721       -6.407        7.236        5.775        5.918       52.366       33.350       35.019        0.121        0.006       47.519        2.545        0.003      328.540       -5.293      871.603
01/06/2014  07:22:00      -60.125       -3.581       -9.653       10.585        6.712        5.600      112.051       45.048       31.358        0.195        0.009       60.231        3.058        0.003      328.512       -5.339      871.612
01/06/2014  07:23:00      -81.548       -6.929       -9.937       17.676       10.863        9.372      312.427      117.994       87.834        0.366        0.026       81.842        5.409        0.004      328.512       -5.339      871.617
01/06/2014  07:24:00     -117.581       -4.129      -12.049        8.715       11.375        7.714       75.957      129.383       59.504        0.713        0.013      117.653        3.843        0.001      328.465       -5.417      871.611
01/06/2014  07:25:00     -122.413        2.737      -14.750        9.358        8.157        6.978       87.572       66.530       48.699        0.771        0.010      122.444        2.711        0.000      328.372       -5.567      871.602
01/06/2014  07:26:00     -105.347       -0.544      -13.468       15.214        9.090       10.833      231.465       82.636      117.363        0.586        0.022      105.348        5.434        0.003      328.379       -5.555      871.592
01/06/2014  07:27:00     -113.151        2.469      -13.796        8.502        6.134        6.568       72.280       37.631       43.132        0.658        0.008      113.178        1.696        0.000      328.466       -5.414      871.590
01/06/2014  07:28:00      -95.384        0.261      -12.453       16.719       12.571       12.902      279.509      158.026      166.463        0.493        0.030       95.384       10.843        0.013      328.550       -5.275      871.579
01/06/2014  07:29:00      -91.029        0.587       -8.702       24.567       18.030       15.365      603.544      325.066      236.070        0.476        0.058       91.031       15.247        0.028      328.533       -5.304      871.561
01/06/2014  07:30:00      -97.159        1.672      -10.424       24.203       15.370       11.443      585.773      236.244      130.933        0.525        0.048       97.174       11.640        0.014      328.542       -5.288      871.547
01/06/2014  07:31:00      -96.302       -5.921      -11.165       11.064       10.597        7.845      122.403      112.287       61.544        0.486        0.015       96.483        3.827        0.002      328.523       -5.322      871.526
01/06/2014  07:32:00      -40.581       -8.409        2.364       19.295       12.366       12.000      372.303      152.921      144.012        0.120        0.033       41.443        8.605        0.043      328.516       -5.332      871.495
01/06/2014  07:33:00      -55.863       -5.889       -9.063       17.462       16.240       11.463      304.912      263.736      131.412        0.197        0.035       56.173       10.033        0.032      328.503       -5.352      871.465
01/06/2014  07:34:00      -80.098        1.346      -10.934       16.184       18.376       12.613      261.913      337.664      159.088        0.365        0.038       80.109       10.992        0.019      328.498       -5.362      871.444
01/06/2014  07:35:00      -75.535      -19.884      -13.274       10.203       11.581        8.861      104.108      134.110       78.526        0.330        0.016       78.109        4.335        0.003      328.477       -5.396      871.434
01/06/2014  07:36:00      -81.648      -21.976      -13.188       14.927       14.380       12.851      222.804      206.795      165.142        0.396        0.030       84.554        5.812        0.005      328.449       -5.441      871.442
01/06/2014  07:37:00     -103.781      -21.077      -12.404       23.336       18.604       10.900      544.579      346.117      118.809        0.619        0.050      105.900        8.535        0.006      328.407       -5.509      871.454
01/06/2014  07:38:00      -98.237      -10.464       -8.537       20.872       17.956       14.741      435.632      322.403      217.283        0.540        0.049       98.793        7.318        0.005      328.371       -5.568      871.473
01/06/2014  07:39:00      -94.314      -12.250      -12.571       10.863       13.547       11.165      118.002      183.516      124.656        0.481        0.021       95.106        6.783        0.005      328.436       -5.462      871.490
01/06/2014  07:40:00      -82.461      -23.339       -4.503       14.228       24.069       15.421      202.448      579.302      237.801        0.419        0.051       85.701        7.155        0.007      328.506       -5.349      871.505
01/06/2014  07:41:00      -88.679      -43.230       -6.426       19.676       18.763       14.379      387.163      352.055      206.757        0.536        0.047       98.655       10.349        0.011      328.607       -5.183      871.515
01/06/2014  07:42:00      -88.858      -37.445       -7.839       22.079       17.121       11.862      487.487      293.118      140.699        0.514        0.046       96.426        8.395        0.008      328.661       -5.095      871.520
01/06/2014  07:43:00      -90.809      -36.026       -8.135       16.787       16.908       10.415      281.814      285.875      108.473        0.514        0.034       97.694        7.182        0.005      328.720       -5.000      871.526
01/06/2014  07:44:00      -81.556      -19.332       -2.552       19.060       15.810       10.285      363.275      249.964      105.791        0.388        0.036       83.816        9.040        0.012      328.747       -4.955      871.535
01/06/2014  07:45:00      -65.009      -26.583        0.014       24.851       15.412       11.109      617.587      237.540      123.416        0.296        0.049       70.234       11.445        0.027      328.800       -4.867      871.539
01/06/2014  07:46:00      -83.221      -27.806       -6.946       11.082       11.305        6.716      122.801      127.797       45.099        0.402        0.015       87.743        6.047        0.005      328.840       -4.803      871.539
01/06/2014  07:47:00      -75.647      -29.973       -2.999       11.572       13.860        9.909      133.909      192.096       98.193        0.353        0.021       81.369        6.520        0.006      328.894       -4.714      871.541
01/06/2014  07:48:00      -66.000      -26.426       -6.723       11.709       14.732        9.091      137.097      217.025       82.655        0.277        0.022       71.094        5.434        0.006      328.897       -4.711      871.539
01/06/2014  07:49:00      -64.186      -30.886       -7.071        7.616        8.912        6.768       58.010       79.420       45.801        0.265        0.009       71.231        3.896        0.003      328.919       -4.675      871.537
01/06/2014  07:50:00      -45.495      -31.737       -1.228       16.294       20.501       14.575      265.507      420.286      212.435        0.199        0.045       55.471       15.046        0.074      328.953       -4.619      871.539
01/06/2014  07:51:00       -6.553       -4.126       11.245       19.408       11.507       10.273      376.676      132.410      105.537        0.040        0.031        7.744        9.808        1.604      329.090       -4.396      871.545
01/06/2014  07:52:00      -62.864      -22.554        0.504       14.855       11.916        7.337      220.685      141.989       53.832        0.244        0.021       66.788        5.145        0.006      328.990       -4.560      871.528
01/06/2014  07:53:00      -54.400      -19.020       -3.625       12.248       16.062       10.042      150.001      257.990      100.832        0.192        0.025       57.629        6.777        0.014      329.010       -4.526      871.508
01/06/2014  07:54:00      -63.675      -23.911       -3.299       11.066       12.228        7.450      122.458      149.521       55.508        0.248        0.016       68.016        4.201        0.004      329.012       -4.523      871.497
01/06/2014  07:55:00      -47.621      -29.470        1.128       17.095       15.723       17.777      292.255      247.205      316.016        0.200        0.043       56.002        7.783        0.019      328.990       -4.558      871.475
01/06/2014  07:56:00      -25.559      -23.318        5.082       22.686       13.633       12.074      514.641      185.853      145.786        0.103        0.042       34.597       12.714        0.135      329.088       -4.397      871.473
01/06/2014  07:57:00      -56.950      -27.688       -7.962       19.168       13.456       10.835      367.431      181.064      117.389        0.237        0.033       63.324        3.708        0.003      329.044       -4.470      871.467
01/06/2014  07:58:00      -64.945      -26.176       -6.302       23.974       11.781        8.431      574.742      138.795       71.087        0.286        0.039       70.021        5.641        0.006      329.055       -4.452      871.472
01/06/2014  07:59:00      -57.686      -29.596       -1.342       19.949       12.914       11.554      397.961      166.759      133.501        0.245        0.035       64.836       12.141        0.035      329.010       -4.526      871.474
01/06/2014  08:00:00      -50.575      -29.867       -2.860       10.376       11.374        6.856      107.658      129.358       47.009        0.187        0.014       58.735        3.605        0.004      329.080       -4.411      871.493
01/06/2014  08:01:00      -38.862      -21.908       -3.297        6.900        9.012        8.296       47.608       81.209       68.831        0.110        0.010       44.612        4.040        0.008      329.160       -4.281      871.502
01/06/2014  08:02:00      -20.806      -14.246       -3.212        8.902        7.700        7.033       79.253       59.287       49.463        0.042        0.009       25.216        1.791        0.005      329.186       -4.240      871.513
01/06/2014  08:03:00      -23.023       -4.419        0.992       13.061        7.682        6.335      170.597       59.016       40.126        0.041        0.013       23.443        4.550        0.038      329.257       -4.124      871.525
01/06/2014  08:04:00      -27.249        2.805       -2.597        8.328       10.392        8.137       69.352      108.002       66.210        0.050        0.012       27.393        5.894        0.046      329.242       -4.146      871.519
01/06/2014  08:05:00      -24.295       11.373       -2.370        6.023        8.946        4.563       36.274       80.031       20.823        0.043        0.007       26.825        3.423        0.016      329.281       -4.081      871.521
01/06/2014  08:06:00      -33.190       19.784       -4.605        6.150        7.028        5.816       37.827       49.399       33.832        0.082        0.006       38.639        2.602        0.005      329.228       -4.169      871.516
01/06/2014  08:07:00      -38.465       15.393        0.958        6.203        5.753        6.534       38.481       33.100       42.698        0.092        0.006       41.431        2.967        0.005      329.259       -4.118      871.508
01/06/2014  08:08:00      -45.870       15.314       -0.398        8.888        7.022        5.629       78.997       49.313       31.685        0.125        0.008       48.359        3.742        0.006      329.262       -4.113      871.511
01/06/2014  08:09:00      -47.258        6.931       -0.763        7.916        7.052        7.023       62.659       49.733       49.317        0.122        0.008       47.763        2.840        0.004      329.309       -4.037      871.509
01/06/2014  08:10:00      -32.070        7.032        3.155        7.770        9.304        6.284       60.376       86.571       39.485        0.064        0.009       32.832        3.952        0.014      329.345       -3.979      871.504
01/06/2014  08:11:00      -29.415        0.801        0.609        6.345        6.196        4.460       40.260       38.396       19.889        0.048        0.005       29.426        2.184        0.006      329.362       -3.952      871.520
01/06/2014  08:12:00      -39.580        5.348        0.029        6.179        6.670        6.392       38.175       44.484       40.859        0.086        0.006       39.939        2.747        0.005      329.356       -3.962      871.532
01/06/2014  08:13:00      -46.720        5.450       -4.753       12.317        9.827        6.623      151.713       96.571       43.858        0.126        0.015       47.037        2.601        0.003      329.361       -3.953      871.543
01/06/2014  08:14:00      -53.662        9.758       -3.026       11.034       10.777        9.367      121.751      116.144       87.733        0.165        0.016       54.542        5.811        0.011      329.347       -3.976      871.541
01/06/2014  08:15:00      -48.224       -5.514       -2.395       15.824       12.459       11.365      250.406      155.220      129.163        0.145        0.027       48.538        9.827        0.041      329.413       -3.869      871.530
01/06/2014  08:16:00      -44.921       -2.427       -0.166       15.148        9.497        8.172      229.463       90.190       66.787        0.121        0.019       44.986        6.397        0.020      329.428       -3.843      871.524
01/06/2014  08:17:00      -41.294      -10.564        1.818       17.858       13.624        9.967      318.896      185.624       99.344        0.121        0.030       42.623        8.234        0.037      329.481       -3.755      871.519
01/06/2014  08:18:00      -62.506        4.149       -1.777       18.133       12.819        9.144      328.794      164.332       83.619        0.225        0.029       62.644        7.421        0.014      329.465       -3.780      871.508
01/06/2014  08:19:00      -65.083        5.811       -6.698       13.188       12.945        8.999      173.932      167.579       80.986        0.237        0.021       65.342        5.441        0.007      329.462       -3.787      871.511
01/06/2014  08:20:00      -77.027        8.609       -6.230       19.291       11.520        9.859      372.138      132.718       97.210        0.332        0.030       77.506        8.555        0.012      329.470       -3.773      871.531
01/06/2014  08:21:00      -88.657        8.414       -6.983       16.129       16.058       11.849      260.148      257.872      140.389        0.432        0.033       89.056        9.486        0.011      329.444       -3.818      871.551
01/06/2014  08:22:00      -81.617       15.448       -2.994       29.471       19.666       13.584      868.553      386.750      184.520        0.417        0.072       83.067       11.605        0.020      329.450       -3.806      871.564
01/06/2014  08:23:00      -86.712       16.992       -6.416       18.809       19.736       11.489      353.774      389.492      132.001        0.436        0.044       88.361        6.448        0.005      329.454       -3.801      871.579
01/06/2014  08:24:00      -85.049        2.403       -9.957       22.278       22.179       15.676      496.328      491.925      245.734        0.429        0.062       85.083       12.495        0.022      329.535       -3.668      871.593
01/06/2014  08:25:00      -69.136      -21.392       -4.775       28.588       18.016       13.075      817.258      324.585      170.953        0.329        0.066       72.370       12.595        0.030      329.553       -3.638      871.601
01/06/2014  08:26:00      -82.420      -33.003       -0.513       18.299       19.745       15.045      334.856      389.865      226.359        0.442        0.048       88.782        9.187        0.011      329.545       -3.653      871.608
01/06/2014  08:27:00      -80.841      -13.570      -11.270       21.159       13.720       10.518      447.703      188.243      110.619        0.380        0.037       81.972        9.084        0.012      329.517       -3.699      871.618
01/06/2014  08:28:00      -72.191       -2.551       -5.447       12.493       10.879       11.215      156.067      118.358      125.766        0.282        0.020       72.236        9.413        0.017      329.542       -3.655      871.628
01/06/2014  08:29:00      -47.464       19.314       -9.212       12.793       12.351        9.253      163.664      152.541       85.610        0.156        0.020       51.243        7.184        0.020      329.545       -3.650      871.633
01/06/2014  08:30:00      -36.388       10.254       -1.312       11.445        9.042        3.910      130.979       81.762       15.289        0.083        0.011       37.806        4.285        0.013      329.581       -3.592      871.631
01/06/2014  08:31:00      -15.943        7.634        0.662        5.560        5.958        7.489       30.909       35.495       56.086        0.022        0.006       17.676        4.982        0.079      329.653       -3.476      871.643
01/06/2014  08:32:00      -23.740       13.530        0.203        9.193       11.061        7.238       84.503      122.340       52.386        0.050        0.013       27.325        5.623        0.042      329.657       -3.468      871.661
01/06/2014  08:33:00      -24.123        5.763       -0.477        7.011        7.020        5.865       49.150       49.275       34.399        0.037        0.007       24.802        3.528        0.020      329.664       -3.459      871.679
01/06/2014  08:34:00      -22.451       19.441        0.397        8.844        8.101        9.261       78.223       65.625       85.768        0.056        0.011       29.698        6.909        0.054      329.729       -3.352      871.673
01/06/2014  08:35:00      -12.579        4.909        6.900        6.261        4.035        6.995       39.195       16.285       48.932        0.017        0.005       13.503        4.106        0.092      329.767       -3.289      871.652
01/06/2014  08:36:00        3.720        8.018        3.065       10.484       16.406       11.110      109.906      269.149      123.432        0.029        0.025        8.839       12.291        1.934      329.933       -3.014      871.639
01/06/2014  08:37:00       26.135       28.218       -7.215       11.879       11.323        6.486      141.113      128.213       42.069        0.092        0.016       38.462        3.020        0.006      329.750       -3.315      871.632
01/06/2014  08:38:00       39.525       32.393       -6.919       16.549       11.949       14.589      273.855      142.771      212.850        0.164        0.031       51.103       10.474        0.042      329.798       -3.237      871.625
01/06/2014  08:39:00       68.506       36.847        0.490       12.703        8.690       14.737      161.364       75.509      217.190        0.325        0.023       77.787        7.311        0.009      329.705       -3.390      871.629
01/06/2014  08:40:00       55.491       52.018       25.230       22.061       22.221       23.193      486.704      493.794      537.897        0.397        0.076       76.060       15.474        0.041      329.753       -3.310      871.605
01/06/2014  08:41:00       43.280       54.371       40.693       33.457       28.871       26.512     1119.398      833.528      702.900        0.457        0.133       69.494       17.721        0.065      329.810       -3.217      871.589
01/06/2014  08:42:00       69.473       61.391       34.745       33.238       24.291       23.204     1104.759      590.044      538.406        0.602        0.112       92.711       20.733        0.050      329.764       -3.294      871.567
01/06/2014  08:43:00       80.502       47.297       18.773       21.709       18.499       26.363      471.299      342.230      694.999        0.529        0.075       93.368       14.088        0.023      329.691       -3.413      871.575
01/06/2014  08:44:00        7.889       31.545       39.439       28.764       28.969       21.125      827.392      839.225      446.246        0.236        0.106       32.516       20.254        0.388      329.882       -3.100      871.578
01/06/2014  08:45:00        4.871       27.966       44.517       19.222       23.648       14.371      369.482      559.222      206.537        0.196        0.057       28.387       14.967        0.278      329.907       -3.060      871.606
01/06/2014  08:46:00       36.977       32.542       24.630       12.377       10.083       14.496      153.188      101.667      210.127        0.175        0.023       49.257        3.374        0.005      329.766       -3.290      871.612
01/06/2014  08:47:00       26.317       12.357       19.091       14.048       23.468       19.617      197.341      550.740      384.840        0.117        0.057       29.074        9.841        0.115      329.861       -3.136      871.630
01/06/2014  08:48:00        8.753       11.124       20.605       15.031       15.064       11.496      225.929      226.919      132.163        0.060        0.029       14.155       10.750        0.577      330.081       -2.775      871.633
01/06/2014  08:49:00        9.270        5.973       12.827       14.889       11.376       16.211      221.686      129.422      262.796        0.045        0.031       11.028       11.256        1.042      330.202       -2.575      871.643
01/06/2014  08:50:00        3.557       -1.879       14.473       13.434        9.952        8.240      180.460       99.036       67.904        0.029        0.017        4.023        5.454        1.838      330.322       -2.380      871.656
01/06/2014  08:51:00       20.688       13.753        9.985       17.210       10.297       11.032      296.198      106.020      121.708        0.062        0.026       24.843        6.466        0.068      330.170       -2.629      871.679
01/06/2014  08:52:00       24.467       40.716       28.689       19.035       20.714       13.481      362.331      429.089      181.745        0.203        0.049       47.502       10.818        0.052      330.138       -2.681      871.698
01/06/2014  08:53:00        6.332       18.869       35.048       17.783       21.521       10.953      316.241      463.142      119.960        0.126        0.045       19.903        7.076        0.126      330.277       -2.453      871.702
01/06/2014  08:54:00        0.809       12.331       32.162       11.987       16.888       10.679      143.699      285.189      114.033        0.086        0.027       12.358       10.746        0.756      330.444       -2.180      871.713
01/06/2014  08:55:00       23.742       16.345       13.148       23.817       21.542       18.774      567.266      464.041      352.458        0.119        0.069       28.825       12.028        0.174      330.254       -2.491      871.710
01/06/2014  08:56:00        0.463       10.546       14.016       19.267       19.186       15.356      371.231      368.110      235.803        0.064        0.049       10.556       12.914        1.497      330.414       -2.228      871.716
01/06/2014  08:57:00       18.350       23.955       12.281       23.625       15.455       13.358      558.133      238.868      178.423        0.102        0.049       30.175       10.203        0.114      330.194       -2.589      871.711
01/06/2014  08:58:00       43.018       36.443       13.006       14.173       14.522       17.024      200.875      210.880      289.800        0.202        0.035       56.380        9.421        0.028      330.140       -2.677      871.719
01/06/2014  08:59:00       43.569       28.724        1.297       29.552       23.776       22.185      873.324      565.304      492.177        0.233        0.097       52.186       18.352        0.124      330.219       -2.548      871.708
01/06/2014  09:00:00       72.886       34.693        6.778       31.472       22.928       19.706      990.508      525.679      388.312        0.423        0.095       80.721       14.456        0.032      330.137       -2.683      871.710
01/06/2014  09:01:00       86.245       50.998        3.516       36.944       21.979       26.696     1364.828      483.096      712.691        0.631        0.128      100.195       13.735        0.019      330.083       -2.771      871.702
01/06/2014  09:02:00       92.637       48.503       -4.194       29.347       30.060       25.142      861.275      903.584      632.114        0.667        0.120      104.566       14.426        0.019      330.063       -2.804      871.692
01/06/2014  09:03:00       84.642       63.285       -1.188       14.805       20.673       13.442      219.174      427.384      180.683        0.600        0.041      105.685        9.352        0.008      330.058       -2.811      871.683
01/06/2014  09:04:00       60.301       53.046       15.169       18.490       16.735       24.437      341.896      280.051      597.191        0.395        0.061       80.313       11.820        0.022      330.235       -2.523      871.673
01/06/2014  09:05:00       33.609       33.698       32.907       25.010       21.731       18.242      625.486      472.224      332.778        0.239        0.072       47.593        9.649        0.041      330.401       -2.250      871.667
01/06/2014  09:06:00       37.282       25.391       25.463       23.294       14.043       15.780      542.619      197.215      249.010        0.184        0.049       45.107       11.728        0.068      330.434       -2.196      871.660
01/06/2014  09:07:00       35.117       49.353       43.846       24.604       25.143       13.968      605.357      632.175      195.109        0.351        0.072       60.571       13.482        0.050      330.555       -1.996      871.662
01/06/2014  09:08:00       14.778       48.198       48.885       27.829       25.401       30.393      774.462      645.198      923.733        0.364        0.117       50.413       25.079        0.247      330.666       -1.815      871.671
01/06/2014  09:09:00       -5.600       59.272       76.215       15.020       32.140       21.009      225.608     1032.957      441.382        0.553        0.085       59.536       21.978        0.136      330.756       -1.666      871.676
01/06/2014  09:10:00       47.543       90.238       60.360       64.662       25.080       43.712     4181.227      628.996     1910.707        1.038        0.336      101.996       50.243        0.243      330.510       -2.071      871.688
01/06/2014  09:11:00       63.087       70.501        5.284       35.020       29.239       25.845     1226.410      854.936      667.981        0.586        0.137       94.606       14.682        0.024      330.347       -2.339      871.701
01/06/2014  09:12:00       70.645       73.608       16.381       31.499       28.548       32.796      992.173      814.977     1075.608        0.678        0.144      102.024       20.239        0.039      330.583       -1.951      871.714
01/06/2014  09:13:00       91.534       59.301       13.627       45.729       33.549       29.808     2091.115     1125.554      888.543        0.809        0.205      109.065       28.399        0.068      330.568       -1.976      871.715
01/06/2014  09:14:00       93.032       69.417        3.588       11.281       12.820       18.854      127.261      164.358      355.467        0.707        0.032      116.076        9.022        0.006      330.333       -2.361      871.719
01/06/2014  09:15:00       60.968       74.263       -4.045       25.169       17.258       20.425      633.472      297.829      417.192        0.530        0.067       96.084       11.965        0.016      330.464       -2.146      871.717
01/06/2014  09:16:00       70.867       52.544       -1.329       19.969       14.978       15.975      398.771      224.335      255.210        0.433        0.044       88.221        7.715        0.008      330.525       -2.046      871.718
01/06/2014  09:17:00       50.950       49.272       10.790       25.555       25.609       27.520      653.070      655.834      757.372        0.360        0.103       70.877       17.415        0.060      330.680       -1.793      871.720
01/06/2014  09:18:00       39.419       37.350        8.905       22.494       29.677       28.489      505.959      880.725      811.639        0.261        0.110       54.303       18.799        0.120      330.802       -1.592      871.735
01/06/2014  09:19:00        7.704        8.086        9.071       25.314       23.678       20.140      640.810      560.661      405.633        0.091        0.080       11.169       18.864        2.853      331.022       -1.231      871.748
01/06/2014  09:20:00        6.645       36.510        2.102       19.092       21.588       17.603      364.504      466.022      309.870        0.126        0.057       37.110       10.428        0.079      330.976       -1.307      871.749
01/06/2014  09:21:00       57.678       47.853       20.954       47.288       33.213       24.675     2236.170     1103.117      608.854        0.500        0.197       74.945       17.035        0.052      330.908       -1.417      871.740
01/06/2014  09:22:00       91.271       68.920       -3.915       20.628       22.197       22.325      425.520      492.719      498.406        0.726        0.071      114.369       12.554        0.012      330.511       -2.070      871.718
01/06/2014  09:23:00       95.257       82.414       13.873       24.848       22.603       25.998      617.440      510.887      675.917        0.893        0.090      125.960       19.383        0.024      330.498       -2.089      871.701
01/06/2014  09:24:00      118.807       79.171       -0.166       26.503       25.110       30.381      702.415      630.514      923.011        1.132        0.113      142.770       16.720        0.014      330.426       -2.209      871.682
01/06/2014  09:25:00       98.985       76.757        2.501       29.404       19.010       19.414      864.614      361.364      376.918        0.865        0.080      125.259       16.167        0.017      330.383       -2.279      871.673
01/06/2014  09:26:00       71.469       65.767       15.173       20.326       22.931       21.032      413.133      525.818      442.345        0.552        0.069       97.124       11.752        0.015      330.473       -2.132      871.664
01/06/2014  09:27:00       88.232       58.415        3.597       28.824       29.850       16.747      830.842      890.996      280.462        0.661        0.100      105.817       11.573        0.012      330.425       -2.210      871.641
01/06/2014  09:28:00       58.256       31.517        6.147       26.264       40.508       23.786      689.791     1640.916      565.751        0.366        0.145       66.235        9.244        0.019      330.519       -2.058      871.633
01/06/2014  09:29:00       10.944       54.311       69.478       31.860       42.927       31.294     1015.081     1842.703      979.285        0.587        0.192       55.402       32.325        0.340      330.706       -1.750      871.624
01/06/2014  09:30:00       -1.895       64.787       71.851       27.653       27.909       23.372      764.668      778.905      546.262        0.573        0.104       64.815       15.958        0.061      330.718       -1.729      871.633
01/06/2014  09:31:00       40.604       53.973       63.457       39.069       37.334       26.062     1526.381     1393.856      679.207        0.609        0.180       67.541       22.656        0.113      330.779       -1.630      871.643
01/06/2014  09:32:00       87.439       69.964       19.868       50.993       35.548       44.807     2600.253     1263.654     2007.623        0.940        0.294      111.985       22.859        0.042      330.583       -1.951      871.650
01/06/2014  09:33:00       52.817       60.722       15.423       48.108       38.176       37.220     2314.338     1457.439     1385.319        0.593        0.258       80.479       23.394        0.084      330.692       -1.772      871.656
01/06/2014  09:34:00       19.122       48.322       60.676       29.259       39.151       28.849      856.100     1532.808      832.291        0.480        0.161       51.968       27.519        0.280      330.955       -1.340      871.649
01/06/2014  09:35:00       42.693       34.252       36.657       57.993       38.492       31.009     3363.187     1481.604      961.561        0.507        0.290       54.734       24.129        0.194      330.799       -1.596      871.642
01/06/2014  09:36:00       -0.483       44.568       66.453       23.505       31.867       17.537      552.493     1015.500      307.553        0.414        0.094       44.571       18.353        0.170      330.946       -1.355      871.632
01/06/2014  09:37:00       -2.231       74.682       74.075       28.931       33.670       29.247      837.013     1133.643      855.366        0.695        0.141       74.715       21.578        0.083      330.851       -1.511      871.621
01/06/2014  09:38:00       54.782       92.230       71.391       61.590       35.206       32.178     3793.296     1239.454     1035.398        1.133        0.303      107.272       30.584        0.081      330.692       -1.772      871.612
01/06/2014  09:39:00       -0.866       66.145       99.714       36.314       37.956       29.765     1318.716     1440.683      885.957        0.898        0.182       66.151       27.607        0.174      330.896       -1.438      871.587
01/06/2014  09:40:00       18.575       82.235       86.000       56.010       40.313       46.463     3137.136     1625.175     2158.777        1.071        0.346       84.306       43.471        0.266      330.928       -1.385      871.559
01/06/2014  09:41:00       49.058       48.854       50.100       60.830       27.812       33.960     3700.323      773.500     1153.291        0.646        0.281       69.235       36.233        0.274      330.922       -1.394      871.534
01/06/2014  09:42:00       -0.738        9.775       49.177       27.617       48.267       25.093      762.687     2329.680      629.650        0.312        0.186        9.803       15.431        2.478      331.207       -0.927      871.522
01/06/2014  09:43:00       21.406        8.157       46.988       36.702       42.380       21.129     1347.047     1796.097      446.430        0.316        0.179       22.907       18.464        0.650      331.284       -0.798      871.533
01/06/2014  09:44:00       64.725       45.740       34.063       42.058       27.914       35.392     1768.908      779.208     1252.620        0.562        0.190       79.256       22.638        0.082      330.792       -1.609      871.559
01/06/2014  09:45:00       14.505       15.717       24.610       21.388       33.029       20.630      457.459     1090.895      425.605        0.152        0.099       21.388        5.293        0.061      331.080       -1.135      871.579
01/06/2014  09:46:00       24.662      -21.862       27.357       29.417       34.214       27.966      865.380     1170.618      782.071        0.233        0.141       32.957       21.499        0.426      331.121       -1.068      871.576
01/06/2014  09:47:00       21.181       37.796       57.503       24.838       39.452       25.502      616.950     1556.428      650.336        0.400        0.141       43.326       22.551        0.271      331.157       -1.009      871.569
01/06/2014  09:48:00       31.501       50.740       50.260       32.848       35.071       20.647     1079.001     1230.010      426.318        0.441        0.137       59.724       19.487        0.106      330.995       -1.274      871.560
01/06/2014  09:49:00       30.000      -18.150       40.783       33.125       60.269       33.975     1097.275     3632.398     1154.285        0.439        0.294       35.063       30.603        0.762      331.075       -1.143      871.550
01/06/2014  09:50:00       16.030        0.640       37.342       30.209       55.465       31.535      912.612     3076.375      994.445        0.332        0.249       16.042       29.034        3.276      331.242       -0.869      871.554
01/06/2014  09:51:00       26.030       39.886       58.426       36.038       30.317       18.990     1298.767      919.122      360.632        0.413        0.129       47.629       19.283        0.164      331.242       -0.868      871.562
01/06/2014  09:52:00       40.487       25.129       49.370       32.337       34.663       29.258     1045.686     1201.501      856.002        0.390        0.155       47.651       30.428        0.408      331.014       -1.245      871.574
01/06/2014  09:53:00       55.766       10.174       44.015       25.854       31.518       27.208      668.415      993.398      740.273        0.378        0.120       56.687       21.145        0.139      331.026       -1.225      871.562
01/06/2014  09:54:00       81.632       59.043       21.258       27.581       21.319       27.294      760.688      454.489      744.976        0.628        0.098      100.746       20.592        0.042      330.824       -1.556      871.549
01/06/2014  09:55:00       43.621       37.186       48.030       25.383       48.745       21.388      644.308     2376.062      457.446        0.453        0.174       57.320       19.637        0.117      330.963       -1.328      871.525
01/06/2014  09:56:00       83.395       64.796       11.171       35.371       23.621       28.361     1251.079      557.934      804.349        0.695        0.131      105.609       22.399        0.045      330.983       -1.295      871.517
01/06/2014  09:57:00       55.597       39.983       14.999       41.782       26.100       27.019     1745.755      681.196      730.043        0.404        0.158       68.481       16.271        0.056      331.385       -0.635      871.505
01/06/2014  09:58:00       45.006        5.097       29.120       38.766       39.079       28.493     1502.772     1527.155      811.871        0.337        0.192       45.294       18.294        0.163      331.501       -0.443      871.501
01/06/2014  09:59:00       64.565       37.575       19.570       33.084       46.389       33.613     1094.582     2151.908     1129.802        0.517        0.219       74.703       11.962        0.026      331.182       -0.967      871.486
01/06/2014  10:00:00       63.831       49.269       29.562       54.390       37.728       25.168     2958.230     1423.368      633.440        0.619        0.251       80.634       13.239        0.027      331.251       -0.855      871.440
01/06/2014  10:01:00      106.685       72.519        4.958       37.791       32.113       32.866     1428.178     1031.255     1080.202        1.010        0.177      128.999       15.618        0.015      331.481       -0.475      871.397
01/06/2014  10:02:00       85.904       77.520       -5.592       29.073       23.769       30.891      845.220      564.988      954.263        0.789        0.118      115.710       16.955        0.021      331.185       -0.963      871.370
01/06/2014  10:03:00       53.731       60.224       -1.221       35.239       24.037       28.006     1241.767      577.769      784.323        0.456        0.130       80.710       15.941        0.039      331.210       -0.920      871.355
01/06/2014  10:04:00       79.342       56.171        7.372       24.858       21.009       23.069      617.911      441.386      532.182        0.555        0.080       97.213       13.992        0.021      331.271       -0.821      871.350
01/06/2014  10:05:00       55.134       62.906       -9.311       24.385       22.121       28.947      594.608      489.338      837.924        0.450        0.096       83.647       19.345        0.053      331.304       -0.768      871.325
01/06/2014  10:06:00       45.531       47.063       12.642       35.141       24.278       23.402     1234.914      589.426      547.675        0.341        0.119       65.483       17.725        0.073      331.349       -0.694      871.316
01/06/2014  10:07:00       56.850       49.523       18.225       35.344       21.360       23.540     1249.217      456.234      554.128        0.414        0.113       75.395       10.133        0.018      331.277       -0.811      871.315
01/06/2014  10:08:00       57.260       52.948       -4.624       35.076       19.837       22.365     1230.298      393.514      500.184        0.411        0.106       77.988       10.130        0.017      331.359       -0.676      871.320
01/06/2014  10:09:00       36.525       59.495       23.136       35.894       37.987       36.934     1288.363     1443.046     1364.139        0.475        0.205       69.812       30.580        0.192      331.900        0.214      871.322
01/06/2014  10:10:00       51.181       36.996       21.987       42.282       31.267       28.200     1787.778      977.628      795.253        0.402        0.178       63.152       24.935        0.156      331.594       -0.291      871.322
01/06/2014  10:11:00       53.282       45.799        5.495       34.480       38.137       18.871     1188.848     1454.434      356.125        0.398        0.150       70.260       12.256        0.030      331.587       -0.301      871.321
01/06/2014  10:12:00       65.992       49.130       23.866       25.913       33.059       18.406      671.470     1092.926      338.795        0.472        0.105       82.272        5.464        0.004      331.592       -0.294      871.306
01/06/2014  10:13:00       38.921       38.833       59.419       38.954       31.590       23.691     1517.389      997.939      561.244        0.481        0.154       54.981       23.442        0.182      331.700       -0.115      871.278
01/06/2014  10:14:00       36.453       37.563       62.788       37.414       39.367       32.220     1399.790     1549.727     1038.136        0.533        0.199       52.343       29.920        0.327      331.824        0.089      871.239
01/06/2014  10:15:00       85.064       83.130       18.676       51.946       35.824       38.403     2698.395     1283.350     1474.776        0.997        0.273      118.939       30.326        0.065      331.631       -0.229      871.220
01/06/2014  10:16:00       65.575       78.273        3.502       41.789       34.197       28.920     1746.358     1169.454      836.382        0.709        0.188      102.112       23.660        0.054      331.776        0.010      871.207
01/06/2014  10:17:00      -11.458       34.209       48.476       31.343       33.423       31.925      982.411     1117.105     1019.186        0.338        0.156       36.077       25.503        0.500      332.119        0.575      871.218
01/06/2014  10:18:00        2.334       40.146       62.231       23.649       37.487       21.246      559.286     1405.284      451.380        0.395        0.121       40.213       19.388        0.232      332.237        0.770      871.238
01/06/2014  10:19:00       42.980       49.548       22.810       33.834       30.502       37.277     1144.763      930.371     1389.551        0.414        0.173       65.592       23.502        0.128      331.823        0.087      871.257
01/06/2014  10:20:00       16.518       19.126       37.279       31.284       33.126       24.050      978.714     1097.314      578.425        0.234        0.133       25.272       20.267        0.643      332.118        0.574      871.261
01/06/2014  10:21:00       26.626       58.156       72.205       37.593       34.403       19.830     1413.210     1183.550      393.225        0.615        0.149       63.962       16.146        0.064      332.087        0.521      871.251
01/06/2014  10:22:00      109.801       81.857        9.330       24.546       19.709       25.057      602.530      388.445      627.869        1.023        0.081      136.956        8.325        0.004      331.407       -0.598      871.254
01/06/2014  10:23:00       67.038       59.764       -7.949       50.608       36.759       30.592     2561.210     1351.241      935.900        0.649        0.242       89.810       19.402        0.047      331.646       -0.204      871.247
01/06/2014  10:24:00       85.087       75.304       14.002       48.057       39.710       29.966     2309.489     1576.889      897.987        0.894        0.239      113.625       14.636        0.017      331.750       -0.034      871.246
01/06/2014  10:25:00       28.238       65.601       62.640       36.516       36.705       27.195     1333.455     1347.244      739.564        0.622        0.171       71.420       20.179        0.080      331.987        0.355      871.262
01/06/2014  10:26:00       18.905       30.040       18.664       24.490       34.605       23.026      599.757     1197.498      530.213        0.197        0.116       35.494       18.289        0.265      332.003        0.383      871.270
01/06/2014  10:27:00        8.592       67.876       70.691       30.769       40.033       24.396      946.755     1602.646      595.162        0.641        0.157       68.418       22.592        0.109      332.168        0.655      871.258
01/06/2014  10:28:00       59.160      112.942       97.409       35.117       32.817       23.312     1233.221     1076.967      543.431        1.430        0.143      127.499       17.267        0.018      331.872        0.167      871.232
01/06/2014  10:29:00       65.513       71.454       68.236       61.648       58.017       45.946     3800.509     3365.941     2111.013        1.166        0.464       96.941       44.497        0.211      331.808        0.062      871.222
01/06/2014  10:30:00       91.115       79.468       32.433       34.704       15.766       28.585     1204.350      248.565      817.106        0.897        0.114      120.902       10.797        0.008      331.615       -0.257      871.230
01/06/2014  10:31:00       32.483       47.196       65.309       26.945       26.492       15.850      726.054      701.839      251.220        0.461        0.084       57.294       11.959        0.044      331.859        0.146      871.250
01/06/2014  10:32:00       32.023       39.594       61.459       26.740       21.210       16.473      715.029      449.858      271.352        0.390        0.072       50.923       15.493        0.093      332.020        0.410      871.250
01/06/2014  10:33:00       68.394       44.582       38.805       36.583       34.171       35.247     1338.290     1167.643     1242.367        0.596        0.187       81.641       33.103        0.164      331.782        0.019      871.257
01/06/2014  10:34:00       18.068       21.210       15.031       28.402       19.326       26.120      806.677      373.495      682.276        0.143        0.093       27.863       15.839        0.323      331.963        0.318      871.251
01/06/2014  10:35:00        8.791       -7.088       14.718       21.514       24.158       21.959      462.866      583.620      482.211        0.094        0.076       11.293       17.800        2.485      332.144        0.615      871.234
01/06/2014  10:36:00       30.081      -59.770        0.887       32.417       40.180       26.483     1050.893     1614.395      701.372        0.392        0.168       66.912       24.950        0.139      332.142        0.614      871.187
01/06/2014  10:37:00       24.612      -67.093      -21.645       23.357       23.487       12.540      545.530      551.643      157.244        0.341        0.063       71.465        7.769        0.012      331.814        0.071      871.142
01/06/2014  10:38:00       -8.908        6.400       15.961       30.764       35.331       32.523      946.399     1248.301     1057.756        0.181        0.163       10.969       34.947       10.150      332.096        0.536      871.107
01/06/2014  10:39:00       27.607       34.546       58.321       31.244       34.167       30.310      976.207     1167.387      918.707        0.421        0.153       44.222       18.905        0.183      332.263        0.812      871.091
01/06/2014  10:40:00       54.913       49.420       52.143       36.245       33.016       28.721     1313.732     1090.035      824.892        0.570        0.161       73.877       20.337        0.076      332.155        0.633      871.084
01/06/2014  10:41:00       63.711       77.170       86.255       48.241       38.687       35.631     2327.207     1496.679     1269.555        1.127        0.255      100.072       32.407        0.105      331.988        0.359      871.064
01/06/2014  10:42:00       56.700       63.228       86.886       35.433       49.429       36.466     1255.532     2443.260     1329.737        0.989        0.251       84.928       36.375        0.183      332.007        0.389      871.052
01/06/2014  10:43:00       13.603       23.552       35.534       25.250       26.087       14.607      637.559      680.535      213.362        0.177        0.077       27.198       12.398        0.208      332.342        0.942      871.029
01/06/2014  10:44:00       11.720       72.328       84.267       31.760       34.099       32.455     1008.684     1162.721     1053.316        0.785        0.161       73.272       24.962        0.116      332.134        0.600      871.009
01/06/2014  10:45:00       41.201       55.861       52.142       29.640       29.545       33.069      878.537      872.935     1093.526        0.519        0.142       69.412       26.296        0.144      332.095        0.535      870.997
01/06/2014  10:46:00       -0.351       28.394       49.886       15.571       21.892       24.749      242.464      479.261      612.489        0.231        0.067       28.396       16.129        0.323      332.393        1.027      870.968
01/06/2014  10:47:00       28.976       80.795       93.439       34.563       35.277       24.739     1194.599     1244.494      612.038        0.957        0.153       85.833       21.779        0.064      332.326        0.915      870.936
01/06/2014  10:48:00       60.371       68.542       45.424       46.837       29.900       34.309     2193.679      894.007     1177.088        0.733        0.213       91.338       17.962        0.039      332.297        0.868      870.900
01/06/2014  10:49:00        6.456       65.219       79.643       36.038       35.055       23.737     1298.711     1228.832      563.442        0.686        0.155       65.538       20.020        0.093      332.335        0.931      870.860
01/06/2014  10:50:00       59.070       75.317       62.638       60.290       35.657       36.451     3634.864     1271.406     1328.668        0.966        0.312       95.718       39.636        0.171      332.220        0.742      870.817
01/06/2014  10:51:00       52.671       38.712       15.668       27.274       27.663       25.935      743.858      765.252      672.639        0.335        0.109       65.367       18.171        0.077      332.270        0.823      870.768
01/06/2014  10:52:00       22.827       58.315       61.821       45.508       36.014       39.442     2070.935     1297.008     1555.640        0.633        0.246       62.623       30.106        0.231      332.437        1.098      870.732
01/06/2014  10:53:00      102.862       93.548       24.979       34.670       30.742       37.542     1201.992      945.074     1409.417        1.176        0.178      139.039       18.762        0.018      332.101        0.544      870.701
01/06/2014  10:54:00       55.277       55.586        5.328       31.662       33.541       32.546     1002.478     1124.968     1059.264        0.468        0.159       78.392       19.805        0.064      332.163        0.647      870.683
01/06/2014  10:55:00       45.190       32.296       29.304       39.636       30.371       25.281     1571.021      922.426      639.118        0.354        0.157       55.544       14.200        0.065      332.516        1.229      870.666
01/06/2014  10:56:00       67.633       54.158        9.926       39.357       44.007       28.541     1548.955     1936.654      814.564        0.595        0.215       86.645       19.988        0.053      332.369        0.987      870.630
01/06/2014  10:57:00        1.401       20.970       32.894       34.374       35.276       23.433     1181.573     1244.430      549.089        0.225        0.149       21.017       12.027        0.328      332.756        1.625      870.600
01/06/2014  10:58:00       36.071       32.264       26.340       35.388       29.432       26.237     1252.330      866.256      688.359        0.292        0.140       48.396       19.839        0.168      332.631        1.418      870.577
01/06/2014  10:59:00       52.297       24.247        4.784       45.561       31.020       20.638     2075.827      962.258      425.923        0.340        0.173       57.645       10.498        0.033      332.289        0.854      870.551
01/06/2014  11:00:00       36.578       30.202       13.100       42.810       29.892       25.959     1832.729      893.504      673.893        0.291        0.170       47.435       18.090        0.145      332.560        1.301      870.531
01/06/2014  11:01:00       90.968       48.332        1.824       36.157       37.795       32.846     1307.323     1428.437     1078.836        0.721        0.191      103.011       19.611        0.036      332.363        0.977      870.519
01/06/2014  11:02:00       54.667       41.295       -4.410       26.577       28.490       18.963      706.344      811.695      359.585        0.330        0.094       68.511       17.530        0.065      332.319        0.904      870.517
01/06/2014  11:03:00       65.104       64.254        4.747       37.870       30.311       26.030     1434.146      918.780      677.540        0.571        0.152       91.472       18.178        0.039      332.319        0.904      870.535
01/06/2014  11:04:00       61.349       70.124       15.516       41.339       27.166       25.892     1708.950      737.966      670.412        0.602        0.156       93.173       17.687        0.036      332.407        1.050      870.524
01/06/2014  11:05:00       45.235       83.565      -14.233       30.107       26.708       24.148      906.424      713.340      583.147        0.572        0.110       95.022       19.581        0.042      332.279        0.838      870.527
01/06/2014  11:06:00       55.704       53.990       -7.144       14.033       41.953       19.761      196.912     1760.047      390.501        0.421        0.117       77.575        9.760        0.016      332.149        0.625      870.517
01/06/2014  11:07:00       44.592       53.607       -1.690       19.636       15.098       22.704      385.586      227.954      515.476        0.300        0.056       69.729       13.736        0.039      332.177        0.669      870.503
01/06/2014  11:08:00       61.456       56.385        1.304       19.128       20.152       24.561      365.866      406.092      603.239        0.417        0.069       83.403       13.616        0.027      332.225        0.749      870.489
01/06/2014  11:09:00       86.661       50.900       14.015       29.272       22.533       25.314      856.866      507.758      640.809        0.615        0.100      100.503       10.176        0.010      332.367        0.983      870.470
01/06/2014  11:10:00       31.318       64.081       53.244       47.421       30.034       41.633     2248.750      902.019     1733.327        0.640        0.244       71.324       32.709        0.210      332.490        1.188      870.451
01/06/2014  11:11:00       52.016       51.784       10.762       24.132       22.327       22.674      582.362      498.483      514.105        0.355        0.080       73.398       14.933        0.041      332.288        0.853      870.449
01/06/2014  11:12:00       68.134       62.812       -3.287       33.308       16.863       20.967     1109.421      284.352      439.603        0.522        0.092       92.669       18.637        0.040      332.356        0.966      870.434
01/06/2014  11:13:00       75.102       56.591       -2.199       43.172       24.588       19.979     1863.799      604.571      399.173        0.586        0.143       94.036       11.194        0.014      332.600        1.368      870.404
01/06/2014  11:14:00       76.869       76.602        7.210       25.776       23.374       27.241      664.384      546.353      742.080        0.689        0.098      108.520       12.189        0.013      332.443        1.108      870.380
01/06/2014  11:15:00       61.030       66.520        4.856       23.695       19.262       34.255      561.469      371.016     1173.384        0.514        0.105       90.275        6.815        0.006      332.365        0.982      870.370
01/06/2014  11:16:00       43.864       43.391       -8.754       33.019       38.345       23.256     1090.222     1470.353      540.828        0.349        0.155       61.699       19.286        0.098      332.448        1.117      870.345
01/06/2014  11:17:00       54.896       63.311       -7.092       31.611       30.280       25.683      999.249      916.867      659.603        0.482        0.129       83.796       21.138        0.064      332.493        1.193      870.305
01/06/2014  11:18:00       51.314       77.441      -11.520       25.718       26.894       23.074      661.398      723.271      532.421        0.534        0.096       92.899        9.095        0.010      332.567        1.313      870.265
01/06/2014  11:19:00      110.299       66.518       -4.159       41.929       29.660       35.564     1758.007      879.714     1264.786        1.025        0.195      128.804       11.364        0.008      332.613        1.388      870.225
01/06/2014  11:20:00      109.587       55.465       20.679       38.279       38.157       29.190     1465.249     1455.962      852.030        0.964        0.189      122.824       12.429        0.010      332.602        1.372      870.215
01/06/2014  11:21:00       64.123       71.462       77.539       40.488       34.351       43.217     1639.260     1179.990     1867.705        0.996        0.234       96.013       21.985        0.052      332.802        1.701      870.214
01/06/2014  11:22:00       92.264       69.912       51.141       51.277       41.602       47.554     2629.363     1730.718     2261.415        1.132        0.331      115.760       38.186        0.109      332.525        1.243      870.223
01/06/2014  11:23:00       93.738       82.218       40.176       38.060       32.430       35.293     1448.578     1051.711     1245.608        1.045        0.187      124.686       24.419        0.038      332.411        1.058      870.221
01/06/2014  11:24:00       92.729       53.625       35.534       36.035       33.727       30.056     1298.535     1137.508      903.372        0.804        0.167      107.118       23.562        0.048      332.523        1.240      870.195
01/06/2014  11:25:00       48.507       49.871       47.661       37.199       50.233       19.261     1383.773     2523.355      371.005        0.569        0.214       69.570       15.789        0.052      332.794        1.688      870.159
01/06/2014  11:26:00       16.541       16.553       58.555       34.245       42.461       28.165     1172.752     1802.947      793.280        0.387        0.188       23.401       30.313        1.678      332.831        1.750      870.120
01/06/2014  11:27:00       58.990       64.129       41.362       45.642       33.427       32.021     2083.181     1117.392     1025.313        0.676        0.211       87.134       12.704        0.021      332.738        1.596      870.095
01/06/2014  11:28:00       78.916       70.968       20.307       25.994       28.181       33.901      675.705      794.190     1149.281        0.715        0.131      106.133       11.368        0.011      332.607        1.379      870.077
01/06/2014  11:29:00       68.272       65.085        5.668       22.028       19.091       22.202      485.236      364.478      492.909        0.514        0.067       94.325       12.026        0.016      332.489        1.185      870.051
01/06/2014  11:30:00       57.222       55.079       12.341       23.564       16.694       29.939      555.260      278.700      896.372        0.410        0.087       79.424       10.812        0.019      332.632        1.421      870.011
01/06/2014  11:31:00       18.146       86.509       93.140       39.152       43.007       41.050     1532.861     1849.604     1685.092        1.078        0.253       88.392       28.720        0.106      332.899        1.861      869.968
01/06/2014  11:32:00       34.050       43.637       58.501       40.439       43.821       27.818     1635.317     1920.295      773.831        0.541        0.216       55.350       28.802        0.271      332.780        1.665      869.929
01/06/2014  11:33:00        5.878       54.228       77.374       26.975       49.047       23.008      727.677     2405.599      529.391        0.631        0.183       54.545       29.034        0.283      332.944        1.937      869.912
01/06/2014  11:34:00       33.189       37.469       52.985       22.283       31.637       24.203      496.535     1000.880      585.766        0.370        0.104       50.054       20.993        0.176      332.663        1.472      869.921
01/06/2014  11:35:00       35.006      -30.601       15.551       23.983       24.077       19.970      575.165      579.696      398.782        0.198        0.078       46.495       18.404        0.157      332.745        1.606      869.921
01/06/2014  11:36:00       21.068        8.102       26.553       29.564       20.496       15.511      874.004      420.068      240.587        0.137        0.077       22.573       12.483        0.306      332.936        1.923      869.902
01/06/2014  11:37:00       33.258       38.648       24.910       33.184       17.562       34.809     1101.196      308.426     1211.697        0.292        0.131       50.988       29.548        0.336      332.852        1.786      869.859
01/06/2014  11:38:00       12.116       29.781       55.792       30.188       26.089       14.367      911.317      680.651      206.423        0.297        0.090       32.152       10.351        0.104      332.971        1.982      869.819
01/06/2014  11:39:00       12.376       39.453       45.572       22.427       29.966       25.984      502.974      897.936      675.160        0.293        0.104       41.348       17.244        0.174      333.031        2.079      869.807
01/06/2014  11:40:00        4.016       18.320       54.017       28.214       33.245       28.851      796.011     1105.261      832.378        0.300        0.137       18.754       21.188        1.276      333.114        2.217      869.801
01/06/2014  11:41:00       -1.384       53.088       68.101       19.205       39.506       26.460      368.851     1560.698      700.151        0.504        0.131       53.106       29.179        0.302      332.901        1.866      869.791
01/06/2014  11:42:00       55.847       61.987       52.255       28.149       23.531       19.225      792.348      553.694      369.607        0.570        0.086       83.434       12.075        0.021      332.708        1.547      869.762
01/06/2014  11:43:00       17.566       14.550       27.667       26.919       20.117       20.850      724.618      404.703      434.726        0.142        0.078       22.810       15.137        0.440      332.993        2.018      869.734
01/06/2014  11:44:00      -14.126      -22.050       21.033       21.157       24.384       15.734      447.607      594.601      247.547        0.121        0.064       26.186       10.739        0.168      333.024        2.068      869.701
01/06/2014  11:45:00       24.247      -54.749       -2.527       20.988       22.943       18.299      440.507      526.358      334.864        0.245        0.065       59.878        9.826        0.027      332.924        1.904      869.699
01/06/2014  11:46:00       27.968      -11.836       12.007       22.678       18.223       17.043      514.310      332.060      290.466        0.110        0.057       30.370        9.424        0.096      332.869        1.814      869.723
01/06/2014  11:47:00       10.212       13.696        6.323       10.151       12.462       16.932      103.041      155.290      286.679        0.044        0.027       17.084       10.628        0.387      332.865        1.807      869.714
01/06/2014  11:48:00       27.874       41.977       52.957       25.585       29.833       22.257      654.607      889.986      495.367        0.369        0.102       50.389       17.104        0.115      332.954        1.952      869.701
01/06/2014  11:49:00       16.895       -7.552       24.257       25.587       35.436       27.858      654.694     1255.704      776.055        0.181        0.134       18.506       23.748        1.647      333.205        2.368      869.677
01/06/2014  11:50:00       56.479       33.305       13.115       43.136       31.774       26.691     1860.704     1009.559      712.413        0.403        0.179       65.567       27.397        0.175      333.068        2.141      869.654
01/06/2014  11:51:00      118.058       54.927        9.469       46.331       37.548       29.735     2146.592     1409.863      884.162        1.074        0.222      130.210       24.057        0.034      332.807        1.710      869.631
01/06/2014  11:52:00      119.385       75.591       -9.342       25.323       26.380       16.073      641.275      695.910      258.345        1.082        0.080      141.304        6.431        0.002      332.666        1.478      869.627
01/06/2014  11:53:00       36.027       67.267        2.890       26.411       50.252       25.508      697.567     2525.266      650.675        0.485        0.194       76.307       21.110        0.077      332.986        2.006      869.622
01/06/2014  11:54:00       26.206       59.785        3.524       29.787       36.157       25.112      887.285     1307.320      630.588        0.355        0.141       65.277       20.177        0.096      332.979        1.994      869.607
01/06/2014  11:55:00       59.841       58.457        1.207       21.784       16.914       23.475      474.524      286.068      551.092        0.416        0.066       83.655       10.412        0.015      332.909        1.880      869.604
01/06/2014  11:56:00       32.453       53.694        9.683       20.469       20.430       28.023      418.976      417.375      785.269        0.283        0.081       62.739       19.472        0.096      332.897        1.859      869.600
01/06/2014  11:57:00       71.231       48.707       18.298       42.294       27.873       27.293     1788.796      776.926      744.917        0.555        0.166       86.291       25.815        0.089      333.050        2.112      869.552
01/06/2014  11:58:00       32.232       55.879       59.710       41.179       32.035       28.364     1695.716     1026.238      804.489        0.563        0.176       64.509       16.375        0.064      333.222        2.396      869.530
01/06/2014  11:59:00       34.359       37.040       39.779       30.803       37.537       30.927      948.832     1409.028      956.488        0.372        0.166       50.523       21.580        0.182      333.196        2.353      869.546
01/06/2014  12:00:00       21.103       64.925       72.541       33.143       34.368       21.958     1098.467     1181.170      482.145        0.634        0.138       68.268       14.073        0.042      333.155        2.286      869.575
01/06/2014  12:01:00       79.166       62.145       26.371       32.361       36.732       35.224     1047.227     1349.217     1240.713        0.723        0.182      100.644       27.907        0.077      332.912        1.884      869.572
01/06/2014  12:02:00       41.183       40.364       -0.337       26.204       25.379       22.412      686.651      644.114      502.296        0.258        0.092       57.665        8.782        0.023      332.829        1.746      869.539
01/06/2014  12:03:00       47.940       52.703       -3.712       40.857       28.699       20.665     1669.298      823.651      427.043        0.400        0.146       71.245       13.700        0.037      333.006        2.038      869.498
01/06/2014  12:04:00       39.915       79.095       -6.170       38.549       53.492       32.407     1486.017     2861.373     1050.213        0.664        0.270       88.596       25.821        0.085      333.101        2.194      869.478
01/06/2014  12:05:00       39.696       80.502       -8.139       40.284       64.880       29.384     1622.790     4209.425      863.416        0.741        0.335       89.757       30.182        0.113      333.030        2.077      869.477
01/06/2014  12:06:00       23.586      108.080      -22.857       25.016       20.851       15.346      625.817      434.764      235.508        0.703        0.065      110.624       11.626        0.011      332.813        1.719      869.488
01/06/2014  12:07:00       -4.654       62.307      -13.008       11.237       22.530       19.607      126.261      507.620      384.447        0.255        0.051       62.480        4.937        0.006      332.854        1.787      869.495
01/06/2014  12:08:00       -9.711       53.849       -8.945       16.842       27.011       15.313      283.663      729.610      234.478        0.216        0.062       54.718       16.987        0.096      332.932        1.917      869.471
01/06/2014  12:09:00       -7.106       58.010      -12.014       26.190       24.675       25.275      685.926      608.877      638.806        0.275        0.097       58.443       12.996        0.049      332.958        1.960      869.444
01/06/2014  12:10:00       11.238       31.847       -4.079       33.911       44.957       19.716     1149.935     2021.161      388.730        0.236        0.178       33.772       13.709        0.165      333.039        2.095      869.440
01/06/2014  12:11:00        6.410       84.821       -7.033       16.658       24.487       24.045      277.477      599.623      578.139        0.437        0.073       85.063       19.829        0.054      333.043        2.100      869.431
01/06/2014  12:12:00       41.245       65.555      -10.992       39.381       19.543       22.515     1550.881      381.940      506.943        0.428        0.122       77.451       12.625        0.027      333.006        2.039      869.393
01/06/2014  12:13:00       17.364       94.802       -9.537       32.338       27.825       26.688     1045.763      774.231      712.234        0.596        0.127       96.379       22.450        0.054      333.017        2.058      869.348
01/06/2014  12:14:00       21.251       60.925      -14.992       25.508       39.354       14.699      650.674     1548.734      216.054        0.340        0.121       64.524       17.055        0.070      332.955        1.955      869.325
01/06/2014  12:15:00        7.947       13.674       -9.072       22.706       29.110       11.483      515.540      847.380      131.851        0.091        0.075       15.815        7.387        0.218      333.148        2.274      869.307
01/06/2014  12:16:00        5.477       21.833       11.826       17.023       23.930       16.273      289.772      572.663      264.822        0.089        0.056       22.510       15.605        0.481      333.546        2.931      869.287
01/06/2014  12:17:00       41.409       42.461        4.434       35.630       17.576       18.570     1269.513      308.915      344.861        0.273        0.096       59.309       13.417        0.051      333.143        2.264      869.260
01/06/2014  12:18:00        6.608        7.345      -17.884       23.561       17.638       18.839      555.137      311.101      354.921        0.082        0.061        9.880       17.686        3.204      333.181        2.326      869.245
01/06/2014  12:19:00       28.187       25.964       16.873       23.254       23.032       19.260      540.758      530.460      370.949        0.160        0.072       38.322        7.844        0.042      333.215        2.384      869.249
01/06/2014  12:20:00       44.822       33.170        6.265       22.318       15.042       18.586      498.083      226.261      345.442        0.211        0.053       55.761       13.955        0.063      333.080        2.160      869.232
01/06/2014  12:21:00       20.818       35.861      -15.622       37.242       24.957       21.731     1386.966      622.869      472.252        0.222        0.124       41.466       19.357        0.218      333.133        2.250      869.235
01/06/2014  12:22:00      -80.487       31.006      -16.064       24.473       26.661       17.801      598.920      710.821      316.873        0.466        0.081       86.253       12.507        0.021      333.195        2.350      869.250
01/06/2014  12:23:00      -44.611       44.127      -21.745       21.596       27.357       14.225      466.406      748.405      202.360        0.291        0.071       62.748       15.857        0.064      333.204        2.364      869.259
01/06/2014  12:24:00      -34.349       36.201      -16.641       17.165       25.017       13.594      294.642      625.830      184.788        0.194        0.055       49.903        9.314        0.035      333.244        2.431      869.243
01/06/2014  12:25:00      -46.692       21.333        0.293       30.630       20.722       23.520      938.209      429.393      553.169        0.228        0.096       51.335       19.573        0.145      333.408        2.704      869.236
01/06/2014  12:26:00      -70.696       38.306      -14.050       30.712       36.192       23.146      943.250     1309.850      535.759        0.473        0.139       80.407       23.328        0.084      333.246        2.436      869.229
01/06/2014  12:27:00      -66.583        2.630      -11.836       32.334       30.606       25.214     1045.500      936.730      635.764        0.360        0.131       66.635       19.963        0.090      333.224        2.399      869.224
01/06/2014  12:28:00      -10.379       78.451      -21.493       25.039       24.691       16.698      626.969      609.629      278.833        0.412        0.076       79.135        8.730        0.012      333.179        2.325      869.210
01/06/2014  12:29:00       30.649        1.192        5.085       25.670       26.811       17.672      658.962      718.807      312.300        0.133        0.085       30.672       16.936        0.305      333.317        2.551      869.188
01/06/2014  12:30:00       -5.440       94.316        1.074       21.908       51.156       19.926      479.966     2616.978      397.047        0.621        0.175       94.473       24.685        0.068      333.385        2.665      869.164
01/06/2014  12:31:00      -13.678       49.936       -1.195       20.316       44.267       22.798      412.731     1959.563      519.732        0.279        0.145       51.776       28.151        0.296      333.513        2.876      869.139
01/06/2014  12:32:00      -21.151       48.374      -12.233       32.144       34.008       19.616     1033.218     1156.522      384.804        0.276        0.129       52.796       18.070        0.117      333.362        2.626      869.112
01/06/2014  12:33:00        2.697       43.854       -3.310       29.733       31.582       22.798      884.065      997.450      519.769        0.217        0.120       43.937       17.222        0.154      333.482        2.824      869.079
01/06/2014  12:34:00       -1.346       99.333       -7.660       20.365       37.839       22.478      414.743     1431.769      505.280        0.614        0.118       99.342       16.564        0.028      333.380        2.657      869.050
01/06/2014  12:35:00       11.441       60.796       -8.149       20.509       36.772       20.370      420.620     1352.215      414.935        0.304        0.109       61.863       20.509        0.110      333.397        2.684      869.028
01/06/2014  12:36:00      -58.179       29.406        6.556       36.392       33.580       22.765     1324.392     1127.587      518.228        0.363        0.149       65.188       16.276        0.062      333.679        3.152      868.997
01/06/2014  12:37:00      -84.575       42.727      -13.265       18.791       26.180       16.195      353.117      685.370      262.288        0.523        0.065       94.755       12.049        0.016      333.457        2.785      868.993
01/06/2014  12:38:00      -68.507       25.583      -16.741       21.621       17.528       14.143      467.446      307.230      200.025        0.330        0.049       73.128       11.958        0.027      333.343        2.595      868.981
01/06/2014  12:39:00      -16.148       20.886      -13.953       22.618       18.494       12.156      511.553      342.037      147.778        0.095        0.050       26.401        6.003        0.052      333.400        2.689      868.949
01/06/2014  12:40:00       31.974       32.485        4.099       34.491       43.306       31.731     1189.613     1875.374     1006.835        0.308        0.204       45.581       24.347        0.285      333.599        3.021      868.909
01/06/2014  12:41:00       38.968       40.548       19.234       48.317       52.745       26.253     2334.549     2781.992      689.209        0.467        0.290       56.238       29.472        0.275      333.827        3.398      868.902
01/06/2014  12:42:00       -5.019       -9.864       13.817       30.946       68.065       26.664      957.630     4632.886      710.993        0.331        0.315       11.067       35.048       10.029      333.828        3.399      868.920
01/06/2014  12:43:00       77.998       57.597       11.560       50.539       34.703       24.779     2554.141     1204.277      614.005        0.695        0.219       96.960       12.194        0.016      333.663        3.125      868.920
01/06/2014  12:44:00       44.959       67.742      -14.228       55.319       39.298       25.878     3060.228     1544.305      669.655        0.604        0.264       81.304       17.382        0.046      333.486        2.832      868.900
01/06/2014  12:45:00       52.579       56.690       19.625       50.526       40.586       28.632     2552.850     1647.189      819.771        0.569        0.251       77.319       29.712        0.148      333.717        3.214      868.873
01/06/2014  12:46:00       72.304       55.035       19.710       23.497       17.134       20.360      552.131      293.589      414.512        0.495        0.063       90.866        6.600        0.005      333.613        3.042      868.825
01/06/2014  12:47:00       24.286       32.969       30.237       40.669       27.724       36.119     1653.984      768.623     1304.600        0.316        0.186       40.948       27.365        0.447      333.937        3.580      868.808
01/06/2014  12:48:00       44.617       51.762       59.317       52.930       47.718       42.020     2801.557     2276.977     1765.694        0.751        0.342       68.337       32.192        0.222      333.977        3.645      868.782
01/06/2014  12:49:00       30.778        1.431        6.974       52.193       53.296       29.226     2724.147     2840.502      854.176        0.371        0.321       30.811       22.169        0.518      333.710        3.205      868.748
01/06/2014  12:50:00       66.198      -54.826       12.417       41.308       46.387       29.201     1706.323     2151.736      852.717        0.613        0.236       85.954       27.205        0.100      333.861        3.453      868.731
01/06/2014  12:51:00       21.781      -35.114       22.559       37.027       69.858       25.145     1371.004     4880.177      632.287        0.455        0.344       41.320       36.441        0.778      334.211        4.035      868.750
01/06/2014  12:52:00       72.267      -63.087       11.028       26.986       44.158       24.506      728.227     1949.969      600.567        0.630        0.164       95.930       14.919        0.024      333.788        3.332      868.788
01/06/2014  12:53:00       49.998        5.379       12.795       30.131       20.756       21.774      907.850      430.816      474.102        0.225        0.091       50.286       18.902        0.141      334.000        3.685      868.788
01/06/2014  12:54:00       45.044       15.942       27.817       39.357       43.614       33.985     1548.964     1902.219     1154.968        0.383        0.230       47.782       24.937        0.272      334.108        3.863      868.770
01/06/2014  12:55:00       60.145       38.850       37.263       41.356       36.489       38.063     1710.312     1331.457     1448.824        0.550        0.225       71.601       11.457        0.026      333.979        3.649      868.750
01/06/2014  12:56:00       30.042       74.162       64.219       41.334       33.554       38.397     1708.536     1125.864     1474.327        0.742        0.215       80.016       31.403        0.154      333.936        3.576      868.742
01/06/2014  12:57:00       53.248       42.986       72.567       47.492       45.154       30.985     2255.516     2038.906      960.082        0.760        0.263       68.434       31.377        0.210      333.934        3.574      868.734
01/06/2014  12:58:00       96.724       62.453       43.274       47.108       37.080       32.440     2219.128     1374.919     1052.367        0.989        0.232      115.135       24.162        0.044      333.936        3.577      868.700
01/06/2014  12:59:00       27.099       46.017       52.647       39.163       33.378       36.470     1533.742     1114.065     1330.034        0.480        0.199       53.403       27.375        0.263      334.319        4.215      868.677
01/06/2014  13:00:00       41.982      -41.108       35.067       48.705       91.689       41.778     2372.178     8406.849     1745.368        0.860        0.626       58.757       46.345        0.622      334.172        3.970      868.632
01/06/2014  13:01:00       93.204      -40.028       48.706       64.669       92.414       53.742     4182.083     8540.388     2888.246        1.413        0.781      101.436       65.447        0.416      333.935        3.575      868.600
01/06/2014  13:02:00       63.754      -78.156       21.122       53.436       71.239       30.905     2855.371     5074.977      955.108        0.975        0.444      100.861       34.054        0.114      334.095        3.843      868.550
01/06/2014  13:03:00        9.757       99.701      107.634       40.123       80.435       58.114     1609.859     6469.718     3377.219        1.654        0.573      100.177       57.648        0.331      334.194        4.006      868.492
01/06/2014  13:04:00       93.959       96.848       76.103       62.854       51.254       47.184     3950.608     2627.009     2226.314        1.640        0.440      134.937       35.148        0.068      333.743        3.258      868.475
01/06/2014  13:05:00       78.351       68.675       49.715       60.555       51.047       38.208     3666.858     2605.767     1459.853        1.053        0.387      104.188       16.164        0.024      333.880        3.485      868.472
01/06/2014  13:06:00       91.234       70.282       25.743       47.859       41.774       46.249     2290.466     1745.052     2138.956        1.005        0.309      115.166       26.969        0.055      333.872        3.471      868.464
01/06/2014  13:07:00       79.570       75.426       36.160       54.810       54.497       62.569     3004.150     2969.941     3914.832        1.161        0.494      109.638       42.312        0.149      334.040        3.751      868.421
01/06/2014  13:08:00       90.754       56.288       30.687       67.626       47.265       42.393     4573.238     2234.024     1797.131        1.047        0.430      106.792       26.145        0.060      334.222        4.052      868.367
01/06/2014  13:09:00       63.975       29.129       23.130       62.364       37.554       30.703     3889.305     1410.299      942.672        0.586        0.312       70.294       29.003        0.170      334.126        3.894      868.341
01/06/2014  13:10:00       76.146       56.336       52.049       57.876       48.871       49.179     3349.577     2388.409     2418.604        0.992        0.408       94.720       30.736        0.105      334.103        3.854      868.332
01/06/2014  13:11:00      123.125       35.749       45.166       76.165       62.803       49.069     5801.042     3944.155     2407.765        1.531        0.608      128.209       49.763        0.151      333.918        3.548      868.349
01/06/2014  13:12:00       66.052       20.857       25.390       47.007       80.993       39.243     2209.695     6559.937     1539.985        0.787        0.515       69.267       40.723        0.346      334.014        3.707      868.340
01/06/2014  13:13:00       56.570      -49.994       18.442       51.235       65.782       41.486     2625.051     4327.224     1721.058        0.735        0.434       75.495       35.163        0.217      334.176        3.977      868.326
01/06/2014  13:14:00      102.595      -39.218       38.211       84.447      100.571       64.709     7131.331    10114.528     4187.199        1.747        1.072      109.835       75.782        0.476      334.026        3.726      868.313
01/06/2014  13:15:00       70.580      -50.692       39.267       58.101       86.697       56.697     3375.738     7516.386     3214.569        1.160        0.705       86.898       69.845        0.646      334.073        3.804      868.300
01/06/2014  13:16:00      112.734     -131.117      -12.340       43.411       70.749       32.489     1884.504     5005.360     1055.523        1.900        0.397      172.919       32.406        0.035      333.958        3.613      868.278
01/06/2014  13:17:00       91.869       38.719       67.668       87.602       66.653       47.034     7674.187     4442.662     2212.185        1.442        0.716       99.695       50.545        0.257      334.037        3.745      868.239
01/06/2014  13:18:00       57.716       -5.862       52.933       55.120       96.564       63.196     3038.242     9324.612     3993.774        1.126        0.818       58.013       70.079        1.459      333.993        3.672      868.207
01/06/2014  13:19:00       32.953      -32.616       41.659       39.203       71.724       43.104     1536.847     5144.397     1857.930        0.621        0.427       46.365       40.794        0.774      334.217        4.045      868.199
01/06/2014  13:20:00       -3.298      -28.229       25.620       34.361       60.348       38.736     1180.647     3641.893     1500.474        0.389        0.316       28.421       39.548        1.936      334.305        4.190      868.220
01/06/2014  13:21:00       58.118      -85.787       14.753       76.077       48.646       38.719     5787.715     2366.449     1499.142        1.030        0.483      103.620       37.622        0.132      334.161        3.951      868.227
01/06/2014  13:22:00      120.249       11.305       45.612       51.540       40.010       44.092     2656.394     1600.827     1944.139        1.143        0.310      120.779       27.927        0.053      333.883        3.488      868.216
01/06/2014  13:23:00       20.429       56.216       72.356       53.227       47.277       49.290     2833.097     2235.093     2429.495        0.815        0.375       59.813       37.243        0.388      334.085        3.824      868.183
01/06/2014  13:24:00       46.408       26.594       64.468       58.571       53.573       41.000     3430.592     2870.076     1680.972        0.750        0.399       53.488       39.771        0.553      334.127        3.894      868.173
01/06/2014  13:25:00       97.229      118.888       94.650       76.438       57.204       52.810     5842.809     3272.337     2788.866        2.222        0.595      153.583       47.405        0.095      334.038        3.744      868.155
01/06/2014  13:26:00      105.823       95.846       71.566       49.697       57.104       47.460     2469.795     3260.896     2252.461        1.674        0.399      142.776       33.680        0.056      333.853        3.438      868.133
01/06/2014  13:27:00      101.710      -28.580       45.988       73.605       78.653       49.031     5417.754     6186.297     2404.068        1.364        0.700      105.649       53.117        0.253      334.074        3.805      868.124
01/06/2014  13:28:00       83.948      -17.428       51.552       51.635      112.054       62.589     2666.128    12555.988     3917.422        1.457        0.957       85.738       73.717        0.739      334.104        3.856      868.102
01/06/2014  13:29:00       13.439       75.445      111.998       64.203       69.575       48.397     4122.046     4840.680     2342.291        1.486        0.565       76.633       53.848        0.494      334.124        3.888      868.080
01/06/2014  13:30:00       18.031       39.058       69.734       38.258       51.801       34.975     1463.690     2683.395     1223.238        0.604        0.269       43.019       25.416        0.349      334.235        4.075      868.055
01/06/2014  13:31:00       48.165       72.552       71.425       56.993       48.785       38.816     3248.214     2379.989     1506.651        0.991        0.357       87.084       24.001        0.076      334.174        3.972      868.025
01/06/2014  13:32:00       98.763      106.669       87.411       62.501       62.305       54.442     3906.437     3881.936     2963.983        1.976        0.538      145.369       47.188        0.105      333.868        3.464      867.990
01/06/2014  13:33:00      104.506       80.945       89.080       64.819       74.362       52.954     4201.535     5529.670     2804.109        1.897        0.627      132.187       48.658        0.135      333.893        3.505      867.953
01/06/2014  13:34:00       72.888      113.666       86.648       76.287       55.435       57.473     5819.766     3073.019     3303.100        1.897        0.610      135.028       48.153        0.127      334.024        3.722      867.915
01/06/2014  13:35:00       84.070       81.995       61.257       75.620       62.925       53.560     5718.362     3959.572     2868.667        1.504        0.627      117.435       52.501        0.200      334.038        3.746      867.903
01/06/2014  13:36:00       54.252       46.488       64.708       62.449       45.041       39.083     3899.933     2028.711     1527.458        0.837        0.373       71.445       39.543        0.306      334.058        3.780      867.904
01/06/2014  13:37:00       13.181       54.634       75.928       33.334       37.847       21.103     1111.158     1432.368      445.357        0.596        0.149       56.201       21.226        0.143      334.080        3.817      867.916
01/06/2014  13:38:00       98.382       27.349       35.190       75.376       41.054       32.560     5681.490     1685.445     1060.153        1.004        0.421      102.113       45.597        0.199      333.938        3.580      867.951
01/06/2014  13:39:00       33.487       70.848       71.036       49.799       58.378       42.351     2479.910     3407.934     1793.566        0.943        0.384       78.364       41.608        0.282      334.061        3.784      867.957
01/06/2014  13:40:00       86.030       52.795       57.428       41.804       41.945       37.878     1747.614     1759.372     1434.776        0.921        0.247      100.938       31.774        0.099      333.957        3.613      867.973
01/06/2014  13:41:00       52.248       18.422       35.159       52.885       38.650       29.740     2796.814     1493.840      884.471        0.474        0.259       55.401       30.764        0.308      334.102        3.854      867.985
01/06/2014  13:42:00       57.942      -73.388        9.984       46.133       29.505       27.730     2128.267      870.548      768.949        0.630        0.188       93.504       24.703        0.070      334.122        3.887      868.025
01/06/2014  13:43:00       56.172        6.132       -8.993       44.960       43.172       23.173     2021.441     1863.827      536.985        0.385        0.221       56.506       13.766        0.059      333.886        3.494      868.035
01/06/2014  13:44:00        4.185       49.727       -5.254       14.249       20.270       12.333      203.043      410.890      152.094        0.164        0.038       49.903        5.340        0.011      333.890        3.503      868.037
01/06/2014  13:45:00      -22.299       52.667       -6.420       16.673       18.419       14.543      277.990      339.260      211.506        0.207        0.041       57.193       12.090        0.045      333.877        3.482      868.066
01/06/2014  13:46:00      -31.433       18.518       13.473       28.932       19.347       14.218      837.051      374.317      202.161        0.146        0.071       36.482       13.570        0.138      334.154        3.941      868.126
01/06/2014  13:47:00      -53.291       26.254       -4.718       20.249       26.122       11.862      410.038      682.377      140.716        0.239        0.062       59.407        9.767        0.027      333.902        3.522      868.125
01/06/2014  13:48:00      -31.618       34.280      -12.601       19.111       21.275       13.300      365.226      452.640      176.900        0.166        0.050       46.635        8.751        0.035      333.951        3.604      868.082
01/06/2014  13:49:00       -0.452        4.138       11.425       13.463        9.332       13.186      181.254       87.077      173.871        0.029        0.022        4.162       11.396        7.496      334.252        4.103      868.039
01/06/2014  13:50:00       52.785       38.053       19.711       16.413       14.589       22.258      269.377      212.847      495.439        0.280        0.049       65.072       12.578        0.037      334.017        3.712      868.018
01/06/2014  13:51:00       67.492       44.083       37.354       39.708       26.485       32.934     1576.702      701.462     1084.624        0.563        0.168       80.613       19.681        0.060      334.135        3.907      867.976
01/06/2014  13:52:00      137.868      104.682       57.673       54.323       35.665       44.030     2950.937     1271.958     1938.669        1.973        0.308      173.106       32.820        0.036      334.066        3.792      867.914
01/06/2014  13:53:00      122.817      102.128       28.307       43.741       29.105       33.131     1913.315      847.104     1097.684        1.509        0.193      159.732       22.828        0.020      334.086        3.826      867.872
01/06/2014  13:54:00       62.487       71.611       31.263       31.570       34.819       29.167      996.679     1212.356      850.692        0.653        0.153       95.041       13.725        0.021      334.135        3.908      867.869
01/06/2014  13:55:00       20.889       31.298        3.223       24.074       22.825       22.314      579.536      521.002      497.898        0.151        0.080       37.629       12.120        0.104      334.009        3.699      867.920
01/06/2014  13:56:00       -4.645       11.506        2.599        3.990        8.910        9.693       15.918       79.385       93.956        0.017        0.009       12.408        5.662        0.208      334.084        3.822      868.010
01/06/2014  13:57:00        5.642       17.820      -12.882        8.189       12.311        8.690       67.060      151.549       75.514        0.040        0.015       18.692        6.480        0.120      333.968        3.629      868.059
01/06/2014  13:58:00       22.794       24.181        0.759       19.536       15.662       17.594      381.638      245.307      309.534        0.102        0.047       33.231        8.336        0.063      333.986        3.660      868.050
01/06/2014  13:59:00       39.435       46.337       -6.906        9.880       11.485       10.545       97.616      131.914      111.195        0.205        0.017       60.846        1.783        0.001      333.984        3.656      868.011
01/06/2014  14:00:00       17.744       30.266       -5.907        9.926       11.891       11.017       98.527      141.405      121.377        0.081        0.018       35.084        3.753        0.011      334.030        3.732      868.001
01/06/2014  14:01:00        0.999        3.703       12.004       13.203        7.161        9.201      174.326       51.285       84.663        0.023        0.016        3.835        5.243        1.869      334.240        4.084      868.024
01/06/2014  14:02:00        6.997        5.708       17.909       10.808       10.930        7.711      116.812      119.470       59.460        0.035        0.015        9.030        8.590        0.905      334.293        4.169      868.048
01/06/2014  14:03:00       39.602       28.014        9.170       14.072       13.603       12.232      198.024      185.047      149.621        0.148        0.027       48.509        6.420        0.018      334.006        3.695      868.020
01/06/2014  14:04:00       46.939       65.880       -1.165       22.758       20.882       18.503      517.933      436.067      342.348        0.392        0.065       80.891       12.877        0.025      334.044        3.758      867.967
01/06/2014  14:05:00       45.782       50.070        4.202       16.137       10.989       19.464      260.414      120.766      378.839        0.269        0.038       67.845        8.208        0.015      334.066        3.794      867.934
01/06/2014  14:06:00       24.724       59.391       -7.276       10.082       20.153        9.482      101.637      406.161       89.912        0.239        0.030       64.332        5.304        0.007      333.995        3.679      867.946
01/06/2014  14:07:00        3.376       19.147        4.471        9.617       14.915       10.907       92.495      222.460      118.973        0.042        0.022       19.442        8.525        0.192      334.186        3.992      867.979
01/06/2014  14:08:00        9.169       50.745       -5.602       16.887       19.143       13.258      285.185      366.471      175.780        0.176        0.041       51.566        9.899        0.037      334.106        3.860      867.992
01/06/2014  14:09:00       25.512       71.688       -4.006       21.540       26.805       21.238      463.961      718.499      451.065        0.372        0.082       76.092       17.561        0.053      334.146        3.927      867.966
01/06/2014  14:10:00       49.050       30.204        6.438       26.612       19.922       19.743      708.217      396.877      389.787        0.243        0.075       57.604       18.854        0.107      334.158        3.947      867.923
01/06/2014  14:11:00       55.640       52.349       -9.251       30.233       23.369       17.490      914.061      546.098      305.914        0.384        0.088       76.395       10.664        0.019      334.151        3.933      867.898
01/06/2014  14:12:00       10.827       27.555        5.424       26.444       16.390       14.705      699.280      268.631      216.242        0.104        0.059       29.605       11.085        0.140      334.212        4.038      867.895
01/06/2014  14:13:00      -26.351       23.355        6.764       16.749       16.928       12.154      280.530      286.569      147.710        0.100        0.036       35.212       12.864        0.133      334.170        3.967      867.906
01/06/2014  14:14:00       61.073       45.625       22.248       21.166       19.305       17.781      448.008      372.702      316.153        0.372        0.057       76.233       13.251        0.030      334.207        4.028      867.903
01/06/2014  14:15:00       93.341       64.402       38.459       33.997       25.178       26.522     1155.786      633.946      703.430        0.842        0.125      113.403       19.347        0.029      334.233        4.071      867.874
01/06/2014  14:16:00      113.751       77.796        7.526       22.377       22.844       24.090      500.721      521.869      580.328        1.033        0.080      137.810       12.957        0.009      334.101        3.852      867.859
01/06/2014  14:17:00      119.132       62.657       -7.584       36.307       33.759       32.311     1318.190     1139.672     1044.011        1.084        0.175      134.604       17.808        0.018      334.095        3.840      867.854
01/06/2014  14:18:00       56.012       40.378        1.017       31.755       24.907       24.360     1008.408      620.379      593.413        0.350        0.111       69.049       24.400        0.125      334.092        3.835      867.856
01/06/2014  14:19:00       38.057       36.993        9.388       15.032       15.295       15.327      225.954      233.939      234.931        0.180        0.035       53.074        4.635        0.008      334.144        3.922      867.845
01/06/2014  14:20:00       71.842       49.836       23.480       27.753       20.004       20.867      770.223      400.161      435.426        0.490        0.080       87.435       12.217        0.020      334.204        4.024      867.835
01/06/2014  14:21:00       25.152       50.961       39.514       24.454       24.578       17.382      598.016      604.067      302.126        0.315        0.075       56.830       13.898        0.060      334.297        4.176      867.807
01/06/2014  14:22:00       57.982       56.637       42.044       36.791       32.304       33.260     1353.609     1043.554     1106.254        0.592        0.175       81.054       25.228        0.097      334.300        4.184      867.790
01/06/2014  14:23:00       21.637       54.538       62.719       32.714       29.048       21.930     1070.201      843.812      480.944        0.489        0.120       58.673       16.099        0.075      334.249        4.098      867.787
01/06/2014  14:24:00       56.739       68.454       35.889       36.686       26.756       40.806     1345.892      715.881     1665.100        0.646        0.186       88.912       16.435        0.034      334.216        4.043      867.795
01/06/2014  14:25:00       34.479       26.270       32.081       22.197       22.799       22.192      492.713      519.793      492.482        0.221        0.075       43.347        7.725        0.032      334.271        4.135      867.808
01/06/2014  14:26:00        8.548       20.970       58.481       25.576       30.179       16.359      654.118      910.764      267.614        0.288        0.092       22.645       16.176        0.510      334.492        4.501      867.829
01/06/2014  14:27:00       34.845      -72.558       -5.405       36.104       59.107       25.421     1303.464     3493.645      646.205        0.597        0.272       80.491       24.289        0.091      334.347        4.261      867.843
01/06/2014  14:28:00       45.732      -15.919       15.512       40.845       30.008       29.632     1668.349      900.479      878.077        0.302        0.172       48.423       29.002        0.359      334.422        4.385      867.820
01/06/2014  14:29:00       60.783        5.024       18.858       31.224       21.561       25.434      974.939      464.890      646.873        0.308        0.104       60.990       18.597        0.093      334.359        4.279      867.783
01/06/2014  14:30:00       45.972       55.180       40.080       23.228       23.491       20.247      539.521      551.841      409.953        0.413        0.075       71.821        8.380        0.014      334.401        4.350      867.734
01/06/2014  14:31:00       95.533       69.426       31.240       22.755       21.025       23.926      517.781      442.034      572.440        0.823        0.077      118.095        8.468        0.005      334.225        4.056      867.706
01/06/2014  14:32:00       60.153       46.609       33.814       33.274       16.660       22.995     1107.148      277.551      528.755        0.442        0.096       76.097       20.855        0.075      334.204        4.022      867.699
01/06/2014  14:33:00       27.945       29.872       44.915       33.242       34.825       21.899     1105.045     1212.776      479.562        0.324        0.140       40.905       19.040        0.217      334.359        4.281      867.679
01/06/2014  14:34:00       16.008       16.778       31.871       27.637       35.532       13.647      763.816     1262.506      186.252        0.188        0.111       23.189        6.857        0.087      334.466        4.458      867.665
01/06/2014  14:35:00        2.934      -33.454        8.939       25.651       37.538       23.637      657.970     1409.136      558.708        0.192        0.131       33.583       18.995        0.320      334.453        4.437      867.668
01/06/2014  14:36:00       62.323      -90.014      -12.365       28.782       41.233       20.506      828.396     1700.163      420.497        0.754        0.147      109.484       13.730        0.016      334.281        4.150      867.700
01/06/2014  14:37:00       99.722      -56.941       -0.214       29.072       36.575       27.811      845.175     1337.715      773.424        0.807        0.148      114.833       26.029        0.051      334.327        4.226      867.706
01/06/2014  14:38:00       16.661       27.045       54.946       32.655       33.770       25.702     1066.317     1140.445      660.617        0.345        0.143       31.765       26.418        0.692      334.432        4.401      867.678
01/06/2014  14:39:00       15.282        6.151       37.913       28.974       41.726       29.037      839.510     1741.076      843.152        0.257        0.171       16.473       29.215        3.145      334.522        4.551      867.636
01/06/2014  14:40:00       14.717       34.342       60.451       28.299       26.265       20.040      800.816      689.835      401.609        0.347        0.095       37.363       16.816        0.203      334.494        4.504      867.632
01/06/2014  14:41:00       28.058       31.237       27.155       26.121       24.013       19.161      682.300      576.617      367.148        0.206        0.081       41.988       11.541        0.076      334.436        4.409      867.652
01/06/2014  14:42:00       11.217        6.289       22.043       17.088       33.346       15.197      291.987     1111.975      230.958        0.114        0.082       12.860       13.778        1.148      334.536        4.573      867.676
01/06/2014  14:43:00        5.410       -9.731       15.919       15.319       22.226       11.088      234.679      493.981      122.935        0.061        0.043       11.134        8.116        0.531      334.596        4.672      867.684
01/06/2014  14:44:00       13.293       29.425       30.400       16.147       24.650       18.084      260.719      607.641      327.042        0.158        0.060       32.288       13.246        0.168      334.557        4.607      867.668
01/06/2014  14:45:00       -3.725       31.140       53.122       14.956       31.668       28.000      223.691     1002.835      784.015        0.291        0.101       31.362       23.596        0.566      334.589        4.660      867.643
01/06/2014  14:46:00       89.597       79.325       51.936       51.373       24.273       35.078     2639.224      589.200     1230.494        1.074        0.223      119.667       35.876        0.090      334.327        4.227      867.630
01/06/2014  14:47:00       51.717       26.212       19.977       35.322       24.300       27.366     1247.658      590.492      748.872        0.317        0.129       57.980       18.891        0.106      334.382        4.319      867.637
01/06/2014  14:48:00       11.799       56.096       62.534       28.561       32.484       31.816      815.752     1055.211     1012.238        0.504        0.144       57.323       24.653        0.185      334.489        4.495      867.665
01/06/2014  14:49:00       31.177       41.226       29.930       16.129       11.765       13.502      260.135      138.422      182.294        0.207        0.029       51.687        9.856        0.036      334.342        4.253      867.684
01/06/2014  14:50:00       49.136       58.261       -3.512       29.822       22.521       22.400      889.359      507.178      501.762        0.386        0.095       76.215       14.661        0.037      334.339        4.247      867.673
01/06/2014  14:51:00       43.914       57.704       55.681       50.538       34.150       31.681     2554.106     1166.232     1003.667        0.654        0.236       72.513       29.876        0.170      334.427        4.393      867.668
01/06/2014  14:52:00       20.550       52.311       68.117       28.773       32.589       21.753      827.857     1062.067      473.186        0.508        0.118       56.203       22.928        0.166      334.445        4.422      867.703
01/06/2014  14:53:00       72.901       66.739       44.457       36.812       21.745       26.238     1355.091      472.860      688.410        0.713        0.126       98.837       25.564        0.067      334.347        4.261      867.728
01/06/2014  14:54:00       93.290       65.120       34.791       28.020       21.039       25.228      785.119      442.621      636.475        0.801        0.093      113.771       20.206        0.032      334.318        4.213      867.711
01/06/2014  14:55:00      103.581       75.697       37.791       39.332       26.425       29.677     1547.015      698.302      880.729        1.051        0.156      128.292       17.149        0.018      334.385        4.322      867.657
01/06/2014  14:56:00      116.884       80.394       27.930       34.434       21.025       27.112     1185.668      442.047      735.055        1.163        0.118      141.863       18.559        0.017      334.347        4.260      867.581
01/06/2014  14:57:00      126.244       83.412       35.308       36.495       21.514       31.943     1331.889      462.841     1020.375        1.348        0.141      151.312       23.958        0.025      334.352        4.266      867.512
01/06/2014  14:58:00       45.904       55.505       50.671       47.385       38.178       37.734     2245.374     1457.534     1423.839        0.644        0.256       72.028       35.291        0.240      334.397        4.344      867.495
01/06/2014  14:59:00       64.648       23.731        7.869       37.246       23.183       18.928     1387.272      537.455      358.265        0.354        0.114       68.866       13.932        0.041      334.389        4.330      867.537
01/06/2014  15:00:00       35.706       15.876       21.683       32.054       22.876       24.341     1027.459      523.289      592.477        0.207        0.107       39.077       11.726        0.090      334.456        4.441      867.575
01/06/2014  15:01:00       90.960       37.881       -6.723       27.639       23.713       20.666      763.931      562.305      427.070        0.575        0.088       98.532       15.984        0.026      334.343        4.254      867.584
01/06/2014  15:02:00      124.463       85.918        1.486       26.009       27.548       26.204      676.452      758.872      686.663        1.250        0.106      151.238       10.679        0.005      334.356        4.275      867.576
01/06/2014  15:03:00      109.269       70.688        5.765       29.643       28.004       28.445      878.706      784.211      809.113        0.972        0.124      130.140       17.649        0.018      334.314        4.205      867.562
01/06/2014  15:04:00      104.632       57.052       18.377       28.973       21.266       22.403      839.416      452.248      501.895        0.817        0.090      119.175        9.027        0.006      334.364        4.289      867.550
01/06/2014  15:05:00       88.799       58.234       21.130       26.350       16.461       26.092      694.337      270.979      680.785        0.668        0.082      106.191        7.168        0.005      334.307        4.194      867.526
01/06/2014  15:06:00       85.282       60.501       20.385       24.317       25.196       21.680      591.325      634.863      470.033        0.652        0.085      104.563        7.627        0.005      334.308        4.195      867.512
01/06/2014  15:07:00       36.437      -13.216        6.746       34.402       54.969       25.044     1183.498     3021.584      627.205        0.319        0.242       38.760       22.521        0.338      334.436        4.408      867.520
01/06/2014  15:08:00       39.178      -38.018        6.294       28.686       35.367       21.069      822.893     1250.854      443.898        0.277        0.126       54.592       19.451        0.127      334.477        4.476      867.545
01/06/2014  15:09:00       52.055       17.954       36.147       28.808       22.300       18.496      829.913      497.287      342.092        0.300        0.083       55.064       11.534        0.044      334.458        4.446      867.551
01/06/2014  15:10:00       12.712       22.207       28.402       17.786       16.826       16.633      316.350      283.114      276.657        0.117        0.044       25.588       12.096        0.223      334.561        4.615      867.539
01/06/2014  15:11:00       66.648       14.850       43.197       30.322       22.771       21.602      919.431      518.538      466.664        0.422        0.095       68.282       17.001        0.062      334.430        4.398      867.519
01/06/2014  15:12:00       58.610       36.714       18.920       31.207       25.106       19.267      973.883      630.304      371.220        0.356        0.099       69.160       15.106        0.048      334.448        4.427      867.495
01/06/2014  15:13:00       98.260       46.794       16.238       27.384       28.807       27.015      749.901      829.871      729.786        0.721        0.115      108.833       12.147        0.012      334.388        4.330      867.473
01/06/2014  15:14:00       86.817       40.769        9.840       42.263       28.566       30.254     1786.182      816.040      915.287        0.641        0.176       95.913       24.655        0.066      334.362        4.286      867.454
01/06/2014  15:15:00       39.143       54.266       40.642       34.684       26.483       20.539     1202.969      701.340      421.848        0.423        0.116       66.910       11.146        0.028      334.443        4.420      867.472
01/06/2014  15:16:00       81.096       63.622       43.621       42.519       18.682       24.846     1807.882      349.016      617.317        0.765        0.139      103.075       12.446        0.015      334.434        4.406      867.498
01/06/2014  15:17:00       88.369       42.580       20.008       21.288       13.657       18.052      453.194      186.524      325.873        0.549        0.048       98.092       11.927        0.015      334.339        4.249      867.504
01/06/2014  15:18:00       62.950       52.927       12.412       14.797       15.487       12.825      218.942      239.848      164.471        0.377        0.031       82.243        5.164        0.004      334.333        4.235      867.482
01/06/2014  15:19:00       65.865       50.449       11.527       16.128       19.733       19.543      260.123      389.410      381.936        0.402        0.052       82.966       10.134        0.015      334.416        4.375      867.440
01/06/2014  15:20:00      127.522       74.966        7.025       28.893       25.022       23.903      834.778      626.079      571.350        1.198        0.102      147.924       16.760        0.013      334.419        4.382      867.408
01/06/2014  15:21:00       86.886       60.103       -1.273       45.942       35.605       25.423     2110.667     1267.711      646.338        0.759        0.201      105.648       16.904        0.026      334.406        4.358      867.377
01/06/2014  15:22:00       88.975       43.234        6.836       36.483       30.099       23.584     1331.040      905.962      556.197        0.631        0.140       98.923        7.136        0.005      334.507        4.525      867.348
01/06/2014  15:23:00      101.765       58.178        7.546       34.857       22.899       28.681     1214.990      524.345      822.580        0.818        0.128      117.222       10.238        0.008      334.449        4.429      867.358
01/06/2014  15:24:00       72.952       22.799       13.789       34.201       22.351       21.111     1169.675      499.587      445.659        0.407        0.106       76.432       12.409        0.026      334.464        4.455      867.399
01/06/2014  15:25:00       33.796       18.604       18.118       45.834       30.738       21.569     2100.736      944.810      465.227        0.266        0.176       38.579       24.629        0.408      334.573        4.636      867.460
01/06/2014  15:26:00        4.940       -0.043       40.182       20.580       25.009       15.072      423.527      625.453      227.176        0.146        0.064        4.940       10.030        4.122      334.726        4.888      867.504
01/06/2014  15:27:00       23.346       29.048       32.660       26.415       22.877       22.364      697.758      523.378      500.152        0.209        0.086       37.267       13.267        0.127      334.625        4.721      867.518
01/06/2014  15:28:00       59.062       19.574        6.888       25.884       24.082       21.916      669.966      579.963      480.317        0.282        0.087       62.221        9.207        0.022      334.504        4.520      867.485
01/06/2014  15:29:00       63.357       59.684        6.507       25.732       24.574       25.364      662.114      603.863      643.341        0.476        0.095       87.042       17.179        0.039      334.487        4.491      867.453
01/06/2014  15:30:00       38.635       31.096       13.544       25.278       20.479       18.479      638.958      419.377      341.482        0.202        0.070       49.594       15.244        0.094      334.489        4.496      867.454
01/06/2014  15:31:00       50.081       37.309        6.387       24.928       18.020       16.656      621.413      324.710      277.433        0.258        0.061       62.450       12.479        0.040      334.485        4.489      867.473
01/06/2014  15:32:00       28.820       83.709       -7.059       23.235       27.766       19.946      539.849      770.967      397.836        0.480        0.085       88.532       19.122        0.047      334.442        4.416      867.455
01/06/2014  15:33:00       51.590      115.405      -16.201       24.620       33.936       25.596      606.134     1151.658      655.179        0.933        0.121      126.412       20.815        0.027      334.436        4.408      867.391
01/06/2014  15:34:00       38.508       70.137       -2.220       39.900       45.361       32.250     1591.994     2057.592     1040.086        0.555        0.234       80.013       30.839        0.149      334.431        4.400      867.335
01/06/2014  15:35:00       66.294       48.635        0.756       28.671       22.684       19.118      822.023      514.551      365.509        0.423        0.085       82.221       11.079        0.018      334.413        4.371      867.339
01/06/2014  15:36:00       56.991       47.417        7.648       20.554       18.087       20.980      422.452      327.157      440.179        0.337        0.059       74.137       11.842        0.026      334.397        4.344      867.353
01/06/2014  15:37:00       17.048       65.999       -1.885       16.945       16.207       17.324      287.129      262.653      300.130        0.275        0.042       68.165       10.478        0.024      334.404        4.355      867.319
01/06/2014  15:38:00       44.876       61.340       -5.142       32.715       25.646       19.531     1070.269      657.732      381.467        0.396        0.105       76.003       10.937        0.021      334.439        4.413      867.271
01/06/2014  15:39:00       49.734       44.053       -0.684       30.010       39.352       29.052      900.626     1548.559      844.007        0.385        0.165       66.439       23.563        0.126      334.465        4.456      867.259
01/06/2014  15:40:00       38.790       33.204       -3.609       22.898       22.075       16.864      524.341      487.325      284.398        0.196        0.065       51.060       15.458        0.092      334.407        4.360      867.296
01/06/2014  15:41:00       28.853       45.645        1.819       13.879       23.031       15.273      192.640      530.412      233.252        0.194        0.048       54.000       13.387        0.061      334.410        4.366      867.333
01/06/2014  15:42:00       24.057       79.281      -12.608       12.784       14.783       11.582      163.443      218.545      134.134        0.377        0.026       82.851        7.586        0.008      334.380        4.317      867.335
01/06/2014  15:43:00        4.669       98.068      -15.832       10.711       23.986        9.593      114.716      575.336       92.024        0.534        0.039       98.179       11.710        0.014      334.393        4.339      867.325
01/06/2014  15:44:00       -2.705       79.950      -13.314       12.345       21.552        7.883      152.407      464.486       62.146        0.363        0.034       79.996        4.698        0.003      334.416        4.375      867.340
01/06/2014  15:45:00        0.958       39.644        4.020       19.674       26.130       15.111      387.072      682.785      228.356        0.144        0.065       39.656       15.814        0.159      334.482        4.484      867.350
01/06/2014  15:46:00        9.481       60.342        7.153       18.507       32.634       16.273      342.518     1064.993      264.812        0.273        0.084       61.083       16.913        0.077      334.451        4.431      867.320
01/06/2014  15:47:00       16.772       91.555      -11.799       23.966       24.230       16.351      574.387      587.107      267.342        0.512        0.071       93.078       14.891        0.026      334.424        4.386      867.257
01/06/2014  15:48:00       29.246       51.370        5.085       30.499       33.002       25.959      930.186     1089.156      673.850        0.311        0.135       59.112       20.681        0.122      334.455        4.440      867.217
01/06/2014  15:49:00       27.110       28.096       -1.717       29.731       24.351       17.372      883.920      592.957      301.792        0.165        0.089       39.043       13.622        0.122      334.445        4.421      867.235
01/06/2014  15:50:00        8.694       15.904       -1.639        8.166       12.110       10.630       66.679      146.657      112.992        0.033        0.016       18.125        6.313        0.121      334.422        4.386      867.278
01/06/2014  15:51:00       17.220       12.663        4.853       11.946        8.367        8.064      142.702       70.013       65.028        0.038        0.014       21.375        4.414        0.043      334.440        4.414      867.298
01/06/2014  15:52:00       58.473       45.242        7.211       17.608       17.094        8.661      310.048      292.220       75.011        0.310        0.034       73.932        3.353        0.002      334.395        4.340      867.275
01/06/2014  15:53:00       47.161       56.439       -4.733       20.758       17.214       15.854      430.883      296.307      251.362        0.321        0.049       73.550       12.402        0.028      334.393        4.337      867.251
01/06/2014  15:54:00       11.077       29.812       -9.842       14.046       11.744        6.790      197.281      137.931       46.105        0.074        0.019       31.804        5.003        0.025      334.402        4.348      867.258
01/06/2014  15:55:00       -1.254        2.756        0.696        5.186        4.794        4.580       26.896       22.979       20.976        0.004        0.004        3.028        3.887        1.648      334.454        4.438      867.268
01/06/2014  15:56:00       -2.639       14.072       -1.022        5.138        7.750        7.052       26.396       60.065       49.735        0.017        0.007       14.318        4.398        0.094      334.422        4.386      867.259
01/06/2014  15:57:00       29.754       11.339       14.345       22.376       16.082       10.693      500.702      258.620      114.351        0.105        0.044       31.842       10.391        0.106      334.519        4.547      867.218
01/06/2014  15:58:00       30.970       30.877       -9.701       25.375       16.209       13.563      643.902      262.740      183.960        0.155        0.055       43.732        7.614        0.030      334.443        4.420      867.207
01/06/2014  15:59:00       23.570       22.773        1.072       20.244       16.707       14.710      409.818      279.139      216.380        0.099        0.045       32.774        9.953        0.092      334.459        4.447      867.240
01/06/2014  16:00:00       30.465       30.806       26.998       25.068       15.281       13.218      628.391      233.499      174.724        0.182        0.052       43.326       10.160        0.055      334.478        4.477      867.272
01/06/2014  16:01:00       46.133       31.465       15.998       26.574       17.305       12.313      706.194      299.479      151.621        0.227        0.058       55.842        7.263        0.017      334.460        4.447      867.271
01/06/2014  16:02:00       38.172       26.992       -5.490       34.579       17.350       15.037     1195.675      301.019      226.123        0.197        0.086       46.751       13.762        0.087      334.431        4.402      867.270
01/06/2014  16:03:00       29.931       10.687       -0.524       15.655       13.195       11.258      245.072      174.114      126.750        0.078        0.027       31.782       10.185        0.103      334.481        4.483      867.301
01/06/2014  16:04:00      -16.553        0.405       -3.567       37.597       17.171       10.999     1413.509      294.828      120.975        0.106        0.091       16.558        6.071        0.134      334.431        4.400      867.349
01/06/2014  16:05:00      -54.162      -14.833        1.852       16.414       21.175       16.322      269.431      448.391      266.405        0.207        0.049       56.156       10.989        0.038      334.428        4.394      867.357
01/06/2014  16:06:00      -51.024      -25.896        3.503       28.051       15.774       11.485      786.853      248.816      131.903        0.223        0.058       57.219       12.563        0.048      334.417        4.377      867.312
01/06/2014  16:07:00       -7.756       11.994        4.800       11.388       13.106       11.194      129.678      171.757      125.300        0.033        0.021       14.283        8.094        0.321      334.466        4.457      867.252
01/06/2014  16:08:00       -2.529       22.337       34.502       15.064       23.820       26.209      226.917      567.370      686.899        0.159        0.074       22.480       11.922        0.281      334.522        4.550      867.211
01/06/2014  16:09:00       31.730      -11.381       25.757       31.156       37.239       35.035      970.714     1386.709     1227.468        0.269        0.179       33.710       23.879        0.502      334.570        4.629      867.206
01/06/2014  16:10:00       39.910      -54.064       -0.227       29.026       33.287       25.240      842.531     1107.999      637.073        0.355        0.129       67.200       24.285        0.131      334.610        4.697      867.235
01/06/2014  16:11:00        7.164      -53.889        1.770       20.847       30.615       18.151      434.595      937.255      329.452        0.233        0.085       54.363       13.670        0.063      334.720        4.878      867.275
01/06/2014  16:12:00        0.777       10.719       26.878       12.576       14.878       14.044      158.156      221.362      197.229        0.071        0.029       10.747       10.867        1.022      334.677        4.806      867.298
01/06/2014  16:13:00       -5.365       22.047       32.794       11.528       22.733       16.626      132.896      516.806      276.429        0.126        0.046       22.690       12.295        0.294      334.647        4.758      867.296
01/06/2014  16:14:00       11.669       31.477       28.008       16.832       20.210       13.714      283.308      408.439      188.060        0.140        0.044       33.570        6.270        0.035      334.560        4.614      867.315
01/06/2014  16:15:00       -0.716      -17.651       13.055       14.072       29.407       12.339      198.011      864.767      152.261        0.085        0.061       17.665       15.955        0.816      334.597        4.674      867.350
01/06/2014  16:16:00       12.757        3.724       18.680       13.599       30.733       18.544      184.935      944.496      343.894        0.100        0.074       13.289       22.833        2.952      334.568        4.626      867.368
01/06/2014  16:17:00       25.899       29.196       13.771       28.363       12.922       17.085      804.451      166.971      291.902        0.149        0.063       39.028       10.685        0.075      334.465        4.456      867.355
01/06/2014  16:18:00      -11.649       59.113       -7.583       20.156       27.518       16.870      406.278      757.252      284.595        0.257        0.072       60.250        5.156        0.007      334.433        4.403      867.354
01/06/2014  16:19:00      -30.337       31.048       -1.427       33.220       21.272       24.823     1103.601      452.519      616.185        0.203        0.109       43.409       14.775        0.116      334.453        4.435      867.411
01/06/2014  16:20:00      -64.227      -15.363       -4.076       29.789       23.528       16.516      887.399      553.554      272.764        0.305        0.086       66.039       15.009        0.052      334.503        4.520      867.489
01/06/2014  16:21:00      -41.355      -44.495        8.949       41.166       26.960       20.039     1694.614      726.829      401.576        0.330        0.141       60.746       16.763        0.076      334.548        4.594      867.498
01/06/2014  16:22:00      -61.841      -64.396       -1.906       21.173       21.985       14.595      448.287      483.320      213.027        0.456        0.057       89.281       13.349        0.022      334.504        4.520      867.460
01/06/2014  16:23:00      -61.411      -62.174       -6.492       22.868       13.337       11.510      522.968      177.882      132.472        0.426        0.042       87.390        6.072        0.005      334.529        4.560      867.415
01/06/2014  16:24:00     -112.715      -71.235       -8.772       40.456       22.816       19.513     1636.653      520.582      380.751        1.020        0.127      133.339       17.616        0.017      334.479        4.478      867.421
01/06/2014  16:25:00      -68.392      -55.193        3.679       44.134       35.864       16.717     1947.806     1286.224      279.459        0.562        0.176       87.885       18.266        0.043      334.517        4.541      867.431
01/06/2014  16:26:00      -35.069      -27.998       -0.915       18.279       20.576       12.466      334.112      423.357      155.410        0.146        0.046       44.875        4.756        0.011      334.537        4.575      867.382
01/06/2014  16:27:00      -13.535       -6.640        9.193       14.378       13.493       10.213      206.734      182.051      104.310        0.040        0.025       15.076        5.189        0.118      334.494        4.504      867.305
01/06/2014  16:28:00      -13.855      -25.893       -2.233       13.932        9.872        7.076      194.111       97.466       50.072        0.060        0.017       29.367        5.088        0.030      334.475        4.473      867.284
01/06/2014  16:29:00      -14.072      -27.480       10.671       27.923       23.438       19.849      779.688      549.335      393.994        0.139        0.086       30.873       12.669        0.168      334.591        4.664      867.342
01/06/2014  16:30:00      -24.265      -44.143        3.582       30.397       25.803       19.386      923.958      665.790      375.819        0.226        0.098       50.372       18.549        0.136      334.568        4.626      867.383
01/06/2014  16:31:00      -83.268      -17.700       -3.977       21.899       19.361       15.096      479.580      374.865      227.884        0.417        0.054       85.128       13.726        0.026      334.489        4.496      867.347
01/06/2014  16:32:00      -88.793       28.585       -0.525       32.687       24.857       16.828     1068.459      617.866      283.174        0.534        0.098       93.280       10.970        0.014      334.662        4.784      867.287
01/06/2014  16:33:00     -133.363       -7.048      -12.323       32.457       31.621       18.219     1053.474      999.902      331.940        1.019        0.119      133.549       19.367        0.021      334.398        4.343      867.299
01/06/2014  16:34:00     -102.511      -80.576       -2.899       32.956       30.865       24.127     1086.119      952.619      582.121        0.981        0.131      130.388       15.693        0.014      334.431        4.400      867.334
01/06/2014  16:35:00      -72.938      -68.531       12.521       53.841       29.560       27.240     2898.839      873.788      742.037        0.734        0.226      100.083       29.501        0.087      334.467        4.460      867.323
01/06/2014  16:36:00      -82.956      -52.290       -7.713       27.126       24.791       12.201      735.824      614.594      148.870        0.559        0.075       98.061        7.912        0.007      334.423        4.386      867.266
01/06/2014  16:37:00      -78.069      -29.896       -5.526       15.279       17.912       12.605      233.454      320.825      158.875        0.387        0.036       83.598        5.803        0.005      334.401        4.348      867.206
01/06/2014  16:38:00      -77.549      -29.637       -8.294        7.983        8.573        6.647       63.726       73.495       44.185        0.357        0.009       83.019        3.725        0.002      334.415        4.370      867.204
01/06/2014  16:39:00      -52.975      -61.828       -7.899       17.092       23.150       10.457      292.140      535.927      109.340        0.381        0.047       81.419        8.228        0.010      334.429        4.396      867.240
01/06/2014  16:40:00      -63.389      -45.894       -5.369       15.067       14.935       10.414      227.022      223.045      108.445        0.336        0.028       78.259        8.566        0.012      334.407        4.358      867.248
01/06/2014  16:41:00      -34.118      -18.033        3.828       22.051       16.177       13.861      486.240      261.697      192.135        0.122        0.047       38.591       13.249        0.118      334.450        4.431      867.224
01/06/2014  16:42:00      -51.855      -15.827      -13.647       11.482       14.928        7.869      131.839      222.846       61.925        0.177        0.021       54.216        3.766        0.005      334.405        4.357      867.171
01/06/2014  16:43:00      -25.317      -44.447       -8.252       22.276       15.262       10.645      496.213      232.943      113.321        0.176        0.042       51.151        4.962        0.009      334.513        4.533      867.185
01/06/2014  16:44:00      -25.123      -51.962       11.526       52.717       34.221       25.524     2779.043     1171.062      651.465        0.403        0.230       57.716       29.527        0.262      334.536        4.574      867.241
01/06/2014  16:45:00     -104.130      -76.904       -5.987       18.079       25.281       15.945      326.858      639.122      254.246        0.901        0.061      129.450       12.288        0.009      334.416        4.376      867.247
01/06/2014  16:46:00      -79.208      -39.270       -3.549       17.889       23.118       11.152      320.025      534.434      124.367        0.440        0.049       88.409        6.582        0.006      334.427        4.391      867.196
01/06/2014  16:47:00      -80.463      -37.356       -1.726       30.374       25.964       17.660      922.571      674.115      311.879        0.489        0.095       88.712       19.692        0.049      334.429        4.396      867.165
01/06/2014  16:48:00      -62.685      -40.713        1.830       42.732       29.191       20.371     1826.007      852.126      414.992        0.434        0.155       74.746       23.818        0.102      334.470        4.464      867.184
01/06/2014  16:49:00      -31.206      -24.396        7.994       31.550       15.852       19.283      995.425      251.279      371.846        0.163        0.081       39.610       19.893        0.252      334.482        4.483      867.191
01/06/2014  16:50:00      -17.289       -5.987        7.653       18.014       13.784       11.158      324.495      189.996      124.499        0.052        0.032       18.296        8.898        0.236      334.454        4.437      867.171
01/06/2014  16:51:00      -37.186       -8.794       -1.487       18.622       10.434       10.641      346.794      108.863      113.231        0.102        0.028       38.212        9.111        0.057      334.431        4.401      867.152
01/06/2014  16:52:00      -46.292      -22.173       -6.737       17.236       16.507       11.391      297.081      272.490      129.763        0.169        0.035       51.328       11.701        0.052      334.456        4.439      867.153
01/06/2014  16:53:00      -27.588       10.814        2.620       16.500       13.512        9.199      272.252      182.580       84.620        0.071        0.027       29.632        8.872        0.090      334.421        4.382      867.141
01/06/2014  16:54:00      -10.739        7.544       11.405       18.828       12.033       11.199      354.476      144.785      125.423        0.046        0.031       13.124       12.441        0.899      334.419        4.380      867.127
01/06/2014  16:55:00        2.618       37.039       -7.250       16.536       21.143       11.551      273.435      447.030      133.430        0.114        0.043       37.132       12.499        0.113      334.386        4.326      867.144
01/06/2014  16:56:00      -47.068       44.466        2.211       25.787       24.748       18.399      664.973      612.450      338.536        0.291        0.081       64.750       11.110        0.029      334.564        4.620      867.191
01/06/2014  16:57:00      -49.286       36.563        8.796       19.288       20.651       17.701      372.036      426.453      313.339        0.248        0.056       61.367        8.973        0.021      334.660        4.780      867.204
01/06/2014  16:58:00      -59.421       22.586       -1.727       26.831       16.003       14.830      719.916      256.109      219.938        0.262        0.060       63.568       11.289        0.032      334.478        4.476      867.177
01/06/2014  16:59:00      -54.103        9.251        3.126       18.639       15.959       13.253      347.400      254.681      175.632        0.190        0.039       54.888       12.591        0.053      334.504        4.521      867.146
01/06/2014  17:00:00      -44.870       19.118       -7.905       11.175       14.612        7.756      124.886      213.509       60.155        0.142        0.020       48.773        6.242        0.016      334.399        4.345      867.128
01/06/2014  17:01:00      -37.696        6.103       -1.559       10.957        9.025        8.558      120.059       81.445       73.243        0.087        0.014       38.187        4.889        0.016      334.414        4.372      867.107
01/06/2014  17:02:00      -48.459       12.067       -5.322       19.907       13.972        7.059      396.279      195.229       49.828        0.158        0.032       49.939        8.287        0.028      334.431        4.397      867.093
01/06/2014  17:03:00      -51.121       -5.476       -7.177       13.296       10.740       11.601      176.781      115.342      134.592        0.156        0.021       51.413        8.682        0.029      334.353        4.270      867.068
01/06/2014  17:04:00      -74.861        9.624       -6.161       11.121        8.193        6.494      123.676       67.123       42.168        0.298        0.012       75.477        2.412        0.001      334.342        4.250      867.059
01/06/2014  17:05:00      -50.192        6.079       -3.943       12.257       11.514        8.693      150.235      132.580       75.576        0.147        0.018       50.559        6.908        0.019      334.367        4.295      867.065
01/06/2014  17:06:00      -35.270        2.115       -4.474       14.434        4.503        5.086      208.349       20.275       25.863        0.076        0.013       35.333        5.249        0.022      334.356        4.280      867.067
01/06/2014  17:07:00      -30.523        0.038       -2.964        4.774        4.182        3.515       22.789       17.491       12.358        0.050        0.003       30.523        2.286        0.006      334.360        4.287      867.068
01/06/2014  17:08:00      -31.610        7.406       -1.824        7.501        7.828        3.271       56.271       61.271       10.697        0.059        0.006       32.466        1.129        0.001      334.363        4.292      867.071
01/06/2014  17:09:00      -39.125        1.875       -2.272        7.043        9.540        5.895       49.605       91.019       34.755        0.086        0.009       39.170        4.312        0.012      334.347        4.261      867.075
01/06/2014  17:10:00      -26.145      -16.814       -5.154       12.609        8.811        7.205      158.996       77.633       51.909        0.064        0.014       31.085        6.456        0.043      334.317        4.213      867.081
01/06/2014  17:11:00      -27.414      -10.971        1.351        8.175       10.517        8.094       66.835      110.600       65.506        0.056        0.012       29.528        6.168        0.044      334.327        4.227      867.076
01/06/2014  17:12:00      -35.709      -18.969       -2.666        7.460        9.173        4.690       55.653       84.138       21.992        0.090        0.008       40.435        4.728        0.014      334.321        4.218      867.075
01/06/2014  17:13:00      -34.934      -18.734       -0.198       10.095       12.067        7.650      101.899      145.613       58.525        0.094        0.015       39.641        3.926        0.010      334.286        4.158      867.081
01/06/2014  17:14:00       -4.123      -15.725        5.672       16.825        9.984        7.476      283.067       99.681       55.885        0.037        0.022       16.256        8.229        0.256      334.370        4.298      867.091
01/06/2014  17:15:00      -13.822       -9.095        3.555       10.357        7.161        7.173      107.265       51.279       51.456        0.025        0.010       16.546        5.889        0.127      334.369        4.298      867.111
01/06/2014  17:16:00      -47.441      -20.770       -1.190        6.140       11.821        7.473       37.704      139.736       55.845        0.146        0.012       51.789        5.006        0.009      334.297        4.177      867.129
01/06/2014  17:17:00      -59.216      -27.082       -4.266        9.970       11.203        7.766       99.405      125.501       60.308        0.227        0.014       65.115        2.590        0.002      334.277        4.145      867.134
01/06/2014  17:18:00      -22.980      -27.089        2.788       19.310       12.581       13.257      372.886      158.277      175.740        0.099        0.035       35.523       10.226        0.083      334.329        4.230      867.152
01/06/2014  17:19:00      -10.849      -12.653        7.122       25.071        8.873        9.902      628.566       78.738       98.051        0.057        0.040       16.667       12.132        0.530      334.364        4.289      867.150
01/06/2014  17:20:00       -0.054      -24.372       11.653        5.323        9.593       10.522       28.336       92.028      110.720        0.048        0.012       24.372        4.091        0.028      334.474        4.471      867.135
01/06/2014  17:21:00        1.286       -8.672        7.349        8.350       12.301        7.335       69.717      151.323       53.795        0.020        0.014        8.767        4.735        0.292      334.404        4.355      867.122
01/06/2014  17:22:00        1.538       21.136        6.552        7.415        7.036        7.342       54.988       49.503       53.899        0.033        0.008       21.192        3.813        0.032      334.351        4.266      867.118
01/06/2014  17:23:00        2.235       29.276       17.423        7.554        9.858        9.550       57.057       97.187       91.207        0.071        0.012       29.361        5.830        0.039      334.319        4.215      867.142
01/06/2014  17:24:00       19.255       28.508       14.582       16.132        8.318       11.515      260.244       69.192      132.585        0.093        0.023       34.402        8.977        0.068      334.320        4.216      867.159
01/06/2014  17:25:00       27.080       30.700        5.870       10.328        9.471        8.294      106.665       89.693       68.797        0.099        0.013       40.937        5.276        0.017      334.291        4.170      867.155
01/06/2014  17:26:00       24.091       19.263       -0.499       11.167       13.649       12.277      124.696      186.306      150.718        0.071        0.023       30.845        9.840        0.102      334.306        4.193      867.136
01/06/2014  17:27:00       28.941       33.692        1.321       17.225       12.818       11.132      296.714      164.302      123.923        0.128        0.029       44.415        8.097        0.033      334.252        4.103      867.112
01/06/2014  17:28:00       40.749       39.694        6.113       30.802       18.971       16.645      948.748      359.890      277.055        0.243        0.079       56.886       11.290        0.039      334.282        4.152      867.083
01/06/2014  17:29:00       80.979       42.749        6.123       19.336       17.030       15.013      373.880      290.014      225.386        0.466        0.044       91.570        7.899        0.007      334.311        4.201      867.044
01/06/2014  17:30:00       91.639       47.630       23.858       25.317       17.977       19.178      640.939      323.171      367.781        0.628        0.067      103.279        9.902        0.009      334.314        4.206      867.003
01/06/2014  17:31:00       74.467       53.355       30.809       23.681       18.660       19.480      560.798      348.194      379.477        0.531        0.064       91.609       11.727        0.016      334.271        4.133      866.968
01/06/2014  17:32:00      100.959       51.049       20.061       20.311       17.644       20.530      412.551      311.325      421.469        0.717        0.057      113.132       11.623        0.011      334.264        4.124      866.946
01/06/2014  17:33:00       89.360       49.423        8.849       23.063       24.181       19.550      531.910      584.744      382.193        0.600        0.075      102.117       13.283        0.017      334.261        4.119      866.942
01/06/2014  17:34:00       76.316       47.333        9.096       24.154       19.171       19.963      583.393      367.536      398.534        0.475        0.067       89.803       15.104        0.028      334.246        4.092      866.947
01/06/2014  17:35:00       83.368       53.297       14.836       19.447       13.277       15.117      378.176      176.284      228.516        0.540        0.039       98.948       12.097        0.015      334.281        4.151      866.938
01/06/2014  17:36:00       52.502       28.461       10.338       25.717       28.079       13.334      661.381      788.431      177.803        0.265        0.081       59.720        8.314        0.019      334.260        4.116      866.939
01/06/2014  17:37:00       30.361       26.961       26.149       20.419       16.701       10.983      416.920      278.913      120.620        0.157        0.041       40.604        8.257        0.041      334.261        4.117      866.946
01/06/2014  17:38:00       40.312       26.664       23.079       12.082       10.996        8.576      145.979      120.914       73.547        0.160        0.017       48.333        4.780        0.010      334.261        4.117      866.961
01/06/2014  17:39:00       29.447       22.401       12.818       12.841        9.828       11.019      164.896       96.593      121.425        0.096        0.019       36.999        6.385        0.030      334.287        4.160      866.964
01/06/2014  17:40:00       36.858       15.303        6.868       14.779       11.947        8.976      218.419      142.721       80.563        0.104        0.022       39.909        5.960        0.022      334.253        4.104      866.950
01/06/2014  17:41:00       39.232       21.872        7.983       21.044       11.794        8.273      442.831      139.090       68.451        0.137        0.033       44.917        8.428        0.035      334.244        4.091      866.917
01/06/2014  17:42:00       37.494       25.452       10.022       17.458       11.860       10.440      304.779      140.653      108.998        0.135        0.028       45.317        7.739        0.029      334.219        4.046      866.898
01/06/2014  17:43:00       47.870       19.292        5.776       19.896       13.870       12.766      395.865      192.367      162.968        0.172        0.038       51.611        6.831        0.018      334.280        4.150      866.877
01/06/2014  17:44:00       21.105       12.865        7.622       19.723       15.449       10.373      389.007      238.675      107.593        0.070        0.037       24.717       10.664        0.186      334.297        4.176      866.889
01/06/2014  17:45:00       -3.686       -4.774       13.843        8.241        9.520        6.025       67.918       90.625       36.300        0.021        0.010        6.032        3.462        0.329      334.222        4.052      866.929
01/06/2014  17:46:00      -28.951       -4.980        7.344       19.298       10.658        9.417      372.413      113.595       88.677        0.075        0.029       29.376       11.168        0.145      333.859        3.450      866.971
01/06/2014  17:47:00      -58.180       -3.278       -2.411       22.512       16.914       12.653      506.802      286.090      160.087        0.218        0.048       58.272       10.846        0.035      333.689        3.168      867.001
01/06/2014  17:48:00     -107.218       18.883      -10.169       20.744       17.664       11.173      430.296      312.025      124.826        0.641        0.043      108.868        9.973        0.008      333.728        3.234      867.018
01/06/2014  17:49:00      -74.371        6.173       -7.468       24.553       21.199       16.142      602.836      449.411      260.551        0.347        0.066       74.627       13.226        0.031      333.677        3.149      867.059
01/06/2014  17:50:00      -49.524       -5.178       -1.456       31.366       17.019       13.571      983.843      289.644      184.184        0.197        0.073       49.794       16.007        0.103      333.731        3.237      867.091
01/06/2014  17:51:00      -64.468       10.220       -5.445       28.758       25.739       17.325      827.004      662.486      300.153        0.304        0.089       65.273       18.625        0.081      333.782        3.323      867.104
01/06/2014  17:52:00      -84.740       29.628      -12.880       23.987       19.306       20.908      575.370      372.725      437.155        0.480        0.069       89.770       15.207        0.029      333.851        3.437      867.111
01/06/2014  17:53:00     -105.074        3.862       -9.654       21.846       22.395       15.211      477.254      501.558      231.390        0.618        0.061      105.145       12.797        0.015      334.035        3.741      867.125
01/06/2014  17:54:00      -74.922       -2.747       -7.592       27.628       17.486       14.893      763.321      305.768      221.809        0.348        0.065       74.973       15.615        0.043      333.869        3.467      867.132
01/06/2014  17:55:00      -11.925       -2.868        9.105       29.762       21.150       16.018      885.773      447.320      256.569        0.091        0.079       12.265       12.944        1.114      333.881        3.487      867.116
01/06/2014  17:56:00      -19.841        8.900        6.709       29.469       13.883       17.379      868.448      192.745      302.036        0.094        0.068       21.746       18.071        0.691      333.901        3.521      867.080
01/06/2014  17:57:00      -40.486       28.737       -8.875       23.010       27.854       14.858      529.457      775.842      220.751        0.203        0.076       49.648       10.339        0.043      334.002        3.688      867.035
01/06/2014  17:58:00      -48.713       27.976       -7.270       13.835       18.425       10.461      191.411      339.481      109.435        0.192        0.032       56.175        6.229        0.012      334.008        3.699      867.013
01/06/2014  17:59:00      -20.953      -11.671       -5.167       13.562       12.421        9.138      183.929      154.292       83.498        0.051        0.021       23.985        5.984        0.062      333.801        3.354      867.006
01/06/2014  18:00:00      -41.933      -12.995       -5.419       17.392        9.541       10.594      302.470       91.025      112.228        0.123        0.025       43.900       11.590        0.070      333.726        3.229      867.025
01/06/2014  18:01:00      -64.000       -9.914      -10.178       10.048       11.206        7.473      100.966      125.574       55.844        0.229        0.014       64.763        4.801        0.005      333.643        3.093      867.069
01/06/2014  18:02:00      -88.566        3.665       -8.368       28.363       20.694       12.899      804.482      428.246      166.387        0.466        0.070       88.641       10.990        0.015      333.546        2.931      867.095
01/06/2014  18:03:00      -77.841       -0.785       -3.106       36.267       26.708       21.319     1315.293      713.299      454.479        0.428        0.124       77.845       22.589        0.084      333.513        2.876      867.101
01/06/2014  18:04:00      -56.079        0.318       -6.124       39.577       30.963       20.894     1566.342      958.703      436.546        0.307        0.148       56.080       20.484        0.133      333.525        2.896      867.081
01/06/2014  18:05:00      -50.169        8.962       -7.112       25.267       18.630       15.162      638.415      347.076      229.881        0.193        0.061       50.963       14.336        0.079      333.616        3.048      867.052
01/06/2014  18:06:00      -24.803       -0.680       -6.770       16.437       14.720        8.181      270.185      216.684       66.923        0.061        0.028       24.812        4.750        0.037      333.662        3.125      867.038
01/06/2014  18:07:00      -14.808       -4.107       -5.585       12.468        6.829        6.261      155.445       46.636       39.204        0.025        0.012       15.367        2.548        0.028      333.692        3.174      867.034
01/06/2014  18:08:00      -41.027      -14.122       -3.724        8.202        9.838        7.341       67.278       96.795       53.897        0.106        0.011       43.390        4.639        0.011      333.676        3.146      867.038
01/06/2014  18:09:00      -35.674       -8.228       -6.518        7.022        5.450        6.647       49.315       29.704       44.177        0.075        0.006       36.611        3.127        0.007      333.807        3.364      867.057
01/06/2014  18:10:00      -69.149      -31.027       -7.030       19.079       12.086        8.790      364.001      146.069       77.271        0.319        0.029       75.791        4.751        0.004      333.671        3.138      867.098
01/06/2014  18:11:00      -89.280      -15.711      -11.721       29.514       17.557       14.028      871.077      308.233      196.793        0.487        0.069       90.652        5.343        0.003      333.488        2.835      867.156
01/06/2014  18:12:00      -94.012      -19.980      -13.333       27.323       20.211       15.248      746.535      408.501      232.505        0.540        0.069       96.112        9.740        0.010      333.435        2.746      867.185
01/06/2014  18:13:00     -100.472      -11.636       -6.111       20.707       24.089       15.151      428.770      580.282      229.541        0.575        0.062      101.144       12.416        0.015      333.475        2.813      867.180
01/06/2014  18:14:00      -83.348      -11.151       -2.277       35.679       27.389       19.119     1273.016      750.146      365.549        0.473        0.119       84.091       18.144        0.047      333.521        2.890      867.172
01/06/2014  18:15:00      -85.580      -13.008       -3.142       46.917       30.368       21.655     2201.235      922.190      468.919        0.555        0.180       86.563       22.556        0.068      333.500        2.856      867.199
01/06/2014  18:16:00      -90.342      -11.024       -5.856       40.375       35.560       20.395     1630.124     1264.479      415.936        0.581        0.166       91.012       19.745        0.047      333.505        2.862      867.226
01/06/2014  18:17:00      -86.646       -8.474        0.845       39.594       26.477       20.376     1567.670      701.052      415.173        0.513        0.134       87.060       21.928        0.063      333.463        2.794      867.248
01/06/2014  18:18:00      -87.988        5.836       -0.339       27.149       14.131       14.618      737.094      199.697      213.676        0.446        0.058       88.181       13.640        0.024      333.465        2.796      867.246
01/06/2014  18:19:00      -89.389       -3.150      -13.682       20.354       16.430       12.672      414.278      269.943      160.576        0.452        0.042       89.445       10.505        0.014      333.552        2.942      867.242
01/06/2014  18:20:00     -107.340       -6.695      -14.156       13.512       10.072       10.253      182.576      101.454      105.123        0.608        0.019      107.549        7.567        0.005      333.561        2.955      867.243
01/06/2014  18:21:00     -105.874      -17.615      -16.299       12.741       10.618       12.447      162.334      112.749      154.919        0.611        0.022      107.330        5.781        0.003      333.622        3.057      867.241
01/06/2014  18:22:00     -112.857        0.756      -19.371        8.752       11.659        8.108       76.589      135.930       65.735        0.670        0.014      112.860        3.862        0.001      333.642        3.090      867.215
01/06/2014  18:23:00     -104.745       -0.880      -17.494       20.424       15.991       15.966      417.158      255.709      254.923        0.610        0.046      104.749       13.527        0.017      333.790        3.334      867.180
01/06/2014  18:24:00      -79.252       -0.348       -8.073       22.308       19.265       12.459      497.665      371.128      155.238        0.368        0.051       79.253       13.722        0.030      333.667        3.131      867.161
01/06/2014  18:25:00      -66.541        9.432       -3.340       22.219       17.354       11.376      493.674      301.160      129.423        0.273        0.046       67.206       10.062        0.022      333.628        3.065      867.165
01/06/2014  18:26:00      -65.136        1.830       -2.346       22.470       20.961       12.893      504.891      439.360      166.236        0.268        0.056       65.162       12.812        0.039      333.473        2.809      867.157
01/06/2014  18:27:00      -65.473        1.936       -6.345       23.177       19.272       12.068      537.179      371.403      145.634        0.269        0.053       65.502       11.748        0.032      333.544        2.927      867.136
01/06/2014  18:28:00      -64.818       -6.774      -16.811       14.985       16.066       11.378      224.538      258.127      129.463        0.257        0.031       65.171        6.433        0.010      333.451        2.773      867.097
01/06/2014  18:29:00      -56.241        0.695      -14.332       14.157       16.317       11.744      200.429      266.258      137.917        0.199        0.030       56.245        6.698        0.014      333.490        2.838      867.075
01/06/2014  18:30:00      -62.597        1.035      -12.001       18.486       22.701       12.453      341.726      515.348      155.066        0.254        0.051       62.606       11.741        0.035      333.570        2.970      867.081
01/06/2014  18:31:00       -0.010      -10.447       -7.470       23.830       22.480       11.388      567.859      505.351      129.690        0.068        0.060       10.447        4.878        0.218      333.501        2.857      867.075
01/06/2014  18:32:00       18.245       25.590       -2.911       10.678       15.545       15.534      114.026      241.647      241.303        0.080        0.030       31.428       10.823        0.119      333.656        3.114      867.027
01/06/2014  18:33:00       34.392       32.349       -0.985       12.849       13.681       17.369      165.090      187.175      301.682        0.144        0.033       47.215        6.259        0.018      333.615        3.046      866.972
01/06/2014  18:34:00       33.515       34.556      -13.192        6.366        8.296        6.323       40.520       68.829       39.984        0.132        0.007       48.139        2.612        0.003      333.628        3.065      866.942
01/06/2014  18:35:00       55.315       41.500       -8.505       17.529       13.765       10.866      307.282      189.482      118.062        0.273        0.031       69.152        6.806        0.010      333.578        2.984      866.929
01/06/2014  18:36:00       41.277       23.774        0.497       17.160       12.703        9.841      294.463      161.375       96.848        0.141        0.028       47.634        4.285        0.008      333.548        2.936      866.922
01/06/2014  18:37:00       35.353       28.741        0.551       11.177       10.901       12.902      124.923      118.831      166.458        0.124        0.021       45.562        8.176        0.032      333.556        2.949      866.923
01/06/2014  18:38:00       32.305       23.470       -1.558       14.956       13.267        8.429      223.677      176.003       71.052        0.103        0.024       39.931        6.233        0.024      333.514        2.879      866.905
01/06/2014  18:39:00       29.850       15.500       -7.406       16.914       15.486       11.122      286.080      239.831      123.690        0.092        0.032       33.635       11.282        0.113      333.694        3.177      866.889
01/06/2014  18:40:00       12.758        9.731       -5.017       10.706        6.206        6.814      114.617       38.513       46.430        0.024        0.010       16.045        6.240        0.151      333.728        3.233      866.879
01/06/2014  18:41:00        5.968       30.415       -5.590        9.944        7.337        5.074       98.876       53.827       25.750        0.059        0.009       30.995        2.719        0.008      333.826        3.395      866.875
01/06/2014  18:42:00       10.402        6.720        1.920       12.002       11.104        7.909      144.042      123.307       62.557        0.024        0.016       12.384        6.193        0.250      333.849        3.433      866.882
01/06/2014  18:43:00       -8.052      -11.247       -1.443        9.257        7.843       10.562       85.694       61.513      111.564        0.023        0.013       13.833        7.140        0.266      333.789        3.335      866.913
01/06/2014  18:44:00      -44.591       -6.454       -2.674       15.347       11.187       12.728      235.542      125.146      161.998        0.128        0.026       45.056       11.781        0.068      333.636        3.080      866.943
01/06/2014  18:45:00      -53.871       -2.506       -9.791       10.946        6.610        7.532      119.818       43.692       56.735        0.161        0.011       53.929        3.897        0.005      333.527        2.900      866.964
01/06/2014  18:46:00      -70.438       -7.618       -6.528        9.999       11.654        8.964       99.975      135.817       80.349        0.269        0.016       70.849        6.920        0.010      333.609        3.035      866.970
01/06/2014  18:47:00      -28.785      -23.832       -3.254       19.855       10.890        8.219      394.215      118.590       67.554        0.099        0.029       37.370        8.780        0.055      333.705        3.194      866.958
01/06/2014  18:48:00        2.086      -14.069        5.893       13.997       10.943        9.000      195.911      119.758       80.992        0.032        0.020       14.223        7.599        0.285      333.824        3.393      866.923
01/06/2014  18:49:00        4.496       -5.982       -5.715        8.681       11.677        7.560       75.354      136.342       57.149        0.018        0.013        7.484        4.680        0.391      333.876        3.478      866.895
01/06/2014  18:50:00      -12.205       19.719       -0.641       11.137        8.375        9.210      124.033       70.134       84.830        0.041        0.014       23.190        4.445        0.037      333.886        3.495      866.889
01/06/2014  18:51:00      -14.829       12.545        7.773       10.472        8.045        8.952      109.669       64.721       80.137        0.035        0.013       19.424        3.437        0.031      333.910        3.534      866.915
01/06/2014  18:52:00      -41.745       -0.574        0.923        8.617        8.683        5.099       74.252       75.386       25.996        0.096        0.009       41.749        3.928        0.009      333.681        3.155      866.933
01/06/2014  18:53:00      -44.907       13.513       -1.830        6.807        8.137        4.539       46.334       66.219       20.599        0.117        0.007       46.896        2.518        0.003      333.668        3.133      866.948
01/06/2014  18:54:00      -42.438       24.216       -6.543        7.661        8.702        5.524       58.696       75.726       30.514        0.130        0.008       48.861        5.029        0.011      333.842        3.421      866.956
01/06/2014  18:55:00      -28.537       11.139       -3.302        7.401        9.932        3.837       54.782       98.654       14.725        0.056        0.008       30.633        0.819        0.001      333.850        3.435      866.975
01/06/2014  18:56:00      -41.595      -18.256        0.085       18.812       12.549        6.034      353.882      157.467       36.406        0.131        0.027       45.425        6.808        0.022      333.719        3.217      867.012
01/06/2014  18:57:00      -43.297      -27.952      -10.621       27.990       16.286       14.315      783.468      265.221      204.905        0.201        0.063       51.536       13.741        0.071      333.510        2.872      867.054
01/06/2014  18:58:00      -85.820      -34.982       -5.341       35.050       35.344       19.156     1228.469     1249.215      366.965        0.573        0.142       92.676       13.847        0.022      333.295        2.515      867.083
01/06/2014  18:59:00      -90.942        8.110       -1.308       39.504       19.980       21.844     1560.529      399.190      477.161        0.539        0.122       91.303       21.623        0.056      333.242        2.427      867.085
01/06/2014  19:00:00      -72.828        7.355       -6.448       40.574       25.502       18.234     1646.261      650.374      332.495        0.401        0.131       73.199       18.108        0.061      333.333        2.578      867.058
01/06/2014  19:01:00      -46.204       -6.358       -6.341       24.497       23.790       17.014      600.113      565.947      289.484        0.184        0.073       46.639        4.710        0.010      333.385        2.666      867.031
01/06/2014  19:02:00      -82.660       19.109       -5.309       38.944       29.691       16.783     1516.635      881.582      281.654        0.495        0.134       84.840       20.118        0.056      333.350        2.609      866.997
01/06/2014  19:03:00      -71.723       -1.608       -7.219       23.830       17.490       12.999      567.869      305.911      168.975        0.312        0.052       71.741        9.897        0.019      333.327        2.569      866.955
01/06/2014  19:04:00      -64.529      -19.687       -9.412       20.096       19.294       13.708      403.833      372.264      187.916        0.280        0.048       67.465        8.790        0.017      333.298        2.519      866.930
01/06/2014  19:05:00      -72.013      -13.544       -7.644       19.865       19.970       10.590      394.623      398.792      112.147        0.317        0.045       73.276        7.044        0.009      333.224        2.397      866.916
01/06/2014  19:06:00      -63.495      -19.031      -14.972       27.918       19.384       15.361      779.418      375.748      235.973        0.300        0.070       66.286       16.579        0.063      333.108        2.208      866.914
01/06/2014  19:07:00      -57.180      -11.846       -1.046       27.570       23.109       19.553      760.095      534.045      382.338        0.254        0.084       58.395       11.326        0.038      333.057        2.125      866.950
01/06/2014  19:08:00      -61.518      -32.679       -0.620       28.289       27.700       15.994      800.257      767.284      255.821        0.334        0.091       69.659       12.511        0.032      333.085        2.170      867.019
01/06/2014  19:09:00     -104.723      -20.533       -8.502       32.703       37.045       21.909     1069.457     1372.338      479.997        0.719        0.146      106.717       14.662        0.019      333.066        2.139      867.080
01/06/2014  19:10:00      -82.520      -11.210       -6.681       16.409       14.794       14.916      269.252      218.857      222.481        0.385        0.036       83.278       10.862        0.017      333.036        2.090      867.108
01/06/2014  19:11:00      -74.414       -7.489       -7.047       19.057       14.451       11.537      363.158      208.826      133.110        0.317        0.035       74.789        7.282        0.009      333.064        2.136      867.094
01/06/2014  19:12:00      -67.596      -29.548       -7.837       17.433       12.987        9.082      303.897      168.655       82.477        0.303        0.028       73.772        8.844        0.014      333.095        2.187      867.077
01/06/2014  19:13:00      -38.552      -22.432       -1.777       23.446       14.198       10.833      549.715      201.582      117.345        0.143        0.043       44.603        9.102        0.042      333.151        2.278      867.081
01/06/2014  19:14:00      -41.169      -30.376       -3.155       29.511       12.608       12.550      870.905      158.969      157.505        0.191        0.059       51.162       14.245        0.078      333.213        2.381      867.101
01/06/2014  19:15:00      -80.592      -25.335      -10.947       11.032        9.969        8.828      121.704       99.375       77.940        0.378        0.015       84.481        4.538        0.003      333.145        2.268      867.098
01/06/2014  19:16:00      -81.738       -8.710      -13.784       13.890        9.808        8.003      192.941       96.203       64.050        0.365        0.018       82.201        8.044        0.010      333.182        2.328      867.065
01/06/2014  19:17:00     -101.803      -13.018      -10.166        7.371        8.587        6.646       54.328       73.744       44.163        0.540        0.009      102.632        3.323        0.001      333.220        2.390      867.052
01/06/2014  19:18:00      -81.947      -10.531       -6.386       20.541       12.282       10.566      421.942      150.852      111.649        0.378        0.034       82.621        9.585        0.013      333.164        2.298      867.065
01/06/2014  19:19:00      -71.502       -2.243       -5.917       22.904       11.367       11.162      524.607      129.208      124.601        0.297        0.039       71.537       11.564        0.026      333.086        2.170      867.074
01/06/2014  19:20:00      -50.155       -4.849       -4.686       12.881        9.998        9.021      165.929       99.970       81.376        0.145        0.017       50.389        7.248        0.021      333.103        2.200      867.060
01/06/2014  19:21:00      -38.168      -12.257       -6.214        5.585        7.066        4.178       31.193       49.934       17.453        0.087        0.005       40.088        2.060        0.003      333.173        2.314      867.017
01/06/2014  19:22:00      -38.777      -11.093       -5.875        8.781        5.865        5.425       77.113       34.395       29.432        0.090        0.007       40.332        5.358        0.018      333.208        2.371      866.987
01/06/2014  19:23:00      -48.004      -13.349       -6.771        5.848        6.337        5.753       34.199       40.155       33.099        0.132        0.005       49.826        3.133        0.004      333.219        2.391      866.981
01/06/2014  19:24:00      -40.518      -15.045       -6.700        9.704        8.825        5.977       94.161       77.888       35.728        0.106        0.010       43.221        2.726        0.004      333.227        2.402      866.981
01/06/2014  19:25:00      -11.192      -20.812       -4.231       17.630        9.152        6.951      310.815       83.761       48.310        0.051        0.022       23.630        7.893        0.112      333.283        2.497      866.964
01/06/2014  19:26:00      -23.230       -5.311       -5.063        8.636        6.823        4.406       74.585       46.560       19.415        0.037        0.007       23.830        3.510        0.022      333.265        2.466      866.939
01/06/2014  19:27:00      -37.328       -1.206       -6.278        6.709        5.835        5.090       45.012       34.051       25.906        0.077        0.005       37.348        3.252        0.008      333.195        2.350      866.927
01/06/2014  19:28:00      -25.993      -15.732       -4.528       11.257        9.998        5.786      126.721       99.966       33.479        0.060        0.013       30.383        3.104        0.010      333.146        2.268      866.944
01/06/2014  19:29:00      -34.568      -13.665       -7.779       12.480       10.667        7.304      155.751      113.779       53.352        0.088        0.016       37.171        5.398        0.021      333.066        2.137      866.989
01/06/2014  19:30:00      -61.241      -13.531      -12.605        7.470       10.146        6.192       55.795      102.942       38.341        0.214        0.010       62.718        3.223        0.003      332.818        1.728      867.014
01/06/2014  19:31:00      -47.199       -2.482       -4.530        9.774        6.299        5.470       95.534       39.674       29.921        0.121        0.008       47.264        5.521        0.014      332.830        1.749      867.000
01/06/2014  19:32:00      -26.975       -8.078       -1.970        5.009        5.954        3.250       25.088       35.445       10.564        0.043        0.004       28.158        1.600        0.003      333.080        2.160      866.967
01/06/2014  19:33:00      -28.022      -24.021       -7.214        8.363       14.801        6.171       69.944      219.070       38.082        0.087        0.016       36.908        6.199        0.028      333.133        2.248      866.937
01/06/2014  19:34:00      -50.605      -31.672      -10.340       15.353       11.080        7.088      235.729      122.764       50.241        0.204        0.020       59.700        3.301        0.003      332.972        1.981      866.907
01/06/2014  19:35:00      -62.347      -18.255       -6.773       13.355       18.636       11.549      178.353      347.319      133.374        0.246        0.033       64.965        9.282        0.020      332.859        1.797      866.898
01/06/2014  19:36:00      -70.061       -2.481      -12.857       10.488        9.512        8.998      110.005       90.472       80.971        0.268        0.014       70.105        5.115        0.005      332.867        1.810      866.891
01/06/2014  19:37:00      -79.927        1.770      -12.770       16.008       10.168        9.778      256.249      103.389       95.601        0.350        0.023       79.947        5.081        0.004      332.857        1.792      866.870
01/06/2014  19:38:00      -62.962      -11.401       -7.280       19.073       11.167       11.419      363.765      124.696      130.386        0.238        0.031       63.985        6.792        0.011      332.840        1.764      866.854
01/06/2014  19:39:00      -85.696      -10.859      -13.342       13.300       15.149       10.913      176.880      229.487      119.093        0.408        0.026       86.381        8.850        0.010      332.896        1.857      866.854
01/06/2014  19:40:00     -100.511      -30.695      -18.965       10.599       10.419        9.813      112.329      108.558       96.304        0.586        0.016      105.093        7.488        0.005      332.712        1.553      866.860
01/06/2014  19:41:00      -95.272       -9.423      -17.744       29.213       18.721       15.034      853.418      350.461      226.012        0.545        0.071       95.737       12.247        0.016      332.575        1.327      866.862
01/06/2014  19:42:00      -69.268       -6.998      -10.394       40.507       22.308       16.028     1640.854      497.656      256.889        0.367        0.120       69.621       19.120        0.075      332.632        1.421      866.860
01/06/2014  19:43:00      -62.511      -15.582       -5.252       40.732       37.783       24.822     1659.083     1427.581      616.139        0.394        0.185       64.423       13.510        0.044      332.631        1.420      866.836
01/06/2014  19:44:00      -38.893      -13.685        1.011       41.419       27.266       17.282     1715.561      743.418      298.680        0.223        0.138       41.231       14.280        0.120      332.656        1.460      866.808
01/06/2014  19:45:00      -53.345       21.025      -15.046       39.785       27.923       23.020     1582.872      779.709      529.907        0.320        0.145       57.339       18.891        0.109      332.807        1.711      866.783
01/06/2014  19:46:00      -55.810        0.773      -15.318       18.794       26.195       18.204      353.202      686.177      331.368        0.236        0.069       55.816       12.419        0.050      332.836        1.757      866.777
01/06/2014  19:47:00      -97.590      -12.138      -15.591       36.040       27.621       18.408     1298.849      762.939      338.848        0.616        0.120       98.342       19.064        0.038      332.747        1.612      866.795
01/06/2014  19:48:00     -111.462       -3.556      -16.386       35.505       41.094       20.101     1260.615     1688.728      404.037        0.803        0.168      111.519       18.143        0.026      332.629        1.415      866.835
01/06/2014  19:49:00      -91.374       -7.318       -9.375       49.225       50.547       29.622     2423.081     2555.032      877.449        0.717        0.293       91.667       26.315        0.082      332.633        1.423      866.893
01/06/2014  19:50:00     -112.790      -14.905       -7.083       59.436       44.250       31.616     3532.586     1958.085      999.573        0.974        0.325      113.770       31.403        0.076      332.596        1.360      866.969
01/06/2014  19:51:00     -174.301        2.787      -23.755       30.508       36.202       26.054      930.736     1310.562      678.793        1.694        0.146      174.324       18.022        0.011      332.623        1.407      867.035
01/06/2014  19:52:00     -127.859      -32.975       -9.386       29.184       41.659       20.542      851.693     1735.466      421.971        1.027        0.150      132.043       17.514        0.018      332.696        1.526      867.076
01/06/2014  19:53:00     -131.472       15.140      -14.673       28.469       28.956       17.282      810.500      838.459      298.674        0.984        0.097      132.341       14.133        0.011      332.730        1.584      867.079
01/06/2014  19:54:00     -142.886       31.120      -16.517       36.998       32.223       20.255     1368.861     1038.343      410.267        1.224        0.141      146.235       13.464        0.008      332.747        1.611      867.061
01/06/2014  19:55:00     -151.500       47.439      -10.960       35.030       24.118       18.912     1227.098      581.661      357.659        1.374        0.108      158.754        5.946        0.001      332.805        1.706      867.036
01/06/2014  19:56:00     -131.924       20.308      -15.144       42.182       27.900       22.409     1779.349      778.387      502.154        1.055        0.153      133.478       22.357        0.028      332.845        1.773      866.997
01/06/2014  19:57:00      -61.359      -13.889       -3.728       38.387       21.250       18.032     1473.528      451.576      325.160        0.311        0.113       62.911       20.421        0.105      332.843        1.770      866.975
01/06/2014  19:58:00      -29.636      -29.801        1.406       28.567       21.713       14.735      816.073      471.466      217.122        0.164        0.075       42.028       16.350        0.151      332.940        1.930      866.935
01/06/2014  19:59:00       11.861        3.561       26.563       16.507       30.785       17.791      272.483      947.699      316.518        0.120        0.077       12.384       19.235        2.413      333.094        2.182      866.880
01/06/2014  20:00:00       -4.833        2.924       18.120        7.237       15.305        7.835       52.381      234.250       61.392        0.035        0.017        5.649        6.442        1.300      333.136        2.253      866.837
01/06/2014  20:01:00        6.828       11.695        9.067        8.813       10.939       10.050       77.664      119.656      101.001        0.028        0.015       13.542        8.051        0.353      333.133        2.248      866.781
01/06/2014  20:02:00       23.450       45.107        2.266       12.712       24.649        9.186      161.604      607.563       84.381        0.172        0.043       50.839       10.362        0.042      333.351        2.608      866.727
01/06/2014  20:03:00       23.449       32.846        0.423       12.659       22.162       11.233      160.246      491.150      126.189        0.120        0.039       40.357       13.425        0.111      333.276        2.483      866.726
01/06/2014  20:04:00       16.181       52.852       -9.899       10.465       13.603        7.977      109.527      185.035       63.635        0.176        0.018       55.274        6.288        0.013      333.316        2.550      866.760
01/06/2014  20:05:00       -5.396       69.146      -10.362        9.177       15.822        7.908       84.225      250.351       62.536        0.266        0.020       69.356        6.856        0.010      333.374        2.647      866.810
01/06/2014  20:06:00      -22.792       91.621      -15.862       23.150       18.346       13.814      535.913      336.567      190.821        0.511        0.053       94.414        8.685        0.008      333.521        2.889      866.853
01/06/2014  20:07:00      -51.148      108.075      -18.762       24.554       23.879       15.246      602.905      570.183      232.431        0.803        0.070      119.567        6.265        0.003      333.680        3.154      866.868
01/06/2014  20:08:00      -56.172      100.805      -26.061       26.122       23.775       16.473      682.347      565.265      271.368        0.776        0.076      115.400       11.884        0.011      333.645        3.095      866.896
01/06/2014  20:09:00      -51.604       17.324      -14.679       19.145       58.996       18.801      366.544     3480.513      353.482        0.369        0.210       54.434       23.862        0.192      333.392        2.677      866.963
01/06/2014  20:10:00      -22.413      -36.003        1.683       19.307       22.307       23.764      372.741      497.616      564.751        0.162        0.072       42.409       14.203        0.112      333.224        2.397      867.039
01/06/2014  20:11:00       -8.477      -28.664       12.715       18.374       22.463       15.421      337.597      504.590      237.805        0.107        0.054       29.891       10.024        0.112      333.247        2.436      867.069
01/06/2014  20:12:00       -9.735      -33.790       10.290       16.370       15.767       11.577      267.983      248.613      134.023        0.100        0.033       35.164        6.609        0.035      333.344        2.596      867.069
01/06/2014  20:13:00      -13.079      -23.635       -1.508       20.265       13.680       12.378      410.669      187.146      153.216        0.074        0.038       27.012        9.025        0.112      333.428        2.735      867.058
01/06/2014  20:14:00      -45.649      -24.976       -3.035       17.420       11.379        9.698      303.461      129.485       94.043        0.162        0.026       52.034        7.627        0.021      333.484        2.828      867.063
01/06/2014  20:15:00     -107.618      -55.576        2.757       52.225       41.282       19.857     2727.463     1704.181      394.283        0.975        0.241      121.121       12.897        0.011      333.460        2.789      867.112
01/06/2014  20:16:00     -134.242      -96.564        4.093       58.844       49.899       28.108     3462.653     2489.912      790.034        1.705        0.337      165.365       32.162        0.038      333.460        2.787      867.187
01/06/2014  20:17:00     -113.877      -95.008      -16.396       64.727       54.612       30.424     4189.601     2982.455      925.613        1.518        0.405      148.306       22.394        0.023      333.272        2.477      867.215
01/06/2014  20:18:00      -44.306      -20.473       12.260       55.524       28.153       23.064     3082.969      792.580      531.969        0.347        0.220       48.807       22.126        0.206      333.291        2.509      867.143
01/06/2014  20:19:00       -3.699       27.371       15.244       31.807       36.062       33.660     1011.715     1300.473     1132.979        0.222        0.172       27.619       14.778        0.286      333.352        2.609      866.969
01/06/2014  20:20:00      -17.569       44.446       85.206       13.576       37.374       19.866      184.318     1396.781      394.640        0.576        0.099       47.793       21.951        0.211      333.434        2.745      866.781
01/06/2014  20:21:00      -17.104       52.560       73.412       18.954       26.196       20.569      359.243      686.210      423.086        0.496        0.073       55.273       15.860        0.082      333.389        2.672      866.648
01/06/2014  20:22:00       -1.389       36.643       31.636       28.657       30.743       30.516      821.217      945.117      931.242        0.252        0.135       36.669       28.748        0.615      333.359        2.622      866.663
01/06/2014  20:23:00     -104.713       13.709      -14.556       52.579       14.998       10.562     2764.584      224.948      111.562        0.723        0.155      105.607       13.217        0.016      333.370        2.640      866.835
01/06/2014  20:24:00     -186.401      -57.497       -8.709       54.155       45.371       25.983     2932.798     2058.564      675.095        2.190        0.283      195.068       22.433        0.013      333.312        2.542      867.041
01/06/2014  20:25:00     -186.749      -78.335       -6.347       70.021       44.458       34.268     4902.897     1976.535     1174.316        2.455        0.403      202.513       31.790        0.025      333.345        2.596      867.209
01/06/2014  20:26:00     -201.110      -78.846        1.843       73.313       48.415       41.426     5374.790     2343.977     1716.146        2.805        0.472      216.014       42.779        0.039      333.203        2.361      867.303
01/06/2014  20:27:00     -130.527      -20.803      -10.431       47.844       48.158       29.807     2289.077     2319.187      888.439        1.154        0.275      132.175       26.802        0.041      333.116        2.221      867.290
01/06/2014  20:28:00      -87.957      -11.048       -3.840       36.985       26.052       18.680     1367.870      678.689      348.957        0.513        0.120       88.648       17.906        0.041      333.125        2.235      867.226
01/06/2014  20:29:00      -85.985      -24.635       -2.686       36.173       22.819       20.084     1308.495      520.691      403.357        0.512        0.112       89.445       19.036        0.045      333.149        2.272      867.195
01/06/2014  20:30:00      -61.458      -20.938       -6.074       40.943       18.990       15.298     1676.321      360.636      234.015        0.326        0.114       64.926       17.586        0.073      333.207        2.371      867.157
01/06/2014  20:31:00      -22.412      -84.412       -6.080       20.051       16.224       10.491      402.047      263.226      110.059        0.422        0.039       87.336       10.295        0.014      333.121        2.229      867.103
01/06/2014  20:32:00      -73.980      -83.945       -8.983       45.678       22.756       22.794     2086.444      517.823      519.577        0.786        0.156      111.892       19.522        0.030      333.100        2.194      867.083
01/06/2014  20:33:00     -150.575      -79.993      -11.892       29.193       33.141       20.146      852.249     1098.348      405.845        1.578        0.118      170.504       16.789        0.010      333.076        2.157      867.093
01/06/2014  20:34:00     -120.113      -57.966       -0.491       40.639       31.561       19.566     1651.504      996.098      382.829        1.041        0.152      133.369       14.667        0.012      333.087        2.174      867.132
01/06/2014  20:35:00      -87.413      -53.250       -1.035       63.022       38.648       24.248     3971.712     1493.657      587.959        0.826        0.303      102.355       25.040        0.060      333.071        2.145      867.178
01/06/2014  20:36:00       -7.058      -29.018       21.446       35.615       27.641       22.649     1268.451      764.050      512.970        0.195        0.127       29.865       27.050        0.820      333.158        2.289      867.165
01/06/2014  20:37:00      -12.224      -40.490        4.517       31.180       20.065       20.097      972.188      402.618      403.905        0.179        0.089       42.295       15.934        0.142      333.161        2.296      867.126
01/06/2014  20:38:00      -41.834      -48.037       -4.557       33.338       29.615       14.777     1111.449      877.051      218.370        0.314        0.110       63.700       19.220        0.091      333.100        2.195      867.097
01/06/2014  20:39:00      -81.513      -44.609       -3.892       23.439       18.033       16.071      549.382      325.172      258.279        0.489        0.057       92.921        9.922        0.011      333.091        2.181      867.113
01/06/2014  20:40:00     -117.989      -56.901      -10.183       25.314       20.749       16.021      640.802      430.505      256.673        0.930        0.066      130.993       14.005        0.011      333.064        2.135      867.163
01/06/2014  20:41:00      -76.366      -67.351       -1.164       36.276       30.900       19.199     1315.963      954.834      368.586        0.650        0.132      101.822       15.317        0.023      333.069        2.143      867.205
01/06/2014  20:42:00      -30.132      -18.404        6.264       45.049       25.262       17.155     2029.442      638.174      294.303        0.212        0.148       35.308       18.964        0.288      333.145        2.267      867.197
01/06/2014  20:43:00      -17.920      -20.483        8.240       29.111       26.837       18.050      847.428      720.246      325.819        0.135        0.095       27.215       18.933        0.484      333.159        2.288      867.131
01/06/2014  20:44:00      -13.206       -8.281        2.813       18.875       13.955       13.990      356.283      194.731      195.711        0.050        0.037       15.588        9.129        0.343      333.187        2.337      867.056
01/06/2014  20:45:00       -3.552      -26.402        6.566       11.958       22.061       10.865      142.991      486.690      118.039        0.075        0.037       26.640       11.391        0.183      333.279        2.489      867.015
01/06/2014  20:46:00      -11.030      -23.242        6.484       18.220       19.084       12.284      331.955      364.184      150.893        0.078        0.042       25.727       10.724        0.174      333.223        2.396      866.986
01/06/2014  20:47:00      -27.377        3.189        6.521        6.545        6.826        5.541       42.832       46.588       30.706        0.046        0.006       27.562        1.744        0.004      333.176        2.318      866.949
01/06/2014  20:48:00      -34.698       -4.687        0.277       13.080        7.165        7.214      171.096       51.344       52.042        0.075        0.014       35.014        6.269        0.032      333.185        2.336      866.936
01/06/2014  20:49:00      -71.977      -29.285       -5.358       25.000       21.707       11.420      625.022      471.178      130.409        0.365        0.061       77.706        7.578        0.010      333.184        2.330      866.982
01/06/2014  20:50:00      -68.046      -46.678       -0.034       28.334       14.252       18.929      802.824      203.109      358.308        0.409        0.068       82.517       16.505        0.040      333.182        2.327      867.027
01/06/2014  20:51:00      -45.725      -48.883       -1.763       23.914       16.032       13.268      571.879      257.027      176.052        0.274        0.050       66.935        9.969        0.022      333.259        2.455      867.055
01/06/2014  20:52:00      -53.831      -44.026        3.152       28.890       20.130       18.802      834.608      405.199      353.532        0.322        0.080       69.541       16.703        0.058      333.309        2.539      867.117
01/06/2014  20:53:00      -60.022      -40.630        7.042       59.030       36.740       25.508     3484.521     1349.834      650.653        0.539        0.274       72.480       27.296        0.142      333.290        2.510      867.188
01/06/2014  20:54:00      -25.896       -7.287       20.721       43.570       29.913       21.883     1898.339      894.807      478.884        0.221        0.164       26.902       23.417        0.758      333.373        2.645      867.212
01/06/2014  20:55:00      -75.577      -44.941       -2.412       50.646       23.261       19.380     2565.043      541.072      375.594        0.561        0.174       87.929       24.121        0.075      333.365        2.633      867.197
01/06/2014  20:56:00      -74.272      -45.094        0.115       32.571       25.786       16.910     1060.849      664.921      285.952        0.478        0.101       86.890       13.946        0.026      333.290        2.507      867.167
01/06/2014  20:57:00      -56.667      -48.142        3.170       31.419       20.846       18.505      987.129      434.567      342.428        0.365        0.088       74.356       14.615        0.039      333.340        2.590      867.172
01/06/2014  20:58:00      -27.444      -13.335        3.009       22.916       23.950       10.885      525.157      573.612      118.483        0.108        0.061       30.512       13.365        0.192      333.339        2.589      867.158
01/06/2014  20:59:00       -6.032       21.108        9.234       11.240       22.018       11.484      126.347      484.813      131.876        0.065        0.037       21.953        6.623        0.091      333.423        2.729      867.149
01/06/2014  21:00:00      -53.927       24.766        5.651       30.617       18.058       19.109      937.430      326.080      365.151        0.259        0.081       59.342       13.091        0.049      333.596        3.015      867.183
01/06/2014  21:01:00      -52.769        8.981       -1.009       18.467       18.997       12.574      341.019      360.883      158.095        0.186        0.043       53.528        8.806        0.027      333.427        2.734      867.190
01/06/2014  21:02:00      -10.424        4.571        5.113       11.947       12.472       12.946      142.733      155.540      167.594        0.031        0.023       11.382       10.390        0.833      333.327        2.568      867.158
01/06/2014  21:03:00        7.205       20.555        4.222       15.571       22.346       13.070      242.470      499.324      170.822        0.070        0.046       21.781       14.118        0.420      333.327        2.569      867.129
01/06/2014  21:04:00      -22.852       31.993       -6.775       21.821       23.459       13.020      476.170      550.308      169.517        0.139        0.060       39.316       10.123        0.066      333.328        2.570      867.152
01/06/2014  21:05:00      -46.982        6.746       -1.121       17.465       18.935       14.579      305.030      358.540      212.548        0.156        0.044       47.464       12.632        0.071      333.226        2.402      867.232
01/06/2014  21:06:00      -96.118       -3.964       -5.984       27.250       22.158       15.451      742.566      490.989      238.720        0.538        0.074       96.200       11.987        0.016      333.104        2.201      867.269
01/06/2014  21:07:00     -112.900       20.103      -11.193       32.500       26.714       17.282     1056.242      713.638      298.662        0.767        0.103      114.676       14.618        0.016      333.129        2.242      867.270
01/06/2014  21:08:00     -124.581        9.776      -15.235       44.553       20.685       19.749     1984.941      427.883      390.008        0.933        0.140      124.964       19.082        0.023      333.081        2.163      867.302
01/06/2014  21:09:00     -127.690       -4.412      -14.294       38.485       23.901       18.817     1481.068      571.245      354.086        0.947        0.120      127.766       21.620        0.029      333.021        2.062      867.331
01/06/2014  21:10:00      -84.348       10.655       -4.541       27.474       24.346       14.795      754.823      592.706      218.897        0.441        0.078       85.018       12.822        0.023      333.015        2.051      867.303
01/06/2014  21:11:00      -95.571       10.871       -8.208       26.992       23.727       14.674      728.572      562.966      215.316        0.541        0.075       96.187       11.275        0.014      333.001        2.030      867.279
01/06/2014  21:12:00      -42.759       -3.430        0.525       27.598       29.319       16.245      761.677      859.631      263.914        0.186        0.094       42.897       16.024        0.140      333.037        2.090      867.260
01/06/2014  21:13:00      -36.726       20.480       -3.716       19.412       21.746       15.422      376.831      472.883      237.843        0.143        0.054       42.050       14.044        0.112      333.114        2.218      867.227
01/06/2014  21:14:00      -17.063       54.047       -3.840       14.254       16.277       18.344      203.182      264.931      336.514        0.202        0.040       56.676        9.125        0.026      333.308        2.535      867.163
01/06/2014  21:15:00      -16.295       69.338        1.418       31.421       31.574       22.098      987.273      996.931      488.310        0.377        0.124       71.227       17.461        0.060      333.397        2.685      867.148
01/06/2014  21:16:00       27.716       79.886       -4.790       22.993       34.940       20.253      528.660     1220.831      410.166        0.467        0.108       84.557       19.616        0.054      333.309        2.539      867.118
01/06/2014  21:17:00       72.361       73.686       -4.615       38.301       34.988       23.954     1466.971     1224.142      573.810        0.698        0.163      103.275       19.110        0.034      333.095        2.187      867.033
01/06/2014  21:18:00       98.152       52.646       15.226       36.922       35.563       27.436     1363.248     1264.725      752.718        0.801        0.169      111.379       22.117        0.039      333.085        2.170      866.941
01/06/2014  21:19:00      108.079       59.223        1.169       34.115       27.249       22.310     1163.832      742.486      497.715        0.880        0.120      123.241       20.768        0.028      333.038        2.091      866.874
01/06/2014  21:20:00       42.885       61.655       -7.681       58.705       38.948       19.158     3446.240     1516.911      367.034        0.551        0.267       75.102       22.807        0.092      333.035        2.086      866.904
01/06/2014  21:21:00     -115.956       54.120      -21.049       46.611       25.063       19.457     2172.560      628.176      378.582        1.000        0.159      127.964       14.122        0.012      333.197        2.355      867.048
01/06/2014  21:22:00     -130.533       58.386      -30.478       43.060       42.896       29.701     1854.122     1840.093      882.173        1.298        0.229      142.996       14.817        0.011      333.300        2.524      867.225
01/06/2014  21:23:00      -93.898       38.137       -5.774       47.722       32.855       21.134     2277.388     1079.456      446.662        0.705        0.190      101.347       18.974        0.035      333.368        2.638      867.269
01/06/2014  21:24:00      -36.254       47.883      -12.148       30.269       25.501       19.053      916.194      650.287      363.013        0.284        0.096       60.060       16.004        0.071      333.474        2.811      867.191
01/06/2014  21:25:00       35.621       41.839       11.763       26.532       17.615       15.878      703.936      310.283      252.097        0.221        0.063       54.949       14.964        0.074      333.478        2.819      867.107
01/06/2014  21:26:00        5.330        6.524        3.518       12.085       10.223       10.305      146.044      104.505      106.195        0.022        0.018        8.424        5.959        0.500      333.472        2.809      867.080
01/06/2014  21:27:00       21.835       28.952        7.154        9.503       16.330       10.138       90.315      266.659      102.773        0.091        0.023       36.262        7.922        0.048      333.437        2.751      867.098
01/06/2014  21:28:00       16.585       12.501       -2.773       11.938       11.862        4.743      142.528      140.701       22.498        0.037        0.015       20.769        4.339        0.044      333.435        2.745      867.119
01/06/2014  21:29:00        7.809       21.352       -0.245        5.841        9.203        3.070       34.117       84.697        9.422        0.032        0.006       22.735        2.709        0.014      333.423        2.727      867.107
01/06/2014  21:30:00       10.192       10.721        0.590        7.175       15.238       10.921       51.485      232.198      119.275        0.031        0.020       14.793       11.219        0.575      333.457        2.783      867.066
01/06/2014  21:31:00       28.917       19.859       -4.041        7.522        7.923        7.929       56.581       62.770       62.876        0.071        0.009       35.080        6.603        0.035      333.427        2.735      867.023
01/06/2014  21:32:00       26.988       25.158       -5.252        6.596        9.206        6.934       43.507       84.747       48.086        0.078        0.009       36.896        5.091        0.019      333.469        2.805      866.975
01/06/2014  21:33:00       28.627       19.341        0.296        6.835        7.915        8.173       46.720       62.645       66.799        0.068        0.009       34.549        4.168        0.015      333.470        2.807      866.938
01/06/2014  21:34:00       24.543       18.009       -1.561        4.975        4.447        4.328       24.746       19.772       18.733        0.050        0.003       30.441        2.582        0.007      333.444        2.762      866.924
01/06/2014  21:35:00       29.763       20.160        0.643        8.356        7.540        7.684       69.818       56.854       59.044        0.074        0.009       35.948        2.447        0.005      333.512        2.876      866.929
01/06/2014  21:36:00       37.066       31.835       13.414        6.637        6.894       10.668       44.044       47.523      113.810        0.139        0.010       48.860        4.870        0.010      333.473        2.810      866.919
01/06/2014  21:37:00       41.193       37.930       15.597       10.318        8.015        9.209      106.451       64.246       84.798        0.182        0.013       55.996        7.517        0.018      333.442        2.760      866.892
01/06/2014  21:38:00       34.538       26.535       -2.717       11.797        9.607        5.832      139.161       92.290       34.015        0.108        0.013       43.554        3.115        0.005      333.448        2.768      866.892
01/06/2014  21:39:00       39.291       40.718        3.113       18.427        9.444       11.846      339.541       89.197      140.326        0.189        0.028       56.584       10.393        0.034      333.403        2.695      866.854
01/06/2014  21:40:00       40.817       50.115       -5.509       23.703       26.784       19.200      561.829      717.378      368.655        0.293        0.082       64.634       17.997        0.078      333.383        2.663      866.785
01/06/2014  21:41:00       23.968       31.052        6.439       29.763       23.382       18.437      885.861      546.741      339.908        0.168        0.089       39.226       15.239        0.151      333.406        2.701      866.759
01/06/2014  21:42:00       30.170       14.092        6.386       22.510       25.610       18.370      506.696      655.857      337.443        0.132        0.075       33.299        7.873        0.056      333.429        2.738      866.759
01/06/2014  21:43:00       75.001       44.267        2.570       22.206       15.438       13.558      493.099      238.320      183.812        0.425        0.046       87.090        9.565        0.012      333.364        2.633      866.721
01/06/2014  21:44:00       -5.856       32.008      -10.744       33.647       16.181       11.857     1132.118      261.823      140.586        0.135        0.077       32.539        8.123        0.062      333.383        2.662      866.729
01/06/2014  21:45:00      -92.485        0.845      -12.095       28.308       20.189       12.916      801.367      407.592      166.828        0.504        0.069       92.489        5.190        0.003      333.185        2.333      866.806
01/06/2014  21:46:00     -122.724        6.203      -21.397       32.374       30.563       21.354     1048.094      934.109      456.006        0.900        0.122      122.881       11.180        0.008      333.216        2.385      866.846
01/06/2014  21:47:00      -70.800      -10.647       -9.919       35.005       28.516       18.305     1225.354      813.136      335.073        0.380        0.119       71.596       10.389        0.021      333.329        2.573      866.809
01/06/2014  21:48:00        4.069      -10.658       18.039        9.156       14.985       11.765       83.827      224.559      138.419        0.045        0.022       11.408       11.000        0.930      333.421        2.724      866.696
01/06/2014  21:49:00      -20.116      -18.523       11.357       15.744       17.674       13.951      247.881      312.369      194.635        0.082        0.038       27.345        9.083        0.110      333.466        2.797      866.614
01/06/2014  21:50:00      -11.747      -19.806        3.863       13.001       17.481       11.165      169.026      305.586      124.652        0.057        0.030       23.028        8.599        0.139      333.532        2.909      866.618
01/06/2014  21:51:00      -70.024       23.090       -5.142       37.131       19.694       15.653     1378.697      387.856      245.013        0.374        0.101       73.733       18.336        0.062      333.642        3.091      866.676
01/06/2014  21:52:00     -185.564       50.239      -17.191       40.934       25.301       17.976     1675.566      640.157      323.132        1.995        0.132      192.244       11.290        0.003      333.295        2.515      866.741
01/06/2014  21:53:00     -115.693        3.473      -12.698       51.409       35.991       22.595     2642.867     1295.336      510.554        0.900        0.222      115.745       26.074        0.051      333.074        2.152      866.761
01/06/2014  21:54:00      -39.536        1.885        3.312       14.565       14.134       15.944      212.125      199.760      254.197        0.112        0.033       39.581        9.405        0.056      333.183        2.332      866.724
01/06/2014  21:55:00      -50.253        1.592       -3.290        9.935       12.058        8.972       98.697      145.391       80.490        0.143        0.016       50.278        1.999        0.002      333.311        2.543      866.720
01/06/2014  21:56:00      -34.201      -27.929       -8.900       17.372        9.451        7.896      301.791       89.327       62.352        0.124        0.023       44.155        4.458        0.010      333.331        2.576      866.766
01/06/2014  21:57:00      -64.739      -26.086       -3.916       11.694       13.186        8.049      136.747      173.871       64.790        0.263        0.019       69.797        5.550        0.006      333.308        2.537      866.815
01/06/2014  21:58:00      -51.742        3.831       -4.326       17.402       12.187        9.980      302.839      148.532       99.595        0.163        0.028       51.883        7.108        0.019      333.306        2.535      866.855
01/06/2014  21:59:00      -59.866      -38.948       -0.518       27.280       24.779       12.744      744.222      613.995      162.401        0.331        0.076       71.421       13.751        0.037      333.319        2.556      866.893
01/06/2014  22:00:00      -32.119      -24.610       12.019       35.065       23.028       17.910     1229.565      530.304      320.757        0.193        0.104       40.463       17.202        0.181      333.342        2.592      866.881
01/06/2014  22:01:00       21.503       20.511       17.153       22.162       20.568       16.629      491.167      423.049      276.538        0.118        0.060       29.717       17.049        0.329      333.321        2.558      866.750
01/06/2014  22:02:00       75.341       46.435       24.799       34.914       24.465       30.451     1218.967      598.520      927.268        0.560        0.137       88.502       18.454        0.043      333.409        2.706      866.575
01/06/2014  22:03:00       16.763       23.136       29.330       30.524       27.882       23.258      931.724      777.406      540.935        0.196        0.113       28.570       13.868        0.236      333.438        2.753      866.527
01/06/2014  22:04:00      -35.499        9.367       -0.192       42.177       17.682       14.493     1778.890      312.667      210.043        0.182        0.115       36.714       15.143        0.170      333.341        2.593      866.564
01/06/2014  22:05:00      -42.435       25.536       -5.453       30.767       14.365       15.518      946.586      206.345      240.808        0.194        0.070       49.526       15.301        0.095      333.209        2.374      866.584
01/06/2014  22:06:00      -60.312       19.215      -11.629       23.965       20.267       14.060      574.307      410.733      197.679        0.266        0.059       63.299       10.776        0.029      333.296        2.517      866.572
01/06/2014  22:07:00      -34.143      -25.160       -0.665       26.244       12.762       14.572      688.767      162.863      212.349        0.143        0.053       42.412       16.217        0.146      333.307        2.536      866.601
01/06/2014  22:08:00      -38.514      -38.644        4.768       41.265       26.765       19.317     1702.795      716.372      373.162        0.290        0.140       54.559       19.887        0.133      333.285        2.500      866.685
01/06/2014  22:09:00      -43.718      -28.810        8.752       42.762       24.078       19.688     1828.551      579.742      387.608        0.281        0.140       52.358       18.739        0.128      333.318        2.553      866.757
01/06/2014  22:10:00        0.913       -0.418       14.187       10.061        9.667       11.884      101.218       93.446      141.222        0.027        0.017        1.004        5.055       25.352      333.443        2.760      866.783
01/06/2014  22:11:00        9.225       17.541        8.638       25.261       16.915       11.969      638.117      286.118      143.254        0.077        0.053       19.819       12.712        0.411      333.405        2.698      866.743
01/06/2014  22:12:00       56.930       42.768       10.983       34.450       20.923       17.406     1186.833      437.789      302.969        0.356        0.096       71.205       11.538        0.026      333.292        2.511      866.677
01/06/2014  22:13:00       45.838       38.226        1.091       26.636       23.629       14.929      709.465      558.330      222.886        0.253        0.075       59.686       13.496        0.051      333.330        2.573      866.666
01/06/2014  22:14:00       22.426       13.402       -4.190       17.688       16.487       13.417      312.878      271.811      180.006        0.073        0.038       26.125        7.783        0.089      333.347        2.602      866.712
01/06/2014  22:15:00       50.816       34.106       21.456       20.970       17.027       22.134      439.729      289.935      489.914        0.271        0.061       61.201       11.466        0.035      333.407        2.701      866.752
01/06/2014  22:16:00       62.209       59.988       31.180       23.157       14.605       24.451      536.268      213.309      597.832        0.489        0.067       86.421       13.100        0.023      333.376        2.653      866.740
01/06/2014  22:17:00       46.959       34.955       35.743       24.844       26.963       21.775      617.244      726.984      474.157        0.326        0.091       58.540       16.721        0.082      333.400        2.692      866.709
01/06/2014  22:18:00       25.216       50.729       54.008       25.021       23.437       18.845      626.068      549.296      355.151        0.383        0.077       56.650       13.805        0.059      333.432        2.742      866.671
01/06/2014  22:19:00       40.527       60.360       53.630       25.609       20.732       16.519      655.812      429.829      272.875        0.476        0.068       72.703       10.350        0.020      333.417        2.718      866.625
01/06/2014  22:20:00       32.621       39.777       39.919       30.615       22.437       20.316      937.263      503.417      412.748        0.305        0.093       51.443       19.558        0.145      333.389        2.673      866.589
01/06/2014  22:21:00       70.616       48.681       28.629       30.512       21.440       22.809      931.008      459.669      520.254        0.504        0.096       85.770       15.228        0.032      333.366        2.635      866.549
01/06/2014  22:22:00        5.482       19.312       29.446       18.863       20.185       12.818      355.827      407.428      164.313        0.110        0.046       20.075        9.734        0.235      333.411        2.706      866.548
01/06/2014  22:23:00      -25.668      -31.362        2.323       20.108       20.548       12.695      404.348      422.230      161.168        0.132        0.049       40.527       10.663        0.069      333.331        2.576      866.593
01/06/2014  22:24:00        7.614       19.869       12.212       12.664       15.794       13.257      160.371      249.444      175.747        0.059        0.029       21.278       11.423        0.288      333.354        2.612      866.593
01/06/2014  22:25:00       48.906       29.297       18.510       12.641       15.292       12.972      159.784      233.831      168.285        0.208        0.028       57.010        8.686        0.023      333.325        2.566      866.548
01/06/2014  22:26:00       51.773       41.291        4.446       28.812       11.682        8.266      830.145      136.467       68.327        0.272        0.052       66.223        8.968        0.018      333.260        2.456      866.537
01/06/2014  22:27:00       13.638       58.094       -9.557       12.138       17.744       11.725      147.326      314.836      137.487        0.213        0.030       59.674       12.821        0.046      333.213        2.380      866.570
01/06/2014  22:28:00       -5.210       60.962       -2.518       11.254       18.055       21.361      126.644      325.975      456.285        0.233        0.045       61.184       15.983        0.068      333.258        2.455      866.602
01/06/2014  22:29:00        8.516       61.131       -1.386       18.195       18.875       13.803      331.075      356.248      190.512        0.234        0.044       61.721       11.206        0.033      333.224        2.398      866.614
01/06/2014  22:30:00       32.176       45.455       -1.575       11.476       16.863       12.879      131.702      284.367      165.861        0.184        0.029       55.691       10.783        0.037      333.127        2.238      866.629
01/06/2014  22:31:00       -1.478       27.650       -5.474       18.066       10.969        7.874      326.396      120.317       62.004        0.065        0.025       27.690        6.949        0.063      333.136        2.251      866.669
01/06/2014  22:32:00      -57.032       -5.597       -9.503       26.143       20.823       13.667      683.464      433.590      186.796        0.234        0.065       57.306       11.093        0.037      333.186        2.336      866.754
01/06/2014  22:33:00      -89.852      -24.933       -4.442       20.744       17.549       14.072      430.306      307.952      198.031        0.483        0.047       93.247       13.131        0.020      333.015        2.054      866.808
01/06/2014  22:34:00      -36.271      -10.302       -7.283       16.798       18.371        8.143      282.173      337.487       66.304        0.108        0.034       37.705        8.974        0.057      333.032        2.081      866.768
01/06/2014  22:35:00      -24.697       -7.854        2.773       20.774       15.910       12.416      431.572      253.140      154.156        0.076        0.042       25.915       11.509        0.197      333.071        2.147      866.686
01/06/2014  22:36:00      -48.207        2.194        0.130       20.841       15.182       10.198      434.362      230.506      104.003        0.155        0.038       48.257        8.420        0.030      333.053        2.116      866.584
01/06/2014  22:37:00      -37.947        8.035       -0.386       18.973        6.262        7.272      359.978       39.211       52.883        0.098        0.023       38.788       10.073        0.067      333.083        2.167      866.497
01/06/2014  22:38:00       -4.532        7.579       11.318        5.685        5.765        3.836       32.315       33.232       14.713        0.014        0.004        8.831        1.701        0.037      333.147        2.272      866.468
01/06/2014  22:39:00      -50.737        3.920       -3.463       24.897        5.921        7.130      619.877       35.056       50.833        0.165        0.035       50.888       10.059        0.039      333.185        2.334      866.514
01/06/2014  22:40:00      -76.466      -16.514      -10.177       25.878       17.865       14.820      669.665      319.145      219.631        0.372        0.060       78.229       13.854        0.031      333.187        2.338      866.599
01/06/2014  22:41:00      -86.869      -14.776       -3.589       27.374       18.133       14.248      749.328      328.789      203.008        0.453        0.064       88.117       13.142        0.022      333.127        2.239      866.656
01/06/2014  22:42:00      -35.382      -12.945       -1.180       34.926       33.492       16.125     1219.837     1121.697      260.019        0.201        0.130       37.676       16.904        0.201      333.291        2.508      866.659
01/06/2014  22:43:00        4.010      -26.651        2.839       23.634       22.356       14.383      558.566      499.799      206.876        0.100        0.063       26.951       13.343        0.245      333.264        2.463      866.622
01/06/2014  22:44:00        3.294      -51.800       -5.191       30.457       32.578       25.459      927.650     1061.337      648.164        0.268        0.132       51.905       14.174        0.075      333.373        2.644      866.547
01/06/2014  22:45:00        8.483       35.448       66.077       27.062       30.829       23.997      732.375      950.440      575.848        0.398        0.113       36.449       21.341        0.343      333.371        2.641      866.451
01/06/2014  22:46:00       50.928      -71.007       -1.225       39.651       70.242       41.610     1572.179     4933.887     1731.361        0.794        0.412       87.382       47.684        0.298      333.363        2.629      866.394
01/06/2014  22:47:00       40.790      -93.271      -23.089       45.670       35.521       21.768     2085.729     1261.741      473.850        0.736        0.191      101.800       19.722        0.038      333.439        2.754      866.391
01/06/2014  22:48:00      -47.136      -53.265       -4.762       45.420       31.973       23.268     2062.994     1022.277      541.396        0.435        0.181       71.126       14.217        0.040      333.324        2.565      866.412
01/06/2014  22:49:00     -119.737      -77.621      -13.751       46.298       36.907       23.905     2143.501     1362.103      571.457        1.231        0.204      142.695       18.771        0.017      333.271        2.476      866.438
01/06/2014  22:50:00      -60.274      -45.504        0.230       36.512       18.361       23.446     1333.101      337.113      549.710        0.396        0.111       75.522       20.368        0.073      333.310        2.539      866.436
01/06/2014  22:51:00      -50.937      -36.699       -2.228       15.527       14.018        8.413      241.088      196.510       70.782        0.223        0.025       62.781        6.564        0.011      333.249        2.439      866.412
01/06/2014  22:52:00      -16.160       -4.110        1.712        9.554        7.310        6.269       91.270       53.441       39.299        0.023        0.009       16.674        6.643        0.159      333.295        2.516      866.390
01/06/2014  22:53:00      -24.148       14.628        0.440       13.675       11.581        6.927      187.019      134.122       47.981        0.058        0.018       28.233        8.715        0.095      333.270        2.474      866.390
01/06/2014  22:54:00      -58.516       33.237       -7.754       22.306       15.409       15.238      497.575      237.426      232.199        0.278        0.048       67.297        8.911        0.018      333.171        2.310      866.422
01/06/2014  22:55:00      -86.498       23.249      -10.773       35.906       22.862       18.153     1289.262      522.678      329.530        0.514        0.107       89.568       18.581        0.043      333.154        2.281      866.489
01/06/2014  22:56:00     -129.058       -1.523      -17.842       36.012       32.336       22.867     1296.833     1045.634      522.885        0.992        0.143      129.067       18.736        0.021      333.107        2.206      866.587
01/06/2014  22:57:00     -162.782       20.860      -24.577       34.413       33.859       21.148     1184.272     1146.405      447.243        1.516        0.139      164.113       15.337        0.009      333.086        2.169      866.638
01/06/2014  22:58:00     -106.540      -26.060      -17.971       33.874       26.069       20.650     1147.427      679.591      426.422        0.730        0.113      109.681       14.437        0.017      333.002        2.032      866.594
01/06/2014  22:59:00      -32.347      -11.255       -1.110       16.160       17.619       15.755      261.159      310.412      248.206        0.100        0.041       34.250       11.642        0.116      333.058        2.126      866.515
01/06/2014  23:00:00      -26.101       -8.413       -3.572        8.568        7.709        7.280       73.416       59.430       53.000        0.048        0.009       27.423        3.659        0.018      333.112        2.214      866.465
01/06/2014  23:01:00      -34.269       -5.877        1.934       10.556       13.385       10.214      111.432      179.169      104.329        0.080        0.020       34.769        8.110        0.054      333.217        2.385      866.479
01/06/2014  23:02:00      -22.347       -5.958       -5.128        8.544        8.064       10.835       73.001       65.021      117.392        0.041        0.013       23.128        7.939        0.118      333.174        2.315      866.531
01/06/2014  23:03:00        2.707      -40.396       -1.198        7.574       11.634        6.158       57.361      135.362       37.921        0.094        0.012       40.486        2.720        0.005      333.303        2.529      866.575
01/06/2014  23:04:00      -13.411      -29.551        0.759       10.971       10.477        8.144      120.373      109.771       66.333        0.068        0.015       32.452        4.058        0.016      333.433        2.745      866.594
01/06/2014  23:05:00      -22.158       -7.334       -2.241        6.976        6.141        7.326       48.658       37.711       53.666        0.034        0.007       23.341        4.818        0.043      333.414        2.712      866.596
01/06/2014  23:06:00      -22.154        9.485        4.118       17.259       11.189        8.804      297.877      125.198       77.513        0.055        0.025       24.099        7.664        0.101      333.288        2.505      866.583
01/06/2014  23:07:00       20.656       14.143        7.728       26.346       16.937       11.394      694.108      286.868      129.826        0.090        0.056       25.034        9.906        0.157      333.329        2.572      866.543
01/06/2014  23:08:00       37.550       33.891        7.400       24.713       11.773       11.564      610.736      138.615      133.716        0.175        0.044       50.582        7.746        0.023      333.441        2.758      866.479
01/06/2014  23:09:00       53.559       40.945        2.507       26.374       13.361       13.942      695.609      178.519      194.378        0.281        0.053       67.417        8.150        0.015      333.443        2.760      866.416
01/06/2014  23:10:00       76.587       39.191       15.562       38.445       18.756       18.221     1478.029      351.799      332.011        0.490        0.108       86.032       15.241        0.031      333.376        2.650      866.367
01/06/2014  23:11:00       56.966       27.082       -2.745       34.905       21.061       19.186     1218.361      443.553      368.096        0.301        0.102       63.076       10.815        0.029      333.282        2.495      866.371
01/06/2014  23:12:00        7.326       11.578      -13.799       12.100       14.780        8.439      146.418      218.456       71.220        0.041        0.022       13.701        8.364        0.373      333.271        2.476      866.451
01/06/2014  23:13:00      -11.727       -4.570       -3.653       18.978        7.944        6.813      360.149       63.101       46.417        0.032        0.023       12.586        6.719        0.285      333.291        2.507      866.523
01/06/2014  23:14:00      -44.159       -7.647       -4.996       13.532        9.045        8.118      183.110       81.813       65.900        0.118        0.017       44.816        4.459        0.010      333.091        2.180      866.596
01/06/2014  23:15:00      -57.623      -20.391       -8.593        9.978        7.764        6.084       99.566       60.276       37.011        0.200        0.010       61.125        3.551        0.003      333.184        2.333      866.648
01/06/2014  23:16:00      -78.452       -2.114       -5.171       32.166       15.313       12.913     1034.647      234.501      166.756        0.381        0.072       78.481       14.476        0.034      333.155        2.285      866.704
01/06/2014  23:17:00      -58.024       17.566      -13.311       28.103       13.385       13.258      789.763      179.160      175.787        0.250        0.057       60.625        7.587        0.016      333.142        2.262      866.720
01/06/2014  23:18:00      -15.279       38.943       -7.763       27.667       24.245       13.512      765.478      587.807      182.578        0.167        0.077       41.833       12.987        0.096      333.343        2.594      866.704
01/06/2014  23:19:00       -4.798      120.704      -14.289       13.773       20.560       13.570      189.697      422.719      184.139        0.780        0.040      120.799       10.495        0.008      333.465        2.799      866.703
01/06/2014  23:20:00       13.078      100.199      -14.703       17.248       20.681       15.226      297.483      427.695      231.830        0.569        0.048      101.049       10.971        0.012      333.220        2.391      866.705
01/06/2014  23:21:00       36.597       48.533       -2.731       27.790       24.663       17.897      772.290      608.274      320.319        0.270        0.085       60.784       14.161        0.054      333.234        2.413      866.667
01/06/2014  23:22:00       57.450       43.653       -8.138       45.754       35.829       19.355     2093.406     1283.740      374.601        0.451        0.188       72.154       19.023        0.070      333.662        3.125      866.616
01/06/2014  23:23:00       26.066        6.532       20.473       23.688       39.886       27.533      561.098     1590.921      758.062        0.203        0.146       26.872       26.895        1.002      333.584        2.995      866.547
01/06/2014  23:24:00       19.880       32.460        4.240       20.863       24.260       23.280      435.270      588.559      541.945        0.152        0.078       38.064       13.599        0.128      333.580        2.988      866.452
01/06/2014  23:25:00       60.150       44.725       31.720       26.507       28.044       26.382      702.642      786.445      695.994        0.440        0.109       74.955       16.522        0.049      333.239        2.423      866.352
01/06/2014  23:26:00       76.732       56.255       49.536       39.805       34.480       31.800     1584.407     1188.867     1011.255        0.764        0.189       95.144       26.682        0.079      333.149        2.275      866.268
01/06/2014  23:27:00       58.044       89.443       77.261       41.497       29.327       34.765     1721.967      860.091     1208.613        1.056        0.190      106.627       28.142        0.070      333.187        2.337      866.214
01/06/2014  23:28:00       36.549       31.924       47.860       32.434       28.983       16.071     1051.984      840.007      258.266        0.340        0.108       48.528       15.661        0.104      333.289        2.506      866.205
01/06/2014  23:29:00       30.836        5.456       24.587       35.686       18.434       17.422     1273.473      339.826      303.534        0.175        0.096       31.315       17.015        0.295      333.385        2.664      866.199
01/06/2014  23:30:00        7.258       13.415       31.318       13.439       15.012        9.456      180.609      225.351       89.416        0.085        0.025       15.253        8.923        0.342      333.370        2.639      866.199
01/06/2014  23:31:00       12.731      -45.249        8.126       18.911       36.827       20.652      357.636     1356.262      426.510        0.221        0.107       47.006       18.559        0.156      333.566        2.964      866.176
01/06/2014  23:32:00        9.066      -28.738       30.196       19.206       35.191       19.673      368.858     1238.390      387.013        0.191        0.100       30.135       18.982        0.397      333.492        2.841      866.140
01/06/2014  23:33:00       21.002      -45.215       13.894       28.054       40.145       20.640      787.020     1611.622      426.020        0.275        0.141       49.855       26.547        0.284      333.522        2.891      866.111
01/06/2014  23:34:00      -21.981      -44.525       -3.294       33.485       28.171       13.550     1121.246      793.616      183.598        0.229        0.105       49.655        7.189        0.021      333.302        2.528      866.107
01/06/2014  23:35:00      -99.779      -49.862        4.664       42.930       33.929       19.377     1843.012     1151.200      375.457        0.792        0.168      111.544       15.275        0.019      333.211        2.376      866.110
01/06/2014  23:36:00      -62.464      -25.918        4.896       41.335       23.250       21.244     1708.604      540.547      451.303        0.365        0.135       67.627       21.855        0.104      333.137        2.254      866.157
01/06/2014  23:37:00      -46.247      -17.270        1.657       21.818       23.101       13.236      476.043      533.675      175.201        0.181        0.059       49.366       10.738        0.047      333.054        2.118      866.190
01/06/2014  23:38:00      -25.119      -55.508        7.616       33.394       22.184       21.659     1115.188      492.144      469.125        0.292        0.104       60.927       22.789        0.140      333.131        2.245      866.196
01/06/2014  23:39:00       -0.036        9.899       25.690       16.856       20.678       14.528      284.138      427.586      211.076        0.084        0.046        9.899        7.158        0.523      333.249        2.438      866.174
01/06/2014  23:40:00      -15.923      -26.987       30.361       29.805       35.156       27.060      888.351     1235.967      732.225        0.238        0.143       31.334       21.410        0.467      333.249        2.440      866.151
01/06/2014  23:41:00        4.632      -86.201       -4.288       35.607       52.895       31.740     1267.829     2797.884     1007.453        0.627        0.254       86.325       25.123        0.085      333.209        2.372      866.123
01/06/2014  23:42:00       36.609      -77.232       -3.516       46.020       36.285       34.841     2117.811     1316.575     1213.907        0.598        0.232       85.470       23.130        0.073      333.205        2.366      866.095
01/06/2014  23:43:00      -46.504      -38.320       -3.578       47.995       32.662       17.474     2303.554     1066.837      305.355        0.366        0.184       60.259        8.439        0.020      333.210        2.373      866.049
01/06/2014  23:44:00      -52.819      -74.262       -5.019       43.489       39.013       21.978     1891.296     1522.000      483.053        0.611        0.195       91.131       18.354        0.041      333.093        2.182      866.009
01/06/2014  23:45:00      -44.349      -50.701       -0.049       51.215       34.644       25.065     2623.012     1200.210      628.233        0.449        0.223       67.360       15.831        0.055      333.072        2.146      866.021
01/06/2014  23:46:00      -73.039      -79.697       10.068       75.296       49.706       24.692     5669.508     2470.714      609.709        1.027        0.437      108.103       15.246        0.020      332.938        1.926      866.071
01/06/2014  23:47:00     -143.010      -90.303        7.744       72.531       51.359       34.967     5260.799     2637.723     1222.719        1.889        0.456      169.135       27.167        0.026      332.700        1.531      866.124
01/06/2014  23:48:00     -166.871     -117.828       -0.421       72.091       56.478       39.000     5197.157     3189.714     1521.002        2.582        0.495      204.278       31.035        0.023      332.578        1.329      866.155
01/06/2014  23:49:00     -145.462     -114.634       -7.233       78.211       53.737       30.514     6116.990     2887.701      931.130        2.214        0.497      185.203       33.436        0.033      332.566        1.309      866.141
01/06/2014  23:50:00     -126.425      -49.327       -2.235       52.190       55.996       29.520     2723.800     3135.592      871.458        1.258        0.337      135.707       23.007        0.029      332.586        1.344      866.087
01/06/2014  23:51:00     -162.709     -109.913      -17.596       31.454       47.083       23.727      989.360     2216.775      562.975        2.132        0.188      196.355       15.205        0.006      332.529        1.249      866.051
01/06/2014  23:52:00     -194.784      -84.969       -6.022       46.162       55.282       34.341     2130.948     3056.062     1179.324        2.578        0.318      212.510       21.537        0.010      332.550        1.282      866.067
01/06/2014  23:53:00     -161.680      -58.727      -12.604       55.839       55.265       32.040     3117.997     3054.270     1026.553        1.847        0.360      172.015       15.442        0.008      332.572        1.320      866.117
01/06/2014  23:54:00     -149.777      -79.830       -2.056       71.165       44.083       28.908     5064.439     1943.333      835.654        1.833        0.392      169.723       29.100        0.029      332.519        1.232      866.165
01/06/2014  23:55:00     -109.577      -39.836       -3.883       38.750       26.377       24.858     1501.541      695.768      617.935        0.821        0.141      116.593       20.436        0.031      332.526        1.245      866.169
01/06/2014  23:56:00     -104.674      -44.649       -4.769       68.441       51.838       29.513     4684.168     2687.203      871.031        1.061        0.412      113.799       34.017        0.089      332.485        1.178      866.144
01/06/2014  23:57:00     -112.872       -2.518        3.538       49.393       42.286       26.993     2439.711     1788.130      728.604        0.886        0.248      112.900       26.305        0.054      332.523        1.239      866.104
01/06/2014  23:58:00      -93.658        5.253       -1.998       49.982       37.395       28.406     2498.215     1398.403      806.905        0.675        0.235       93.805       31.215        0.111      332.567        1.313      866.077
01/06/2014  23:59:00     -118.859       10.392      -19.763       36.411       36.748       19.408     1325.772     1350.449      376.653        0.884        0.153      119.312       22.759        0.036      332.519        1.234      866.062
